     2              OBSERVATION DATA    GPS                 RINEX VERSION / TYPE
teqc 1999Jul19 19991123 02:46:08UTC                         PGM / RUN BY / DATE
                                                            COMMENT
Original Marker Name: 0211                                  COMMENT
Campaign Name: HPGN 1991                                    COMMENT
4-Character Station Name: 0211                              COMMENT
6-Character Antenna Code: TRMSST                            COMMENT
Vertical Measurement Point: BPA                             COMMENT
Vertical Offset to Rinex Ref. Point: 0.0000                 COMMENT
Radial Measurement Point: RRP                               COMMENT
Radial Offset to Rinex Ref. Point: 0.0000                   COMMENT
Antenna Height from Field Measurement: 2.2200 m             COMMENT
                                                            COMMENT
Original XYZ: -2391965.0288 -4139882.7633 4209349.1587      COMMENT
New XYZ position is based on association with SCEC monument COMMENT
E1P3F9B5+0011. Position of that monument is believed to be  COMMENT
valid to within 1 m horizontally; vertical accuracy         COMMENT
should be no worse than 3-times this value.                 COMMENT
                                                            COMMENT
Revised Rinex header created by UCSD GPS archive for        COMMENT
GSAC on 10-Mar-2000 (2000:070) 04:36:46 GMT                 COMMENT
For assistance contact dagnew@ucsd.edu or hjohnson@ucsd.edu COMMENT
                                                            COMMENT
HPGN CA 0211                                                MARKER NAME
0211                                                        MARKER NUMBER
-Unknown- CALIF DEPT TRANSPORTATION                         OBSERVER / AGENCY
290 TRIMBLE 4000 SST NP 4.30 / SP 4.20                      REC # / TYPE / VERS
103 TR 4000SST L1/L2 GEO                                    ANT # / TYPE
 -2391973.0778 -4139869.2395  4209368.6487                  APPROX POSITION XYZ
        2.2200        0.0000        0.0000                  ANTENNA: DELTA H/E/N
     1     1     0                                          WAVELENGTH FACT L1/2
     5    C1    L1    L2    S1    S2                        # / TYPES OF OBSERV
     0                                                      INTERVAL
  1991     6    24    15    34   15.000000                  TIME OF FIRST OBS
  1991     6    24    21    36   15.000000                  TIME OF LAST OBS
                                                            END OF HEADER
 91  6 24 15 34 15.0000000  0  5G18G11G16G19G 2
  20814556.727          -0.66518        -0.06033        28.500           3.188
  24344484.297          -0.92715        -0.05131        11.000           0.281
  24232698.359          -0.25815        -0.02631         8.750           0.375
  20664425.930          -0.24517        -0.28032        20.750           1.563
  24539112.727          -0.03615                         9.250
 91  6 24 15 34 30.0000000  0  5G18G11G16G19G 2
  20818070.750       18466.388 8     14389.83923        28.500           3.094
  24335845.977      -45390.896 5    -35368.81021        10.250           0.313
  24225643.383      -37059.108 5    -28877.01721         8.750           0.406
  20662620.672       -9469.629 7     -7379.01922        21.500           1.625
  24528425.758      -56169.183 5        -0.34131         9.000           0.375
 91  6 24 15 34 45.0000000  0  5G18G11G16G19G 2
  20821602.859       37027.807 8     28853.27423        28.500           3.188
  24327221.219      -90725.231 5    -70694.23521        10.750           0.344
  24218612.680      -74022.044 5    -57679.28121         8.750           0.500
  20660830.766      -18888.947 7    -14718.74322        20.750           1.625
  24517738.383     -112326.207 5    -43758.99721         8.500           0.313
 91  6 24 15 35  0.0000000  0  5G18G11G16G19G 2
  20825154.016       55690.272 8     43395.44623        28.500           3.063
  24318604.445     -135996.701 5   -105970.67721        10.750           0.406
  24211595.602     -110881.914 5    -86401.23321         9.000           0.438
  20659047.703      -28251.424 7    -22014.18122        21.250           1.750
  24507055.578     -168464.059 5    -87502.69821         8.000           0.438
 91  6 24 15 35 15.0000000  0  5G18G11G16G19G 2
  20828725.273       74458.347 8     58019.90723        28.500           3.156
  24310003.164     -181200.040 5   -141194.03921        10.250           0.313
  24204603.648     -147633.610 5   -115038.88421         9.250           0.406
  20657276.813      -37552.294 7    -29261.61022        21.500           1.656
  24496376.664     -224577.737 5   -131227.59321         8.000           0.375
 91  6 24 15 35 30.0000000  0  5G18G11G16G19G 2
  20832317.797       93334.721 8     72728.76023        28.750           3.125
  24301415.922     -226332.178 5   -176361.90421        10.000           0.313
  24197630.594     -184274.109 5   -143589.89821         9.250           0.375
  20655519.789      -46788.792 7    -36458.88222        21.500           1.625
  24485702.734     -280664.256 5   -174931.28721         7.750           0.406
 91  6 24 15 35 45.0000000  0  5G18G11G16G19G 2
  20835930.164      112318.647 8     87521.41823        28.500           3.094
  24292841.680     -271393.439 5   -211474.53521        10.250           0.469
  24190678.023     -220804.143 5   -172054.84921         9.000           0.406
  20653776.391      -55961.668 7    -43606.57622        21.000           1.656
  24475036.102     -336724.089 5   -218614.19021         8.750           0.344
 91  6 24 15 36  0.0000000  0  5G18G11G16G19G 2
  20839563.188      131409.735 8    102397.57923        28.500           3.063
  24284275.836     -316383.507 5   -246531.70621         9.750           0.469
  24183748.328     -257223.420 5   -200433.47921         9.500           0.375
  20652042.523      -65070.997 7    -50704.75622        21.500           1.656
  24464373.469     -392757.201 5   -262276.32021         9.250           0.375
 91  6 24 15 36 15.0000000  0  5G18G11G16G19G 2
  20843217.758      150613.107 8    117361.23123        28.500           3.031
  24275735.219     -361297.025 5   -281529.20121        10.250           0.438
  24176839.500     -293526.679 5   -228721.71021         9.500           0.438
  20650322.398      -74111.844 7    -57749.57222        21.000           1.719
  24453716.281     -448758.364 5   -305913.55321         9.500           0.313
 91  6 24 15 36 30.0000000  0  5G18G11G16G19G 2
  20846892.266      169925.682 8    132409.97723        28.000           3.063
  24267200.125     -406136.383 5   -316468.92821        10.250           0.375
  24169953.734     -329716.540 5   -256921.56421         9.500           0.344
  20648613.445      -83087.127 7    -64743.29822        21.500           1.688
  24443065.641     -504730.201 5   -349527.91021         9.500           0.344
 91  6 24 15 36 45.0000000  0  5G18G11G16G19G 2
  20850587.180      189344.802 8    147541.74223        28.000           3.000
  24258679.617     -450903.826 5   -351352.60521        10.250           0.469
  24163086.258     -365795.163 5   -285034.75421         9.750           0.375
  20646918.789      -91999.633 7    -71688.10822        21.000           1.656
  24432420.820     -560675.276 5   -393121.40421         9.500           0.313
 91  6 24 15 37  0.0000000  0  5G18G11G16G19G 2
  20854304.195      208876.505 8    162761.24223        28.000           3.063
  24250177.375     -495592.902 5   -386175.21921        11.000           0.531
  24156244.047     -401756.409 5   -313056.48521        10.000           0.406
  20645234.047     -100843.252 7    -78579.24122        21.750           1.719
  24421780.422     -616587.480 5   -436689.31221         9.000           0.406
 91  6 24 15 37 15.0000000  0  5G18G11G16G19G 2
  20858042.695      228521.053 7    178068.67223        27.750           2.969
  24241688.078     -540202.771 5   -420936.12221        11.500           0.438
  24149424.609     -437599.878 5   -340986.43921        10.250           0.406
  20643566.484     -109617.469 7    -85416.29522        21.000           1.656
  24411147.672     -672466.099 5   -480231.02321         9.000           0.500
 91  6 24 15 37 30.0000000  0  5G18G11G16G19G 2
  20861802.734      248278.665 7    193464.20423        27.750           3.031
  24233213.859     -584732.818 5   -455634.82521        11.250           0.469
  24142623.711     -473324.906 5   -368824.10521        10.250           0.344
  20641907.398     -118322.299 7    -92199.28222        22.000           1.656
  24400520.609     -728310.617 5   -523746.16521         9.000           0.438
 91  6 24 15 37 45.0000000  0  5G18G11G16G19G 2
  20865582.688      268143.657 7    208943.40623        27.750           3.094
  24224755.383     -629188.135 5   -490275.30021        11.750           0.438
  24135847.102     -508936.504 5   -396573.39321        10.000           0.344
  20640264.625     -126962.931 7    -98932.23922        21.000           1.656
  24389899.336     -784126.207 5   -567238.76221         9.000           0.563
 91  6 24 15 38  0.0000000  0  5G18G11G16G19G 2
  20869384.086      288118.959 7    224508.56523        27.500           3.000
  24216310.484     -673565.346 6   -524854.91321        12.000           0.531
  24129093.828     -544431.692 5   -424231.95321        10.000           0.375
  20638633.320     -135536.675 7   -105613.08122        21.250           1.625
  24379282.672     -839909.919 5   -610706.52721         9.750           0.594
 91  6 24 15 38 15.0000000  0  5G18G11G16G19G 2
  20873205.703      308201.253 7    240157.09123        27.500           2.969
  24207878.688     -717867.235 5   -559375.82921        11.500           0.406
  24122363.148     -579813.455 5   -451802.13621        10.250           0.406
  20637011.664     -144046.678 7   -112244.25622        21.500           1.688
  24368673.719     -895664.839 5   -654151.85121        10.250           0.531
 91  6 24 15 38 30.0000000  0  5G18G11G16G19G 2
  20877048.164      328394.432 7    255892.01823        27.750           3.063
  24199464.445     -762089.644 5   -593834.82621        11.000           0.500
  24115647.555     -615077.909 5   -479280.92421         9.750           0.313
  20635406.320     -152489.060 7   -118822.73922        21.750           1.563
  24358069.047     -951387.028 5   -697571.69921        10.500           0.438
 91  6 24 15 38 45.0000000  0  5G18G11G16G19G 2
  20880912.648      348697.552 7    271712.61723        27.750           3.031
  24191064.773     -806232.781 5   -628232.05821        11.000           0.500
  24108962.477     -650225.401 5   -506668.56721         9.750           0.375
  20633813.563     -160864.715 7   -125349.22422        21.250           1.625
  24347472.117    -1007076.668 5   -740966.16421        10.250           0.344
 91  6 24 15 39  0.0000000  0  5G18G11G16G19G 2
  20884797.219      369113.616 7    287621.22423        27.750           2.938
  24182678.945     -850293.384 5   -662564.96521        11.000           0.500
  24102296.898     -685252.700 5   -533962.53621        10.000           0.406
  20632231.492     -169170.642 7   -131821.37322        21.750           1.656
  24336880.820    -1062730.762 5   -784332.94021        10.000           0.281
 91  6 24 15 39 15.0000000  0  5G18G11G16G19G 2
  20888702.664      389639.358 8    303615.28823        28.000           2.844
  24174309.859     -894273.791 5   -696835.38521        10.500           0.500
  24095654.414     -720162.255 5   -561164.77021        10.000           0.344
  20630666.289     -177409.595 7   -138241.34022        21.250           1.625
  24326297.656    -1118351.948 5   -827674.09521         9.750           0.313
 91  6 24 15 39 30.0000000  0  5G18G11G16G19G 2
  20892630.336      410277.316 8    319696.80023        28.000           2.875
  24165955.008     -938171.316 5   -731041.22821        10.500           0.563
  24089032.648     -754951.768 5   -588273.46321         9.750           0.438
  20629108.727     -185579.342 7   -144607.38022        21.750           1.625
  24315719.359    -1173937.697 5   -870987.61021         9.250           0.281
 91  6 24 15 39 45.0000000  0  5G18G11G16G19G 2
  20896577.773      431024.297 7    335863.26423        27.750           2.906
  24157619.266     -981988.832 5   -765184.71321        11.500           0.469
  24082437.125     -789623.994 5   -615290.75621         9.750           0.406
  20627568.758     -193683.253 7   -150922.11622        21.250           1.625
  24305147.336    -1229491.085 5   -914275.93621         9.500           0.281
 91  6 24 15 40  0.0000000  0  5G18G11G16G19G 2
  20900547.094      451882.900 7    352116.70423        27.750           2.750
  24149294.406    -1025723.138 5   -799263.36921        11.250           0.594
  24075860.750     -824176.089 5   -642214.46321         9.750           0.406
  20626039.148     -201718.563 7   -157183.39422        22.000           1.719
  24294583.820    -1285009.208 5   -957536.76421         9.750           0.281
 91  6 24 15 40 15.0000000  0  5G18G11G16G19G 2
  20904536.945      472848.384 7    368453.43023        27.250           2.844
  24140989.078    -1069378.220 6   -833280.30021        12.000           0.500
  24069308.258     -858612.184 5   -669047.76821        10.000           0.438
  20624522.953     -209689.530 7   -163394.54422        21.250           1.656
  24284024.906    -1340496.114 5  -1000773.28321        10.250           0.281
 91  6 24 15 40 30.0000000  0  5G18G11G16G19G 2
  20908547.492      493922.235 7    384874.60423        27.000           2.844
  24132695.766    -1112952.131 6   -867233.96921        12.500           0.531
  24062776.852     -892930.381 5   -695789.21021         9.750           0.375
  20623015.766     -217594.798 7   -169554.49222        21.750           1.656
  24273470.797    -1395950.286 5  -1043984.27421        10.000           0.469
 91  6 24 15 40 45.0000000  0  5G18G11G16G19G 2
  20912578.453      515104.767 7    401380.46023        27.000           2.906
  24124422.313    -1156444.339 6   -901123.97421        13.000           0.531
  24056270.875     -927130.637 5   -722438.73621        10.250           0.313
  20621526.398     -225434.114 7   -175663.05722        21.000           1.719
  24262925.422    -1451371.240 5  -1087169.38621        10.250           0.438
 91  6 24 15 41  0.0000000  0  5G18G11G16G19G 2
  20916629.703      536399.673 7    417973.87723        27.000           2.906
  24116160.563    -1199850.461 6   -934946.90821        13.000           0.438
  24049783.875     -961208.616 5   -748992.99921         9.750           0.313
  20620049.734     -233203.673 7   -181717.25922        20.750           1.719
  24252385.227    -1506754.987 5  -1130325.50721        10.000           0.469
 91  6 24 15 41 15.0000000  0  5G18G11G16G19G 2
  20920703.281      557804.067 7    434652.61023        27.000           2.875
  24107915.930    -1243172.955 6   -968704.66221        13.000           0.563
  24043322.930     -995166.552 5   -775453.71021         9.750           0.313
  20618579.539     -240906.275 7   -187719.29022        21.750           1.813
  24241853.961    -1562104.043 5  -1173454.60921         9.250           0.375
 91  6 24 15 41 30.0000000  0  5G18G11G16G19G 2
  20924796.594      579320.009 7    451418.26323        27.250           2.844
  24099689.234    -1286409.468 6  -1002395.44521        13.000           0.531
  24036882.867    -1029002.933 5   -801819.69521         9.750           0.375
  20617130.305     -248540.130 7   -193667.75022        21.000           1.656
  24231329.461    -1617416.073 5  -1216554.83621         8.750           0.313
 91  6 24 15 41 45.0000000  0  5G18G11G16G19G 2
  20928913.180      600944.180 7    468268.25423        27.500           2.844
  24091477.930    -1329562.640 6  -1036021.25421        12.750           0.469
  24030466.008    -1062720.237 5   -828092.90921         9.500           0.313
  20615690.844     -256108.258 7   -199564.99622        21.000           1.688
  24220807.578    -1672694.146 5  -1259628.61221         8.250           0.313
 91  6 24 15 42  0.0000000  0  5G18G11G16G19G 2
  20933049.859      622680.514 7    485205.64323        27.500           2.906
  24083282.508    -1372627.911 6  -1069578.57621        12.250           0.500
  24024073.781    -1096314.179 5   -854269.98921         9.500           0.344
  20614260.797     -263606.469 7   -205407.76122        22.000           1.719
  24210296.906    -1727933.953 5  -1302672.57721         8.500           0.281
 91  6 24 15 42 15.0000000  0  5G18G11G16G19G 2
  20937206.750      644529.026 7    502230.44023        27.750           2.875
  24075100.703    -1415604.812 5  -1103067.05221        11.500           0.469
  24017705.742    -1129784.360 5   -880350.63021         9.500           0.438
  20612850.008     -271034.636 7   -211195.94622        21.000           1.688
  24199793.695    -1783135.299 5  -1345686.59721         9.250           0.313
 91  6 24 15 42 30.0000000  0  5G18G11G16G19G 2
  20941384.594      666483.748 7    519338.00823        27.500           2.969
  24066941.117    -1458498.761 5  -1136490.87521        11.500           0.500
  24011358.156    -1163136.302 5   -906339.14721         9.250           0.344
  20611446.797     -278398.454 7   -216933.98622        21.750           1.719
  24189295.234    -1838303.697 5  -1388674.92721        10.000           0.313
 91  6 24 15 42 45.0000000  0  5G18G11G16G19G 2
  20945583.820      688551.344 7    536533.52023        27.750           2.906
  24058796.797    -1501302.686 5  -1169844.57821        11.500           0.469
  24005035.570    -1196363.323 5   -932230.31121         9.250           0.406
  20610061.117     -285691.464 7   -222616.85022        20.750           1.656
  24178802.352    -1893432.245 5  -1431632.21121        10.000           0.438
 91  6 24 15 43  0.0000000  0  5G18G11G16G19G 2
  20949804.469      710727.305 7    553813.47123        27.750           2.906
  24050664.555    -1544020.641 5  -1203131.25921        10.750           0.438
  23998736.297    -1229469.485 5   -958027.27721         9.250           0.375
  20608682.594     -292918.101 7   -228247.99922        22.000           1.688
  24168320.328    -1948525.282 5  -1474561.81921        10.250           0.438
 91  6 24 15 43 15.0000000  0  5G18G11G16G19G 2
  20954045.148      733013.095 7    571179.01123        27.500           2.969
  24042555.586    -1586650.683 5  -1236349.44021        11.250           0.438
  23992459.383    -1262453.078 5   -983728.76921         9.500           0.313
  20607322.813     -300076.928 7   -233826.30822        21.000           1.688
  24157842.688    -2003581.106 5  -1517462.42121        10.000           0.594
 91  6 24 15 43 30.0000000  0  5G18G11G16G19G 2
  20958306.703      755406.731 7    588628.58423        27.750           2.938
  24034459.516    -1629194.474 5  -1269500.42121        11.250           0.500
  23986206.492    -1295315.865 5  -1009336.11921         9.750           0.344
  20605970.547     -307170.042 7   -239353.41222        21.500           1.656
  24147373.156    -2058601.488 5  -1560335.39621         9.250           0.625
 91  6 24 15 43 45.0000000  0  5G18G11G16G19G 2
  20962588.836      777910.866 7    606164.25623        27.750           2.969
  24026380.586    -1671648.864 5  -1302581.75321        11.250           0.563
  23979976.125    -1328054.780 5  -1034846.94521         9.500           0.375
  20604636.492     -314194.546 7   -244827.05422        21.250           1.625
  24136910.945    -2113583.284 5  -1603178.30421         9.500           0.469
 91  6 24 15 44  0.0000000  0  5G18G11G16G19G 2
  20966891.609      800522.465 8    623783.66623        28.000           2.969
  24018316.063    -1714016.086 5  -1335595.14221        11.250           0.500
  23973768.922    -1360672.473 5  -1060263.31321         9.750           0.281
  20603314.281     -321153.104 7   -250249.30922        20.500           1.688
  24126453.641    -2168529.114 5  -1645993.20221         9.500           0.500
 91  6 24 15 44 15.0000000  0  5G18G11G16G19G 2
  20971215.742      823243.458 7    641488.32023        27.500           3.000
  24010270.148    -1756293.890 5  -1368538.84821        11.250           0.563
  23967585.648    -1393166.831 5  -1085583.57421        10.000           0.375
  20601998.125     -328043.822 7   -255618.70022        21.500           1.656
  24116005.641    -2223436.803 5  -1688778.36721        10.500           0.594
 91  6 24 15 44 30.0000000  0  5G18G11G16G19G 2
  20975559.469      846072.086 7    659276.84123        27.500           3.000
  24002244.156    -1798483.520 5  -1401413.86021        11.500           0.500
  23961424.188    -1425539.159 5  -1110808.75421         9.750           0.344
  20600699.141     -334868.435 7   -260936.57722        21.750           1.656
  24105563.289    -2278308.006 5  -1731535.12421        10.750           0.531
 91  6 24 15 44 45.0000000  0  5G18G11G16G19G 2
  20979924.070      869009.938 7    677150.47323        27.500           3.063
  23994231.508    -1840582.761 5  -1434218.43821        11.500           0.469
  23955288.930    -1457787.451 5  -1135937.27021         9.750           0.438
  20599417.547     -341625.047 7   -266201.47322        21.000           1.531
  24095128.813    -2333140.673 5  -1774261.85621        11.250           0.531
 91  6 24 15 45  0.0000000  0  5G18G11G16G19G 2
  20984308.883      892054.696 7    695107.40623        27.250           2.938
  23986237.102    -1882593.425 5  -1466953.99821        11.750           0.500
  23949176.438    -1489913.463 5  -1160970.51621         9.750           0.375
  20598141.477     -348315.997 7   -271415.20122        22.000           1.625
  24084702.047    -2387936.787 5  -1816960.10621        11.250           0.500
 91  6 24 15 45 15.0000000  0  5G18G11G16G19G 2
  20988716.031      915208.048 7    713148.96323        27.500           3.000
  23978261.336    -1924513.592 5  -1499619.02321        11.750           0.500
  23943083.719    -1521915.900 5  -1185907.45921         9.750           0.469
  20596883.102     -354939.845 7   -276576.64322        21.250           1.656
  24074282.031    -2442694.680 5  -1859628.56721        10.750           0.656
 91  6 24 15 45 30.0000000  0  5G18G11G16G19G 2
  20993141.547      938468.517 7    731273.99523        27.500           3.031
  23970299.086    -1966344.177 5  -1532214.25921        11.250           0.469
  23937019.641    -1553795.574 5  -1210748.76321         9.750           0.406
  20595635.484     -361497.782 7   -281686.72422        21.500           1.594
  24063869.883    -2497415.305 5  -1902267.96721        10.500           0.688
 91  6 24 15 45 45.0000000  0  5G18G11G16G19G 2
  20997589.617      961843.334 7    749488.12023        27.250           3.063
  23962363.508    -2008077.474 6  -1564733.68421        12.000           0.563
  23930978.203    -1585544.966 5  -1235488.53721        10.250           0.375
  20594400.953     -367982.743 7   -286739.94122        21.000           1.563
  24053463.383    -2552091.379 5  -1944872.66021        10.500           0.781
 91  6 24 15 46  0.0000000  0  5G18G11G16G19G 2
  21002058.828      985324.770 7    767785.32523        26.750           3.156
  23954435.266    -2049720.491 6  -1597182.74421        12.000           0.438
  23924958.852    -1617171.325 5  -1260132.43021        10.250           0.500
  20593177.367     -374402.001 7   -291741.96222        21.750           1.719
  24043067.016    -2606730.138 5  -1987448.26721        10.750           0.750
 91  6 24 15 46 15.0000000  0  5G18G11G16G19G 2
  21006547.391     1008913.472 7    786166.11423        26.750           3.156
  23946526.672    -2091272.116 5  -1629560.62121        11.750           0.469
  23918963.367    -1648673.693 5  -1284679.72921        10.000           0.406
  20591971.008     -380754.794 7   -296692.19122        21.000           1.594
  24032678.602    -2661330.544 5  -2029993.99921        11.500           0.594
 91  6 24 15 46 30.0000000  0  5G18G11G16G19G 2
  21011058.000     1032608.400 7    804629.67723        26.250           3.188
  23938639.297    -2132733.152 6  -1661867.88021        12.000           0.500
  23912991.258    -1680053.157 5  -1309131.23921        10.000           0.438
  20590767.539     -387042.202 7   -301591.47522        21.500           1.688
  24022293.844    -2715893.433 5  -2072510.51021        11.750           0.563
 91  6 24 15 46 45.0000000  0  5G18G11G16G19G 2
  21015585.469     1056410.840 7    823177.01423        26.250           3.219
  23930765.016    -2174101.696 6  -1694103.08621        12.250           0.500
  23907046.266    -1711307.923 5  -1333485.59021        10.000           0.531
  20589591.328     -393262.852 7   -306438.73822        21.000           1.625
  24011918.797    -2770417.344 6  -2114996.65221        12.000           0.500
 91  6 24 15 47  0.0000000  0  5G18G11G16G19G 2
  21020136.328     1080321.523 7    841808.70023        26.500           3.250
  23922912.320    -2215376.358 6  -1726265.13521        12.500           0.500
  23901120.797    -1742436.703 5  -1357741.75821         9.750           0.563
  20588417.469     -399415.698 7   -311233.16722        21.750           1.719
  24001550.680    -2824901.002 5  -2157451.44421        11.500           0.500
 91  6 24 15 47 15.0000000  0  5G18G11G16G19G 2
  21024706.813     1104344.735 7    860528.06223        26.500           3.156
  23915075.867    -2256552.346 6  -1758350.29821        13.000           0.469
  23895222.344    -1773434.899 5  -1381896.19021         9.750           0.469
  20587262.164     -405496.492 7   -315971.44722        21.000           1.594
  23991191.664    -2879339.899 5  -2199871.33021        10.750           0.438
 91  6 24 15 47 30.0000000  0  5G18G11G16G19G 2
  21029299.109     1128474.448 7    879330.41723        26.500           3.156
  23907258.602    -2297635.339 6  -1790362.99821        13.250           0.500
  23889348.688    -1804308.396 5  -1405953.43321        10.000           0.563
  20586116.086     -411511.360 7   -320658.36022        21.250           1.656
  23980838.508    -2933739.774 5  -2242260.82121        10.250           0.531
 91  6 24 15 47 45.0000000  0  5G18G11G16G19G 2
  21033911.508     1152711.805 7    898216.65023        26.500           3.219
  23899460.281    -2338623.697 6  -1822301.95521        13.750           0.563
  23883497.383    -1835055.928 5  -1429912.54721         9.750           0.500
  20584986.313     -417459.072 7   -325292.94422        20.750           1.813
  23970493.117    -2988099.303 5  -2284618.85721         9.750           0.531
 91  6 24 15 48  0.0000000  0  5G18G11G16G19G 2
  21038543.586     1177053.721 7    917184.35523        26.250           3.094
  23891676.875    -2379520.153 6  -1854169.29721        13.750           0.469
  23877668.961    -1865680.481 5  -1453775.81421         9.750           0.500
  20583865.148     -423342.661 7   -329877.56322        21.250           1.594
  23960158.031    -3042421.384 5  -2326947.71621        10.500           0.594
 91  6 24 15 48 15.0000000  0  5G18G11G16G19G 2
  21043195.828     1201505.843 7    936237.93923        26.250           3.188
  23883915.953    -2420318.313 6  -1885960.07721        14.000           0.531
  23871865.313    -1896175.774 5  -1477538.36021         9.750           0.500
  20582760.000     -429156.216 7   -334407.60722        20.500           1.656
  23949829.570    -3096699.820 5  -2369242.54621        11.250           0.563
 91  6 24 15 48 30.0000000  0  5G18G11G16G19G 2
  21047868.633     1226062.539 7    955373.00623        26.000           3.188
  23876165.891    -2461023.600 6  -1917678.46221        13.250           0.531
  23866085.250    -1926547.308 5  -1501204.47721         9.750           0.594
  20581665.258     -434905.220 7   -338887.35222        21.250           1.656
  23939506.672    -3150940.048 5  -2411507.63421        11.250           0.625
 91  6 24 15 48 45.0000000  0  5G18G11G16G19G 2
  21052562.844     1250726.139 7    974591.37423        26.000           3.156
  23868439.859    -2501632.944 6  -1949322.07021        13.250           0.719
  23860331.195    -1956792.034 5  -1524771.78121        10.000           0.469
  20580584.133     -440587.343 7   -343314.98322        20.750           1.594
  23929193.867    -3205139.328 5  -2453740.79921        11.500           0.656
 91  6 24 15 49  0.0000000  0  5G18G11G16G19G 2
  21057276.211     1275494.747 7    993891.56323        26.000           3.156
  23860729.906    -2542147.765 6  -1980892.04021        12.750           0.594
  23854599.953    -1986911.471 5  -1548241.46121        10.250           0.500
  20579514.391     -446204.348 7   -347691.87422        21.250           1.594
  23918885.617    -3259299.321 5  -2495943.36921        10.750           0.594
 91  6 24 15 49 15.0000000  0  5G18G11G16G19G 2
  21062009.172     1300367.452 7   1013272.88223        26.000           3.156
  23853038.070    -2582568.271 6  -2012388.51121        13.250           0.688
  23848891.375    -2016906.292 5  -1571614.03621        10.250           0.531
  20578457.953     -451756.753 7   -352018.42422        20.750           1.500
  23908588.664    -3313420.548 5  -2538115.72221        10.250           0.438
 91  6 24 15 49 30.0000000  0  5G18G11G16G19G 2
  21066762.000     1325348.785 7   1032738.84023        25.750           2.969
  23845364.922    -2622889.683 6  -2043807.76721        13.250           0.750
  23843208.586    -2046771.790 5  -1594885.83321        10.500           0.500
  20577414.023     -457240.304 7   -356291.32522        21.250           1.563
  23898297.273    -3367498.347 5  -2580254.23321        10.500           0.344
 91  6 24 15 49 45.0000000  0  5G18G11G16G19G 2
  21071536.492     1350435.957 7   1052287.26323        25.750           3.094
  23837710.688    -2663114.190 6  -2075151.51221        13.250           0.750
  23837549.453    -2076510.525 5  -1618058.85621        10.750           0.469
  20576386.328     -462657.468 7   -360512.49322        20.750           1.656
  23888014.719    -3421535.086 5  -2622360.75121        11.250           0.438
 91  6 24 15 50  0.0000000  0  5G18G11G16G19G 2
  21076331.180     1375629.158 7   1071918.30923        25.750           3.000
  23830073.305    -2703241.151 6  -2106419.24521        12.750           0.750
  23831915.289    -2106121.810 5  -1641132.56621        10.750           0.500
  20575364.688     -468008.015 7   -364681.75622        21.500           1.563
  23877741.000    -3475530.279 6  -2664434.90421        12.000           0.375
 91  6 24 15 50 15.0000000  0  5G18G11G16G19G 2
  21081145.250     1400926.737 7   1091630.69023        25.500           2.969
  23822458.539    -2743271.763 6  -2137611.91121        13.250           0.719
  23826302.523    -2135607.047 5  -1664108.06221        10.500           0.500
  20574360.469     -473293.466 7   -368800.29222        20.750           1.563
  23867471.867    -3529485.352 6  -2706477.79421        12.250           0.531
 91  6 24 15 50 30.0000000  0  5G18G11G16G19G 2
  21085979.844     1426333.021 7   1111427.77123        25.750           3.000
  23814859.828    -2783201.092 6  -2168725.64421        13.500           0.688
  23820717.258    -2164961.709 5  -1686981.81321        10.750           0.563
  20573367.523     -478509.415 7   -372864.66622        20.750           1.531
  23857213.766    -3583395.605 6  -2748485.74621        12.250           0.563
 91  6 24 15 50 45.0000000  0  5G18G11G16G19G 2
  21090834.281     1451846.176 7   1131308.12723        25.500           3.000
  23807279.719    -2823030.722 6  -2199761.70621        13.750           0.750
  23815155.648    -2194187.215 5  -1709754.91521        10.750           0.500
  20572389.141     -483657.764 7   -376876.36822        20.500           1.594
  23846963.359    -3637262.729 6  -2790460.08921        12.000           0.625
 91  6 24 15 51  0.0000000  0  5G18G11G16G19G 2
  21095709.836     1477467.732 7   1151272.95623        25.750           2.969
  23799720.117    -2862758.408 6  -2230718.31621        14.250           0.563
  23809619.531    -2223281.884 5  -1732426.07221        10.750           0.594
  20571418.664     -488736.818 7   -380834.07421        21.000           1.469
  23836721.031    -3691084.780 5  -2832399.32121        11.500           0.500
 91  6 24 15 51 15.0000000  0  5G18G11G16G19G 2
  21100605.578     1503194.094 7   1171319.46023        26.000           2.875
  23792177.789    -2902387.284 6  -2261597.95621        13.750           0.656
  23804105.914    -2252248.870 5  -1754997.72521        11.000           0.563
  20570468.727     -493750.124 7   -384740.54622        20.500           1.500
  23826486.930    -3744864.968 5  -2874305.92021        11.750           0.469
 91  6 24 15 51 30.0000000  0  5G18G11G16G19G 2
  21105521.258     1529024.425 7   1191446.97323        26.000           2.813
  23784655.586    -2941917.647 6  -2292400.82021        14.000           0.563
  23798620.156    -2281088.512 5  -1777470.16721        11.000           0.563
  20569525.828     -498698.274 7   -388596.24821        21.000           1.469
  23816261.469    -3798603.940 6  -2916180.41821        12.500           0.500
 91  6 24 15 51 45.0000000  0  5G18G11G16G19G 2
  21110457.055     1554960.974 7   1211657.25223        26.250           2.875
  23777152.406    -2981346.750 6  -2323124.78221        14.250           0.594
  23793156.305    -2309798.565 5  -1799841.61121        11.000           0.500
  20568598.719     -503578.798 7   -392399.25222        20.250           1.500
  23806043.039    -3852299.110 6  -2958020.79121        13.000           0.563
 91  6 24 15 52  0.0000000  0  5G18G11G16G19G 2
  21115412.523     1581001.878 7   1231948.85023        26.000           2.813
  23769669.391    -3020675.874 6  -2353770.83321        13.750           0.594
  23787716.852    -2338380.568 5  -1822113.30321        11.000           0.469
  20567679.031     -508393.614 7   -396151.06322        21.000           1.531
  23795832.781    -3905951.963 6  -2999828.18421        13.250           0.688
 91  6 24 15 52 15.0000000  0  5G18G11G16G19G 2
  21120387.469     1607146.564 7   1252321.31223        25.750           2.656
  23762202.391    -3059904.993 6  -2384338.96521        13.750           0.563
  23782301.516    -2366834.569 5  -1844285.22821        11.000           0.313
  20566777.398     -513143.059 7   -399851.93322        20.500           1.625
  23785631.969    -3959562.627 6  -3041602.69521        13.250           0.656
 91  6 24 15 52 30.0000000  0  5G18G11G16G19G 2
  21125383.461     1633400.121 7   1272778.60923        26.000           2.656
  23754757.484    -3099028.483 6  -2414824.78521        13.500           0.594
  23776912.500    -2395155.203 5  -1866353.24021        11.000           0.531
  20565885.531     -517821.863 7   -403497.75122        21.250           1.500
  23775437.703    -4013125.772 6  -3083340.18721        12.250           0.656
 91  6 24 15 52 45.0000000  0  5G18G11G16G19G 2
  21130399.367     1659756.635 7   1293316.13123        26.000           2.688
  23747332.234    -3138051.933 6  -2445232.63621        13.250           0.563
  23771548.844    -2423348.119 5  -1888321.72921        11.250           0.531
  20565009.383     -522435.958 7   -407093.15222        20.750           1.625
  23765252.891    -4066647.211 5  -3125045.15421        11.750           0.656
 91  6 24 15 53  0.0000000  0  5G18G11G16G19G 2
  21135434.336     1686219.887 7   1313936.82923        26.250           2.625
  23739924.859    -3176971.253 6  -2475559.37821        12.500           0.469
  23766209.172    -2451409.173 5  -1910187.47821        11.250           0.500
  20564142.023     -526981.475 7   -410635.12022        21.500           1.531
  23755077.977    -4120122.869 5  -3166714.45521        11.750           0.750
 91  6 24 15 53 15.0000000  0  5G18G11G16G19G 2
  21140489.805     1712786.697 7   1334638.22823        26.250           2.594
  23732541.914    -3215789.214 6  -2505807.10821        13.250           0.656
  23760891.750    -2479341.475 5  -1931952.89021        11.250           0.438
  20563292.602     -531461.769 7   -414126.26022        20.750           1.531
  23744906.914    -4173555.645 5  -3208350.34621        11.750           0.750
 91  6 24 15 53 30.0000000  0  5G18G11G16G19G 2
  21145565.430     1739459.343 7   1355422.09923        26.250           2.688
  23725174.586    -3254502.857 6  -2535973.56321        13.000           0.563
  23755602.758    -2507142.378 5  -1953615.91721        11.250           0.531
  20562454.211     -535874.188 7   -417564.51222        20.250           1.500
  23734749.781    -4226942.848 6  -3249950.73521        12.250           0.656
 91  6 24 15 53 45.0000000  0  5G18G11G16G19G 2
  21150661.156     1766235.241 7   1376286.40323        26.500           2.563
  23717825.047    -3293114.191 6  -2566060.28821        13.250           0.563
  23750335.406    -2534814.079 5  -1975178.26121        10.750           0.531
  20561625.531     -540220.991 7   -420951.63322        20.250           1.563
  23724598.906    -4280286.707 6  -3291517.34621        12.250           0.531
 91  6 24 15 54  0.0000000  0  5G18G11G16G19G 2
  21155776.367     1793114.161 7   1397231.00023        26.750           2.656
  23710496.570    -3331622.831 6  -2596067.00921        13.250           0.594
  23745095.547    -2562356.494 5  -1996639.85421        10.500           0.469
  20560809.234     -544502.307 7   -424287.72721        20.500           1.469
  23714457.531    -4333587.019 6  -3333050.04521        12.250           0.719
 91  6 24 15 54 15.0000000  0  5G18G11G16G19G 2
  21160910.734     1820097.413 7   1418256.90523        26.750           2.625
  23703188.266    -3370027.019 6  -2625992.32421        13.500           0.625
  23739880.078    -2589767.890 5  -2017999.35821        10.500           0.563
  20560009.023     -548716.788 7   -427571.74222        20.250           1.531
  23704321.078    -4386842.243 5  -3374547.59421        11.250           0.625
 91  6 24 15 54 30.0000000  0  5G18G11G16G19G 2
  21166064.867     1847185.265 7   1439364.30023        26.750           2.688
  23695900.109    -3408326.053 6  -2655835.70621        13.500           0.625
  23734688.508    -2617047.909 5  -2039256.48721        10.750           0.656
  20559217.398     -552864.159 7   -430803.46022        21.250           1.531
  23694196.102    -4440051.868 5  -3416009.60121        11.250           0.781
 91  6 24 15 54 45.0000000  0  5G18G11G16G19G 2
  21171240.078     1874378.081 7   1460553.48223        26.750           2.688
  23688632.617    -3446519.157 6  -2685596.54121        14.000           0.563
  23729520.859    -2644195.667 5  -2060410.56921        10.250           0.563
  20558443.648     -556943.972 7   -433982.54021        20.250           1.469
  23684079.961    -4493215.193 5  -3457435.53121        11.500           0.688
 91  6 24 15 55  0.0000000  0  5G18G11G16G19G 2
  21176433.930     1901674.191 7   1481823.15923        26.250           2.719
  23681385.547    -3484607.161 6  -2715275.49121        14.250           0.531
  23724380.641    -2671212.410 5  -2081462.56121        10.500           0.406
  20557678.086     -560957.417 7   -437109.90521        21.000           1.438
  23673972.328    -4546333.387 5  -3498826.29021        11.750           0.688
 91  6 24 15 55 15.0000000  0  5G18G11G16G19G 2
  21181647.469     1929071.339 7   1503171.57023        26.000           2.656
  23674157.211    -3522592.132 6  -2744874.15021        14.000           0.719
  23719264.266    -2698100.520 5  -2102414.30321        10.500           0.500
  20556928.195     -564906.939 7   -440187.45621        20.500           1.469
  23663871.523    -4599408.700 6  -3540183.65121        12.250           0.656
 91  6 24 15 55 30.0000000  0  5G18G11G16G19G 2
  21186881.852     1956574.801 7   1524602.81723        26.000           2.719
  23666950.539    -3560468.056 6  -2774387.83521        14.000           0.656
  23714172.914    -2724854.091 5  -2123261.22521        10.500           0.469
  20556186.148     -568786.899 7   -443210.80322        21.250           1.594
  23653781.148    -4652435.129 6  -3581502.92421        12.250           0.625
 91  6 24 15 55 45.0000000  0  5G18G11G16G19G 2
  21192134.320     1984177.664 7   1546111.52723        25.750           2.813
  23659760.641    -3598241.534 6  -2803821.70121        14.000           0.688
  23709106.609    -2751479.768 5  -2144008.48821        10.750           0.438
  20555462.820     -572604.240 7   -446185.35722        20.500           1.531
  23643697.852    -4705419.468 5  -3622789.39521        11.500           0.594
 91  6 24 15 56  0.0000000  0  5G18G11G16G19G 2
  21197406.500     2011883.929 7   1567700.80323        25.250           2.875
  23652593.992    -3635908.191 6  -2833172.31621        14.500           0.625
  23704066.250    -2777973.495 5  -2164652.93421        10.750           0.406
  20554745.711     -576354.979 7   -449108.01322        21.250           1.563
  23633624.289    -4758357.684 5  -3664039.92221        11.500           0.656
 91  6 24 15 56 15.0000000  0  5G18G11G16G19G 2
  21202698.547     2039693.656 7   1589370.69723        25.000           2.813
  23645446.320    -3673467.592 6  -2862439.37021        14.250           0.719
  23699048.133    -2804335.061 5  -2185194.39821        11.000           0.469
  20554048.180     -580038.966 7   -451978.65321        20.500           1.438
  23623558.609    -4811249.323 6  -3705254.16421        12.000           0.625
 91  6 24 15 56 30.0000000  0  5G18G11G16G19G 2
  21208009.625     2067601.808 7   1611117.28923        25.000           2.750
  23638317.680    -3710923.623 6  -2891625.86721        14.250           0.719
  23694055.625    -2830568.379 5  -2205635.94021        10.750           0.406
  20553361.234     -583660.484 7   -454800.61422        20.000           1.500
  23613502.555    -4864098.825 6  -3746435.55721        12.500           0.719
 91  6 24 15 56 45.0000000  0  5G18G11G16G19G 2
  21213339.039     2095613.070 7   1632944.23123        25.000           2.781
  23631211.484    -3748271.611 6  -2920728.18721        14.250           0.688
  23689089.906    -2856669.032 5  -2225974.07721        10.750           0.469
  20552682.875     -587215.386 7   -457570.67022        20.250           1.531
  23603454.320    -4916901.472 6  -3787580.44121        13.500           0.688
 91  6 24 15 57  0.0000000  0  5G18G11G16G19G 2
  21218689.055     2123724.398 7   1654849.14523        24.500           2.875
  23624125.195    -3785513.928 6  -2949748.16321        14.750           0.719
  23684147.781    -2882639.792 5  -2246211.02721        10.750           0.500
  20552016.273     -590706.274 7   -460290.84421        21.250           1.375
  23593415.766    -4969659.726 6  -3828690.75021        14.000           0.625
 91  6 24 15 57 15.0000000  0  5G18G11G16G19G 2
  21224058.008     2151937.758 7   1676833.56323        24.750           2.813
  23617060.930    -3822648.261 6  -2978683.98021        16.000           0.750
  23679229.750    -2908478.598 5  -2266345.14321        10.250           0.500
  20551366.484     -594131.297 7   -462959.69421        20.250           1.469
  23583385.008    -5022371.604 6  -3869764.91721        13.500           0.625
 91  6 24 15 57 30.0000000  0  5G18G11G16G19G 2
  21229446.000     2180249.204 7   1698894.40523        24.750           2.844
  23610012.156    -3859677.863 6  -3007538.21821        15.000           0.750
  23674337.680    -2934188.800 5  -2286379.05321        10.250           0.438
  20550724.008     -597493.971 7   -465579.96322        21.250           1.500
  23573362.945    -5075040.319 6  -3910805.44321        13.250           0.688
 91  6 24 15 57 45.0000000  0  5G18G11G16G19G 2
  21234852.211     2208660.623 7   1721033.14423        24.750           2.781
  23602986.469    -3896600.272 6  -3036308.91821        15.500           0.875
  23669470.211    -2959767.905 5  -2306310.79321        10.250           0.500
  20550099.695     -600792.219 7   -468150.02922        20.500           1.531
  23563348.734    -5127663.825 6  -3951810.74421        13.250           0.563
 91  6 24 15 58  0.0000000  0  5G18G11G16G19G 2
  21240277.828     2237171.539 7   1743249.41823        24.750           2.875
  23595980.352    -3933415.535 6  -3064996.12521        15.500           0.813
  23664627.477    -2985216.423 5  -2326140.79921        10.750           0.500
  20549483.398     -604026.510 7   -470670.26321        20.500           1.438
  23553343.289    -5180242.371 6  -3992781.01621        13.500           0.500
 91  6 24 15 58 15.0000000  0  5G18G11G16G19G 2
  21245721.688     2265782.001 7   1765543.27123        24.500           2.844
  23588995.828    -3970123.016 6  -3093599.34621        15.250           0.750
  23659809.914    -3010533.933 5  -2345868.71521        10.750           0.438
  20548880.953     -607196.610 7   -473140.46822        20.500           1.500
  23543347.141    -5232775.527 6  -4033715.91221        14.000           0.625
 91  6 24 15 58 30.0000000  0  6G18G11G 6G16G19G 2
  21251185.328     2294490.773 7   1787913.72523        24.750           2.844
  23582030.234    -4006723.764 6  -3122119.38721        15.750           0.813
  24488640.930      -44907.989 4                         6.500
  23655017.063    -3035721.516 5  -2365495.38021        10.500           0.406
  20548287.797     -610303.893 7   -475561.73222        20.750           1.500
  23533358.961    -5285264.529 6  -4074616.40821        14.250           0.656
 91  6 24 15 58 45.0000000  0  6G18G11G 6G16G19G 2
  21256667.641     2323301.256 7   1810363.42223        25.000           2.750
  23575087.023    -4043213.762 6  -3150553.13521        15.000           0.750
  24480099.109      -89791.863 4                         6.250
  23650250.148    -3060775.466 5  -2385017.93521        10.750           0.438
  20547711.555     -613344.706 7   -477931.20022        20.250           1.500
  23523379.961    -5337705.443 6  -4115479.42821        14.250           0.688
 91  6 24 15 59  0.0000000  0  6G18G11G 6G16G19G 2
  21262168.813     2352210.742 7   1832890.28023        24.750           2.938
  23568164.648    -4079595.271 6  -3178902.34821        15.250           0.688
  24471563.219     -134655.838 4                         6.250
  23645507.031    -3085698.150 5  -2404438.19121        11.000           0.438
  20547142.109     -616321.698 7   -480250.93722        21.000           1.563
  23513408.891    -5390100.677 6  -4156306.85121        13.500           0.625
 91  6 24 15 59 15.0000000  0  5G18G11G16G19G 2
  21267688.273     2381216.209 7   1855491.91723        25.000           2.844
  23561257.094    -4115870.827 6  -3207168.99621        14.000           0.813
  23640788.398    -3110492.413 5  -2423758.38821        11.000           0.406
  20546589.758     -619237.688 7   -482523.14322        20.500           1.500
  23503447.227    -5442452.937 6  -4197100.79221        13.750           0.719
 91  6 24 15 59 30.0000000  0  5G18G11G16G19G 2
  21273227.367     2410321.782 7   1878171.56623        25.000           2.844
  23554379.719    -4152035.815 6  -3235349.49121        14.750           0.594
  23636096.672    -3135153.795 5  -2442975.03621        11.000           0.406
  20546044.047     -622088.570 7   -484744.61022        21.000           1.500
  23493493.469    -5494758.049 6  -4237857.97921        13.500           0.750
 91  6 24 15 59 45.0000000  0  5G18G11G16G19G 2
  21278784.523     2439525.450 7   1900927.65423        25.000           2.813
  23547517.109    -4188091.761 6  -3263444.99921        14.000           0.781
  23631428.016    -3159683.763 5  -2462089.28721        11.250           0.438
  20545516.563     -624876.015 7   -486916.64821        20.750           1.406
  23483548.734    -5547017.476 6  -4278579.58421        14.000           0.656
 91  6 24 16  0  0.0000000  0  5G18G11G16G19G 2
  21284359.898     2468827.161 7   1923760.13123        25.000           2.781
  23540677.539    -4224037.759 6  -3291454.85421        14.250           0.625
  23626785.586    -3184081.641 5  -2481100.60521        11.000           0.406
  20544996.531     -627599.715 7   -489039.00921        21.000           1.406
  23473613.070    -5599230.538 6  -4319265.06021        14.000           0.688
 91  6 24 16  0 15.0000000  0  5G18G11G16G19G 2
  21289954.273     2498225.298 7   1946667.74423        25.000           2.750
  23533856.352    -4259875.092 6  -3319380.02721        14.000           0.750
  23622166.875    -3208349.552 5  -2500010.66521        10.750           0.375
  20544488.672     -630261.297 7   -491112.97521        21.500           1.344
  23463685.750    -5651398.606 6  -4359915.49121        13.750           0.750
 91  6 24 16  0 30.0000000  0  5G18G11G16G19G 2
  21295566.586     2527720.055 7   1969650.64123        25.000           2.750
  23527058.016    -4295603.466 6  -3347220.30221        14.750           0.656
  23617574.125    -3232487.159 5  -2518819.17121        11.000           0.406
  20543995.406     -632860.756 7   -493138.53121        21.250           1.438
  23453766.492    -5703521.581 6  -4400530.75721        13.000           0.844
 91  6 24 16  0 45.0000000  0  5G18G11G16G19G 2
  21301198.555     2557313.105 7   1992710.14223        25.250           2.719
  23520280.352    -4331220.435 6  -3374973.76421        14.750           0.656
  23613005.555    -3256492.013 5  -2537524.25521        11.000           0.469
  20543511.555     -635396.021 7   -495114.06722        21.500           1.500
  23443855.484    -5755597.223 6  -4441109.14021        12.250           0.750
 91  6 24 16  1  0.0000000  0  5G18G11G16G19G 2
  21306847.609     2587001.020 7   2015843.56623        25.000           2.688
  23513521.883    -4366728.717 6  -3402642.51521        15.000           0.719
  23608462.273    -3280367.150 5  -2556128.24621        11.000           0.469
  20543042.805     -637870.157 7   -497041.96522        21.000           1.594
  23433954.102    -5807628.315 6  -4481652.80821        12.500           0.906
 91  6 24 16  1 15.0000000  0  5G18G11G16G19G 2
  21312516.859     2616788.640 7   2039054.67423        25.000           2.656
  23506786.781    -4402123.384 6  -3430222.75421        15.250           0.813
  23603944.617    -3304107.599 5  -2574627.27721        11.000           0.469
  20542581.602     -640278.520 7   -498918.61622        21.250           1.563
  23424064.789    -5859610.112 6  -4522158.06621        12.750           0.813
 91  6 24 16  1 30.0000000  0  5G18G11G16G19G 2
  21318203.008     2646672.352 7   2062340.65923        25.000           2.625
  23500070.641    -4437407.437 6  -3457716.79721        15.000           0.844
  23599452.773    -3327716.892 5  -2593024.12121        11.000           0.438
  20542137.813     -642624.331 7   -500746.52821        21.000           1.469
  23414180.266    -5911545.756 6  -4562627.36821        13.000           0.875
 91  6 24 16  1 45.0000000  0  5G18G11G16G19G 2
  21323908.719     2676652.840 7   2085702.06123        25.000           2.563
  23493380.594    -4472579.545 6  -3485123.61421        15.250           0.781
  23594984.719    -3351193.539 5  -2611317.59521        11.000           0.469
  20541701.281     -644906.767 7   -502525.04922        21.500           1.500
  23404305.797    -5963434.221 6  -4603059.90721        13.000           0.844
 91  6 24 16  2  0.0000000  0  5G18G11G16G19G 2
  21329632.539     2706731.129 7   2109139.67523        25.250           2.500
  23486707.891    -4507638.371 6  -3512442.15621        15.250           0.750
  23590542.859    -3374536.625 5  -2629507.00121        11.250           0.531
  20541280.766     -647124.657 7   -504253.27521        20.750           1.469
  23394439.477    -6015274.300 6  -4643454.75121        12.750           0.813
 91  6 24 16  2 15.0000000  0  5G18G11G16G19G 2
  21335374.578     2736908.593 7   2132654.56423        25.250           2.531
  23480058.164    -4542581.882 6  -3539670.83321        15.000           0.750
  23586125.875    -3397744.132 5  -2647590.76921        11.250           0.469
  20540869.273     -649276.512 7   -505930.05022        21.250           1.531
  23384584.023    -6067064.323 6  -4683810.58221        12.250           0.875
 91  6 24 16  2 30.0000000  0  5G18G11G16G19G 2
  21341135.492     2767181.512 7   2156243.83322        25.250           2.406
  23473429.211    -4577413.302 6  -3566812.17521        14.500           0.781
  23581735.336    -3420819.696 5  -2665571.71021        11.250           0.469
  20540473.852     -651366.134 7   -507558.33122        21.000           1.594
  23374738.266    -6118807.711 6  -4724130.06021        12.500           0.875
 91  6 24 16  2 45.0000000  0  5G18G11G16G19G 2
  21346914.578     2797550.204 7   2179907.72222        25.250           2.344
  23466823.680    -4612131.815 6  -3593865.54021        14.500           0.875
  23577368.930    -3443763.034 5  -2683449.62821        11.250           0.500
  20540086.922     -653392.808 7   -509137.55722        21.250           1.500
  23364901.813    -6170503.706 6  -4764412.61321        13.500           0.875
 91  6 24 16  3  0.0000000  0  5G18G11G16G19G 2
  21352712.164     2828015.020 7   2203646.51522        25.500           2.375
  23460238.180    -4646736.540 6  -3620830.22121        14.250           0.906
  23573028.469    -3466573.260 5  -2701223.81721        11.000           0.438
  20539716.078     -655356.104 7   -510667.40322        20.500           1.563
  23355072.961    -6222151.531 6  -4804657.63421        14.000           0.906
 91  6 24 16  3 15.0000000  0  5G18G11G16G19G 2
  21358526.969     2858576.997 7   2227461.02022        25.250           2.313
  23453675.352    -4681226.039 6  -3647705.11521        14.250           0.875
  23568712.844    -3489249.053 5  -2718893.25321        11.250           0.438
  20539351.641     -657254.974 7   -512147.04122        21.250           1.531
  23345254.406    -6273750.088 6  -4844864.26421        13.750           0.844
 91  6 24 16  3 30.0000000  0  5G18G11G16G19G 2
  21364361.328     2889233.452 7   2251349.14322        25.250           2.344
  23447132.977    -4715602.368 6  -3674491.83221        13.750           0.906
  23564423.766    -3511792.647 5  -2736459.67721        11.000           0.563
  20539002.781     -659091.670 7   -513578.24322        21.000           1.594
  23335444.555    -6325301.438 6  -4885034.12421        13.750           0.688
 91  6 24 16  3 45.0000000  0  5G18G11G16G19G 2
  21370213.094     2919986.713 7   2275312.70322        25.000           2.313
  23440614.398    -4749862.816 6  -3701188.25921        14.000           0.938
  23560159.266    -3534201.664 5  -2753921.23721        11.500           0.438
  20538665.398     -660863.800 7   -514959.12622        21.250           1.531
  23325644.531    -6376803.033 6  -4925165.19321        13.750           0.781
 91  6 24 16  4  0.0000000  0  5G18G11G16G19G 2
  21376083.688     2950836.185 7   2299351.24322        24.750           2.313
  23434117.922    -4784007.657 6  -3727794.59721        14.000           0.813
  23555920.078    -3556476.435 5  -2771278.19121        11.250           0.469
  20538340.781     -662571.841 7   -516290.06822        21.000           1.500
  23315853.906    -6428255.327 6  -4965257.85421        14.250           0.781
 91  6 24 16  4 15.0000000  0  5G18G11G16G19G 2
  21381973.195     2981785.232 7   2323467.36122        24.750           2.375
  23427641.070    -4818032.911 6  -3754307.75721        14.000           0.906
  23551709.344    -3578613.196 5  -2788527.62221        11.250           0.438
  20538027.305     -664212.334 7   -517568.37522        21.500           1.625
  23306072.273    -6479654.529 6  -5005309.14821        14.750           0.781
 91  6 24 16  4 30.0000000  0  5G18G11G16G19G 2
  21387880.500     3012828.447 7   2347656.85522        24.500           2.344
  23421187.789    -4851943.482 6  -3780731.55021        14.000           0.875
  23547520.977    -3600617.256 5  -2805673.62421        11.750           0.531
  20537728.719     -665790.538 7   -518798.15022        21.250           1.563
  23296301.219    -6531005.747 6  -5045323.04021        15.250           0.906
 91  6 24 16  4 45.0000000  0  5G18G11G16G19G 2
  21393807.445     3043968.415 7   2371921.74622        24.250           2.250
  23414759.391    -4885736.013 6  -3807063.37121        14.500           0.875
  23543359.781    -3622485.272 5  -2822713.63421        11.500           0.500
  20537439.617     -667303.429 7   -519977.02622        21.750           1.656
  23286540.328    -6582305.686 6  -5085296.97621        15.250           0.844
 91  6 24 16  5  0.0000000  0  5G18G11G16G19G 2
  21399749.242     3075197.601 7   2396256.15422        23.750           2.344
  23408351.781    -4919417.713 6  -3833308.82521        15.250           0.781
  23539222.727    -3644224.801 5  -2839653.52121        11.750           0.469
  20537163.422     -668758.557 7   -521110.89522        21.000           1.531
  23276786.211    -6633561.795 6  -5125236.75821        14.750           0.875
 91  6 24 16  5 15.0000000  0  5G18G11G16G19G 2
  21405709.992     3106523.062 7   2420665.57822        23.500           2.438
  23401962.219    -4952981.122 6  -3859462.10521        14.750           0.844
  23535112.125    -3665828.519 5  -2856487.57321        11.500           0.531
  20536898.422     -670148.728 7   -522194.14622        21.750           1.594
  23267041.172    -6684766.644 6  -5165136.59621        14.750           0.906
 91  6 24 16  5 30.0000000  0  5G18G11G16G19G 2
  21411688.516     3137942.755 7   2445148.45022        23.500           2.438
  23395596.883    -4986427.998 6  -3885524.58921        15.250           0.875
  23531024.570    -3687298.512 5  -2873217.41621        11.500           0.625
  20536646.578     -671476.196 7   -523228.53722        21.500           1.625
  23257307.273    -6735922.276 6  -5204998.08221        15.250           0.719
 91  6 24 16  5 45.0000000  0  5G18G11G16G19G 2
  21417685.953     3169456.566 7   2469704.65522        23.250           2.250
  23389255.102    -5019757.810 6  -3911495.83521        15.250           0.844
  23526965.477    -3708634.022 5  -2889842.47321        11.500           0.594
  20536404.664     -672740.692 7   -524213.85922        21.750           1.500
  23247582.188    -6787028.215 6  -5244820.85621        15.500           0.781
 91  6 24 16  6  0.0000000  0  5G18G11G16G19G 2
  21423700.656     3201065.548 7   2494334.99622        23.500           2.469
  23382934.578    -5052968.636 6  -3937374.37421        15.000           1.031
  23522931.484    -3729833.722 5  -2906361.71521        11.750           0.563
  20536180.727     -673940.604 7   -525148.85522        20.500           1.625
  23237865.758    -6838082.683 6  -5284603.52521        15.250           0.750
 91  6 24 16  6 15.0000000  0  5G18G11G16G19G 2
  21429733.359     3232767.035 7   2519037.42922        23.750           2.313
  23376637.758    -5086063.000 6  -3963162.15621        15.250           0.875
  23518924.539    -3750900.506 5  -2922777.39021        11.250           0.500
  20535960.289     -675078.757 7   -526035.73122        21.750           1.531
  23228158.094    -6889088.328 6  -5324348.14221        14.750           0.906
 91  6 24 16  6 30.0000000  0  5G18G11G16G19G 2
  21435784.438     3264563.073 7   2543813.54222        23.750           2.406
  23370362.422    -5119038.362 6  -3988857.22121        15.000           0.906
  23514938.867    -3771831.655 5  -2939087.35021        11.500           0.500
  20535757.656     -676152.829 7   -526872.67122        21.000           1.656
  23218464.117    -6940042.936 6  -5364052.98221        14.750           0.781
 91  6 24 16  6 45.0000000  0  5G18G11G16G19G 2
  21441853.078     3296457.027 7   2568665.95722        23.750           2.406
  23364110.352    -5151890.986 6  -4014456.65721        15.500           0.875
  23510983.477    -3792623.819 5  -2955289.01921        11.500           0.625
  20535564.461     -677159.492 7   -527657.08522        21.750           1.625
  23208777.453    -6990942.943 6  -5403715.27621        14.500           0.844
 91  6 24 16  7  0.0000000  0  5G18G11G16G19G 2
  21447940.094     3328442.060 7   2593589.34123        24.000           2.563
  23357881.750    -5184626.965 6  -4039965.18221        15.000           0.906
  23507050.516    -3813283.346 5  -2971387.34221        11.250           0.531
  20535384.695     -678105.252 7   -528394.04022        21.500           1.688
  23199099.453    -7041794.532 6  -5443339.84821        14.750           0.844
 91  6 24 16  7 15.0000000  0  5G18G11G16G19G 2
  21454045.008     3360522.378 7   2618586.96022        23.750           2.469
  23351675.867    -5217241.832 6  -4065379.33321        15.750           0.844
  23503146.148    -3833805.891 5  -2987378.92221        11.500           0.625
  20535216.508     -678985.860 7   -529080.23122        21.500           1.625
  23189434.453    -7092593.331 6  -5482923.29321        14.750           0.813
 91  6 24 16  7 30.0000000  0  5G18G11G16G19G 2
  21460167.070     3392695.054 7   2643656.56322        24.000           2.438
  23345490.172    -5249737.850 6  -4090700.88021        15.500           0.875
  23499265.164    -3854193.695 5  -3003265.51721        11.500           0.594
  20535061.898     -679803.895 7   -529717.66422        21.250           1.594
  23179776.844    -7143341.967 6  -5522467.65221        14.750           0.813
 91  6 24 16  7 45.0000000  0  5G18G11G16G19G 2
  21466306.992     3424963.239 7   2668800.57822        23.750           2.438
  23339330.344    -5282111.308 6  -4115926.94621        16.000           0.781
  23495413.125    -3874443.577 5  -3019044.62721        11.500           0.563
  20534917.781     -680556.008 7   -530303.72422        21.500           1.563
  23170129.234    -7194036.851 6  -5561970.11621        14.000           0.938
 91  6 24 16  8  0.0000000  0  5G18G11G16G19G 2
  21472465.617     3457324.912 7   2694017.44222        23.500           2.344
  23333193.023    -5314363.737 6  -4141058.68221        15.750           0.938
  23491585.875    -3894557.412 5  -3034717.74421        11.750           0.594
  20534786.375     -681244.112 7   -530839.91122        21.500           1.594
  23160492.781    -7244679.565 6  -5601431.92321        14.250           0.875
 91  6 24 16  8 15.0000000  0  5G18G11G16G19G 2
  21478641.898     3489778.165 7   2719305.66823        23.750           2.500
  23327078.344    -5346496.732 6  -4166097.36221        16.000           0.906
  23487784.719    -3914536.742 5  -3050286.03221        11.750           0.594
  20534667.570     -681870.093 7   -531327.69322        21.500           1.656
  23150864.805    -7295271.752 6  -5640854.36721        14.000           0.969
 91  6 24 16  8 30.0000000  0  5G18G11G16G19G 2
  21484834.648     3522325.506 7   2744667.21922        23.750           2.469
  23320986.602    -5378507.116 6  -4191040.50621        15.750           0.844
  23484008.930    -3934378.651 5  -3065747.24821        11.750           0.656
  20534561.633     -682431.212 7   -531764.92522        21.250           1.594
  23141248.539    -7345810.500 6  -5680235.16221        14.500           0.969
 91  6 24 16  8 45.0000000  0  5G18G11G16G19G 2
  21491046.219     3554966.958 7   2770102.09222        23.500           2.406
  23314920.180    -5410394.565 6  -4215887.84121        16.250           0.875
  23480258.820    -3954082.929 5  -3081101.23021        11.500           0.625
  20534465.680     -682927.416 7   -532151.58022        21.250           1.563
  23131640.828    -7396295.704 6  -5719574.24621        14.750           0.938
 91  6 24 16  9  0.0000000  0  5G18G11G16G19G 2
  21497274.828     3587698.696 7   2795607.32922        23.750           2.375
  23308876.836    -5442162.433 6  -4240642.01721        16.750           0.938
  23476533.016    -3973653.453 5  -3096350.96621        11.250           0.688
  20534388.766     -683362.250 7   -532490.41322        20.000           1.563
  23122043.266    -7446730.796 6  -5758874.27521        14.750           0.875
 91  6 24 16  9 15.0000000  0  5G18G11G16G19G 2
  21503521.516     3620524.138 7   2821185.57922        23.750           2.281
  23302852.750    -5473806.472 6  -4265299.69921        16.500           1.031
  23472835.977    -3993086.411 5  -3111493.51321        11.250           0.563
  20534313.711     -683731.951 7   -532778.49422        21.500           1.594
  23112455.391    -7497111.781 6  -5798132.15421        14.500           0.844
 91  6 24 16  9 30.0000000  0  5G18G11G16G19G 2
  21509785.789     3653443.350 7   2846836.89122        23.500           2.281
  23296853.867    -5505326.283 6  -4289860.58021        16.000           0.813
  23469163.313    -4012381.378 5  -3126528.54821        11.250           0.625
  20534256.539     -684036.292 7   -533015.64122        21.500           1.563
  23102880.078    -7547438.274 6  -5837347.56221        14.750           0.906
 91  6 24 16  9 45.0000000  0  5G18G11G16G19G 2
  21516067.539     3686453.879 7   2872559.36322        23.250           2.250
  23290880.430    -5536723.751 6  -4314326.12121        16.000           0.813
  23465519.641    -4031540.357 5  -3141457.61021        11.250           0.625
  20534210.242     -684277.532 7   -533203.62022        21.250           1.563
  23093312.422    -7597712.396 6  -5876522.15221        15.250           0.906
 91  6 24 16 10  0.0000000  0  5G18G11G16G19G 2
  21522366.742     3719556.456 7   2898353.56422        23.250           2.250
  23284926.930    -5567997.822 6  -4338695.51821        15.500           0.969
  23461897.008    -4050562.605 5  -3156280.12421        11.000           0.656
  20534177.031     -684454.974 7   -533341.88822        21.500           1.531
  23083755.688    -7647933.414 6  -5915655.37721        15.500           0.969
 91  6 24 16 10 15.0000000  0  5G18G11G16G19G 2
  21528683.695     3752752.142 7   2924220.31122        23.500           2.250
  23279003.172    -5599146.818 6  -4362967.44021        15.750           0.906
  23458305.180    -4069446.591 5  -3170994.89921        11.250           0.625
  20534155.367     -684567.240 7                        21.250
  23074208.625    -7698099.698 6  -5954745.94021        15.500           1.031
 91  6 24 16 10 30.0000000  0  5G18G11G16G19G 2
  21535017.523     3786037.940 7   2950157.27522        23.250           2.250
  23273096.648    -5630173.480 6  -4387144.04721        15.000           0.938
  23454736.094    -4088195.149 5  -3185604.17121        11.000           0.563
  20534147.320     -684617.395 7                        20.500
  23064673.086    -7748214.108 6  -5993796.09621        15.500           1.063
 91  6 24 16 10 45.0000000  0  5G18G11G16G19G 2
  21541369.289     3819413.514 7   2976164.20422        23.250           2.250
  23267215.422    -5661077.377 6  -4411224.99821        15.250           0.969
  23451195.742    -4106808.240 5  -3200107.87021        11.500           0.594
  20534146.258     -684605.248 7                        21.250
  23055146.344    -7798276.366 6  -6032805.61021        15.500           1.000
 91  6 24 16 11  0.0000000  0  5G18G11G16G19G 2
  21547737.484     3852882.081 7   3002243.58522        23.250           2.219
  23261359.273    -5691854.945 6  -4435207.50321        15.250           1.000
  23447680.094    -4125282.459 5  -3214503.36221        11.750           0.531
  20534163.563     -684527.465 7                        21.000
  23045629.914    -7848282.947 6  -6071771.73421        15.500           0.938
 91  6 24 16 11 15.0000000  0  5G18G11G16G19G 2
  21554124.336     3886439.665 7   3028392.33022        23.250           2.219
  23255527.680    -5722509.714 6  -4459094.32121        15.500           0.969
  23444190.742    -4143621.468 6  -3228793.49821        12.000           0.625
  20534187.992     -684387.848 7                        21.000
  23036124.234    -7898237.449 6  -6110697.27721        15.750           1.063
 91  6 24 16 11 30.0000000  0  5G18G11G16G19G 2
  21560527.047     3920088.708 7   3054612.34422        23.000           2.156
  23249717.406    -5753038.544 6  -4482883.00021        15.750           1.063
  23440728.086    -4161822.502 6  -3242976.11321        12.000           0.563
  20534228.273     -684183.719 7                        20.750
  23026629.305    -7948137.034 6  -6149580.02821        16.000           1.125
 91  6 24 16 11 45.0000000  0  5G18G11G16G19G 2
  21566947.750     3953833.043 7   3080906.60922        23.250           2.125
  23243929.703    -5783437.427 6  -4506570.43321        15.250           1.063
  23437290.219    -4179881.565 6  -3257048.10621        12.000           0.469
  20534279.578     -683911.257 7   -532918.22622        21.250           1.625
  23017144.922    -7997977.765 6  -6188416.92121        15.750           1.094
 91  6 24 16 12  0.0000000  0  5G18G11G16G19G 2
  21573386.438     3987666.555 7   3107270.36622        22.750           2.219
  23238170.477    -5813711.844 6  -4530160.87321        15.750           1.031
  23433878.969    -4197804.479 6  -3271014.00621        12.250           0.500
  20534345.477     -683576.422 7   -532657.31522        20.750           1.594
  23007670.453    -8047765.305 6  -6227212.36221        15.750           1.000
 91  6 24 16 12 15.0000000  0  5G18G11G16G19G 2
  21579842.031     4021591.446 7   3133705.33422        22.500           2.188
  23232434.922    -5843859.259 6  -4553652.34421        16.000           1.000
  23430495.375    -4215588.873 6  -3284871.96721        12.250           0.625
  20534419.984     -683176.930 7   -532346.02322        21.000           1.531
  22998206.055    -8097497.295 6  -6265964.51721        15.500           1.063
 91  6 24 16 12 30.0000000  0  5G18G11G16G19G 2
  21586314.484     4055605.706 7   3160209.93322        22.500           2.156
  23226721.781    -5873880.943 6  -4577045.85221        16.500           1.031
  23427137.391    -4233236.454 6  -3298623.32721        12.250           0.625
  20534507.719     -682714.357 7   -531985.58222        20.500           1.594
  22988753.305    -8147175.169 6  -6304674.51421        15.500           1.000
 91  6 24 16 12 45.0000000  0  5G18G11G16G19G 2
  21592805.359     4089711.382 7   3186785.77522        22.500           2.063
  23221032.984    -5903774.525 6  -4600339.54321        16.250           1.094
  23423805.898    -4250745.002 6  -3312266.34121        12.000           0.563
  20534606.547     -682186.554 7   -531574.30922        21.000           1.563
  22979309.781    -8196796.693 6  -6343340.58621        15.750           0.969
 91  6 24 16 13  0.0000000  0  5G18G11G16G19G 2
  21599311.625     4123908.594 7   3213432.94222        22.500           2.125
  23215368.063    -5933539.468 6  -4623532.98821        16.500           1.000
  23420498.422    -4268114.152 5  -3325800.73721        11.750           0.594
  20534721.078     -681593.257 7   -531112.00222        20.500           1.594
  22969879.016    -8246361.323 6  -6381962.33821        15.750           1.000
 91  6 24 16 13 15.0000000  0  5G18G11G16G19G 2
  21605837.969     4158198.510 7   3240152.34022        22.500           2.156
  23209730.289    -5963173.933 6  -4646624.77021        16.750           1.125
  23417222.008    -4285342.097 5  -3339225.10321        11.750           0.625
  20534845.914     -680932.853 7   -530597.40322        20.750           1.563
  22960458.500    -8295867.311 6  -6420538.38921        15.750           1.063
 91  6 24 16 13 30.0000000  0  5G18G11G16G19G 2
  21612379.695     4192575.515 7   3266939.60222        22.750           2.156
  23204111.672    -5992683.053 6  -4669618.88021        16.000           0.969
  23413969.969    -4302434.491 5  -3352543.83821        11.500           0.531
  20534984.484     -680210.963 7   -530034.89022        20.250           1.563
  22951048.063    -8345320.056 6  -6459072.94521        16.000           1.031
 91  6 24 16 13 45.0000000  0  5G18G11G16G19G 2
  21618938.906     4227043.165 7   3293797.49722        22.750           2.031
  23198524.789    -6022062.958 6  -4692512.29321        16.500           1.031
  23410741.625    -4319387.603 5  -3365754.04321        11.500           0.594
  20535132.664     -679423.867 7   -529421.56721        21.000           1.438
  22941646.805    -8394715.891 6  -6497563.16921        15.750           0.969
 91  6 24 16 14  0.0000000  0  5G18G11G16G19G 2
  21625514.773     4261597.259 7   3320722.75222        23.000           2.094
  23192953.383    -6051317.437 6  -4715307.97021        15.500           0.938
  23407543.227    -4336205.418 5  -3378858.82621        11.750           0.531
  20535295.977     -678575.609 7   -528760.59422        20.500           1.594
  22932257.234    -8444058.735 6  -6536012.09121        16.250           1.000
 91  6 24 16 14 15.0000000  0  5G18G11G16G19G 2
  21632106.008     4296239.477 7   3347716.66722        22.750           2.031
  23187413.102    -6080444.220 6  -4738004.16421        15.750           0.938
  23404370.391    -4352886.017 5  -3391856.68121        11.750           0.594
  20535467.789     -677664.265 7   -528050.45922        21.000           1.594
  22922878.828    -8493346.439 6  -6574418.05721        16.000           0.938
 91  6 24 16 14 30.0000000  0  5G18G11G16G19G 2
  21638716.438     4330974.917 7   3374783.21722        22.750           1.969
  23181894.367    -6109437.623 6  -4760596.41421        15.250           0.906
  23401221.523    -4369423.657 5  -3404743.15721        11.750           0.531
  20535655.727     -676684.734 7   -527287.19322        20.750           1.500
  22913510.281    -8542573.479 6  -6612776.74421        16.000           1.063
 91  6 24 16 14 45.0000000  0  5G18G11G16G19G 2
  21645342.922     4365799.567 7   3401919.30722        23.250           2.000
  23176401.469    -6138301.355 6  -4783087.61821        15.000           0.875
  23398101.250    -4385822.359 5  -3417521.36121        11.500           0.531
  20535853.633     -675640.648 7   -526473.61622        21.000           1.563
  22904154.227    -8591743.573 6  -6651091.05021        16.000           1.000
 91  6 24 16 15  0.0000000  0  5G18G11G16G19G 2
  21651986.875     4400711.555 7   3429123.43422        23.000           1.938
  23170934.555    -6167036.618 6  -4805478.72121        15.500           0.844
  23395008.078    -4402083.719 5  -3430192.54621        11.750           0.500
  20536064.727     -674533.577 7   -525610.96921        20.500           1.438
  22894808.227    -8640858.114 6  -6689362.07821        16.500           0.938
 91  6 24 16 15 15.0000000  0  5G18G11G16G19G 2
  21658647.336     4435714.023 7   3456398.06322        23.000           2.031
  23165491.648    -6195639.954 6  -4827767.02321        15.750           0.906
  23391939.094    -4418204.067 5  -3442753.85221        11.750           0.625
  20536286.680     -673360.295 7   -524696.72721        20.750           1.469
  22885472.977    -8689913.762 6  -6727587.21721        16.500           1.094
 91  6 24 16 15 30.0000000  0  5G18G11G16G19G 2
  21665325.117     4470803.442 7   3483740.46122        23.000           1.969
  23160075.422    -6224114.249 6  -4849954.78021        16.000           0.844
  23388897.758    -4434186.775 6  -3455207.90721        12.000           0.500
  20536524.883     -672124.175 7   -523733.52121        20.000           1.438
  22876148.867    -8738913.557 6  -6765768.83121        16.500           1.094
 91  6 24 16 15 45.0000000  0  5G18G11G16G19G 2
  21672018.453     4505981.813 7   3511152.16022        22.750           2.000
  23154678.570    -6252457.104 6  -4872040.10821        15.750           0.875
  23385882.117    -4450029.661 5  -3467553.01021        11.750           0.563
  20536770.047     -670822.787 7   -522719.45922        20.750           1.531
  22866835.695    -8787855.225 6  -6803905.14821        16.250           1.031
 91  6 24 16 16  0.0000000  0  5G18G11G16G19G 2
  21678730.469     4541251.149 7   3538634.74422        22.500           1.969
  23149311.938    -6280665.986 6  -4894021.04421        16.000           0.875
  23382894.492    -4465730.710 5  -3479787.59421        11.750           0.563
  20537031.359     -669454.028 7   -521652.88822        20.250           1.594
  22857532.313    -8836736.352 6  -6841994.29421        16.250           1.031
 91  6 24 16 16 15.0000000  0  5G18G11G16G19G 2
  21685458.188     4576604.887 7   3566183.10322        22.750           1.938
  23143965.664    -6308747.093 6  -4915902.41321        15.750           0.813
  23379932.594    -4481296.071 5  -3491916.44421        11.750           0.594
  20537302.344     -668024.322 7   -520538.83522        20.750           1.500
  22848242.242    -8885563.233 6  -6880041.17121        16.250           1.094
 91  6 24 16 16 30.0000000  0  5G18G11G16G19G 2
  21692202.352     4612047.219 7   3593800.48822        22.250           1.906
  23138649.688    -6336695.765 6  -4937680.59221        16.250           0.875
  23376997.352    -4496721.423 5  -3503936.18721        11.750           0.625
  20537587.656     -666529.527 7   -519374.06121        20.000           1.438
  22838961.313    -8934331.430 6  -6918042.31921        16.250           1.063
 91  6 24 16 16 45.0000000  0  5G18G11G16G19G 2
  21698963.609     4647575.984 7   3621485.21222        22.500           1.969
  23133355.023    -6364513.811 6  -4959356.98021        16.000           0.906
  23374087.250    -4512008.950 5  -3515848.53821        11.750           0.656
  20537883.828     -664971.705 7   -518160.17522        20.500           1.500
  22829692.023    -8983042.947 6  -6955999.30521        16.000           1.156
 91  6 24 16 17  0.0000000  0  5G18G11G16G19G 2
  21705740.758     4683193.030 7   3649238.72622        22.500           2.063
  23128088.141    -6392198.660 6  -4980929.58021        16.500           0.781
  23371206.836    -4527156.088 6  -3527651.48921        12.000           0.594
  20538193.813     -663348.418 7   -516895.28021        20.000           1.469
  22820433.164    -9031695.350 6  -6993910.22321        15.750           1.219
 91  6 24 16 17 15.0000000  0  5G18G11G16G19G 2
  21712536.414     4718900.481 7   3677062.70922        22.500           2.094
  23122845.086    -6419747.772 6  -5002396.40021        16.250           0.844
  23368351.133    -4542160.476 5  -3539343.22121        11.500           0.625
  20538513.938     -661657.301 7   -515577.52722        20.500           1.500
  22811186.063    -9080286.035 6  -7031773.05221        16.000           1.125
 91  6 24 16 17 30.0000000  0  5G18G11G16G19G 2
  21719347.625     4754693.069 7   3704953.02122        22.500           2.031
  23117628.219    -6447166.090 6  -5023761.31221        16.000           0.875
  23365522.789    -4557027.100 5  -3550927.59121        11.500           0.594
  20538848.938     -659903.512 7   -514210.94222        20.000           1.531
  22801951.797    -9128820.049 6  -7069591.72121        16.250           1.156
 91  6 24 16 17 45.0000000  0  5G18G11G16G19G 2
  21726174.406     4790571.930 7   3732910.56522        22.500           2.125
  23112434.398    -6474451.865 6  -5045022.93321        15.500           0.906
  23362720.461    -4571754.645 6  -3562403.59521        12.000           0.594
  20539193.484     -658085.653 7   -512794.43222        20.500           1.531
  22792726.383    -9177295.789 6  -7107364.98721        16.250           1.188
 91  6 24 16 18  0.0000000  0  5G18G11G16G19G 2
  21733019.164     4826537.014 7   3760935.29022        22.500           2.063
  23107265.164    -6501604.811 6  -5066181.05521        15.000           0.875
  23359943.469    -4586343.038 5  -3573771.16821        11.750           0.625
  20539552.031     -656203.941 7   -511328.16622        20.500           1.500
  22783511.977    -9225713.142 6  -7145092.74921        16.250           1.094
 91  6 24 16 18 15.0000000  0  5G18G11G16G19G 2
  21739878.945     4862588.822 7   3789027.58322        22.250           2.031
  23102128.273    -6528623.838 6  -5087234.82821        16.000           0.906
  23357193.586    -4600791.300 5  -3585029.54721        11.750           0.688
  20539922.063     -654257.339 7   -509811.33322        20.500           1.500
  22774310.195    -9274071.154 6  -7182774.27421        16.250           1.156
 91  6 24 16 18 30.0000000  0  5G18G11G16G19G 2
  21746755.734     4898727.827 7   3817187.83622        22.250           2.000
  23097012.352    -6555508.119 6  -5108183.60121        16.000           0.875
  23354472.031    -4615098.980 6  -3596178.38521        12.000           0.625
  20540310.797     -652245.330 6   -508243.53821        19.250           1.469
  22765120.305    -9322369.127 6  -7220409.01321        16.500           1.219
 91  6 24 16 18 45.0000000  0  5G18G11G16G19G 2
  21753649.539     4934954.836 7   3845416.66622        22.250           2.031
  23091920.469    -6582256.234 6  -5129026.26521        16.000           0.813
  23351775.422    -4629264.904 6  -3607216.76521        12.000           0.594
  20540701.891     -650166.647 7   -506623.78322        20.500           1.531
  22755940.531    -9370605.761 6  -7257995.95721        16.750           1.250
 91  6 24 16 19  0.0000000  0  5G18G11G16G19G 2
  21760559.781     4971265.278 7   3873710.49922        22.250           2.063
  23086857.570    -6608872.532 6  -5149766.23021        16.750           0.875
  23349106.828    -4643293.453 6  -3618148.10721        12.000           0.656
  20541109.977     -648025.959 6   -504955.71722        19.500           1.563
  22746771.500    -9418785.398 6  -7295538.49021        16.750           1.188
 91  6 24 16 19 15.0000000  0  5G18G11G16G19G 2
  21767485.266     5007658.393 7   3902068.73922        22.000           2.031
  23081816.227    -6635357.028 6  -5170403.48121        16.250           0.844
  23346461.992    -4657185.159 6  -3628972.81021        12.000           0.625
  20541527.898     -645823.599 7   -503239.59522        20.500           1.500
  22737615.711    -9466908.239 6  -7333036.76221        17.000           1.188
 91  6 24 16 19 30.0000000  0  5G18G11G16G19G 2
  21774426.398     5044137.254 7   3930493.80722        21.750           2.000
  23076803.273    -6661706.407 6  -5190935.44521        16.500           0.875
  23343845.555    -4670936.734 6  -3639688.31221        12.000           0.531
  20541959.109     -643556.507 7   -501473.02922        20.250           1.563
  22728469.219    -9514971.117 6  -7370488.30521        17.250           1.188
 91  6 24 16 19 45.0000000  0  5G18G11G16G19G 2
  21781384.750     5080702.971 7   3958986.55122        21.750           1.969
  23071814.117    -6687919.189 6  -5211360.96821        16.250           0.844
  23341256.086    -4684547.036 6  -3650293.74021        12.250           0.531
  20542402.766     -641223.485 7   -499655.08522        20.500           1.500
  22719334.070    -9562972.606 6  -7407892.01021        17.500           1.188
 91  6 24 16 20  0.0000000  0  5G18G11G16G19G 2
  21788359.438     5117354.879 7   3987546.46622        21.500           1.969
  23066851.430    -6713995.273 6  -5231679.98121        16.500           0.875
  23338691.844    -4698016.143 6  -3660789.15321        12.250           0.563
  20542860.008     -638824.758 7   -497785.95122        20.000           1.500
  22710212.609    -9610912.744 6  -7445247.91621        17.750           1.156
 91  6 24 16 20 15.0000000  0  5G18G11G16G19G 2
  21795350.086     5154091.639 7   4016172.50422        21.500           2.000
  23061915.516    -6739935.470 6  -5251893.10621        17.000           0.875
  23336155.391    -4711345.376 6  -3671175.56721        12.000           0.594
  20543327.906     -636361.466 7   -495866.50622        20.250           1.500
  22701100.781    -9658792.599 6  -7482556.84621        17.750           1.125
 91  6 24 16 20 30.0000000  0  5G18G11G16G19G 2
  21802356.859     5190915.287 7   4044866.23222        21.250           1.813
  23057004.070    -6765737.424 6  -5271998.49821        16.750           0.750
  23333646.227    -4724532.288 6  -3681451.07821        12.000           0.563
  20543808.844     -633831.357 7   -493894.99221        20.250           1.469
  22692001.320    -9706609.957 6  -7519817.08621        17.750           1.219
 91  6 24 16 20 45.0000000  0  5G18G11G16G19G 2
  21809380.641     5227824.075 7   4073626.30722        21.250           1.875
  23052121.336    -6791402.379 6  -5291997.15021        17.000           0.781
  23331163.445    -4737578.320 6  -3691616.81221        12.000           0.594
  20544302.867     -631235.864 7   -491872.53022        20.000           1.625
  22682913.305    -9754366.042 6  -7557029.56821        17.750           1.125
 91  6 24 16 21  0.0000000  0  5G18G11G16G19G 2
  21816420.375     5264816.073 7   4102451.21922        20.750           1.750
  23047263.500    -6816931.755 6  -5311890.16321        17.000           0.813
  23328709.047    -4750485.002 6  -3701673.97121        12.000           0.563
  20544808.656     -628576.767 7   -489800.50821        20.250           1.406
  22673837.633    -9802062.372 6  -7594195.49421        18.250           1.250
 91  6 24 16 21 15.0000000  0  5G18G11G16G19G 2
  21823475.133     5301891.990 7   4131341.53022        21.000           1.813
  23042431.133    -6842324.769 6  -5331676.90921        16.500           0.906
  23326279.469    -4763251.843 6  -3711622.15021        12.250           0.625
  20545326.938     -625853.505 7   -487678.48622        20.250           1.531
  22664772.258    -9849698.282 6  -7631314.33621        18.000           1.219
 91  6 24 16 21 30.0000000  0  5G18G11G16G19G 2
  21830546.469     5339050.087 7   4160295.88822        21.250           1.813
  23037623.586    -6867582.415 6  -5351358.17521        17.000           0.844
  23323875.859    -4775880.290 6  -3721462.50221        12.500           0.563
  20545862.773     -623067.397 6   -485507.49622        18.750           1.563
  22655718.328    -9897274.957 6  -7668387.02421        17.750           1.250
 91  6 24 16 21 45.0000000  0  5G18G11G16G19G 2
  21837633.398     5376291.765 7   4189315.34222        21.000           1.656
  23032845.219    -6892702.740 6  -5370932.44021        16.750           0.844
  23321498.164    -4788368.549 6  -3731193.60721        12.500           0.531
  20546400.297     -620216.508 7   -483286.02521        20.250           1.406
  22646675.539    -9944790.482 6  -7705412.06921        17.500           1.219
 91  6 24 16 22  0.0000000  0  5G18G11G16G19G 2
  21844735.906     5413616.926 7   4218399.86122        21.500           1.750
  23028090.586    -6917685.700 6  -5390399.66121        16.750           0.781
  23319148.563    -4800716.779 6  -3740815.59921        12.250           0.656
  20546954.984     -617301.111 7   -481014.28821        20.000           1.438
  22637645.695    -9992244.931 6  -7742389.51421        17.500           1.250
 91  6 24 16 22 15.0000000  0  5G18G11G16G19G 2
  21851855.461     5451027.103 7   4247550.63022        21.750           1.781
  23023363.742    -6942529.132 6  -5409758.16321        16.500           0.906
  23316826.555    -4812923.036 6  -3750326.97421        12.250           0.563
  20547522.055     -614319.321 7   -478690.81222        20.000           1.500
  22628628.430   -10039636.189 6  -7779317.72121        17.500           1.313
 91  6 24 16 22 30.0000000  0  5G18G11G16G19G 2
  21858990.328     5488519.643 7   4276765.58322        21.500           1.656
  23018662.859    -6967235.090 6  -5429009.54521        16.250           0.750
  23314529.820    -4824989.372 6  -3759729.30921        12.250           0.531
  20548101.859     -611273.388 7   -476317.35422        20.000           1.563
  22619620.914   -10086966.331 6  -7816198.30821        17.500           1.188
 91  6 24 16 22 45.0000000  0  5G18G11G16G19G 2
  21866140.477     5526097.028 7   4306046.64722        21.750           1.594
  23013986.219    -6991800.669 6  -5448151.53721        16.250           0.906
  23312261.414    -4836913.518 6  -3769020.85121        12.250           0.531
  20548693.406     -608160.712 7   -473891.89522        20.000           1.594
  22610626.258   -10134232.816 6  -7853029.29021        17.250           1.344
 91  6 24 16 23  0.0000000  0  5G18G11G16G19G 2
  21873307.906     5563758.238 7   4335393.03122        21.250           1.594
  23009340.227    -7016226.648 6  -5467184.74421        16.750           0.938
  23310019.258    -4848696.371 6  -3778202.27721        12.250           0.500
  20549301.977     -604982.357 6   -471415.25621        19.250           1.438
  22601643.570   -10181436.431 6  -7889811.28321        17.500           1.281
 91  6 24 16 23 15.0000000  0  5G18G11G16G19G 2
  21880489.828     5601502.768 7   4364804.33922        21.500           1.625
  23004718.539    -7040513.070 6  -5486109.21521        16.500           0.938
  23307804.633    -4860337.920 6  -3787273.62021        12.250           0.500
  20549916.383     -601738.461 7   -468887.54221        20.000           1.438
  22592674.156   -10228577.134 6  -7926544.26121        17.750           1.438
 91  6 24 16 23 30.0000000  0  5G18G11G16G19G 2
  21887687.883     5639331.152 7   4394280.99122        21.500           1.563
  23000122.500    -7064659.015 6  -5504924.21621        16.500           0.875
  23305615.641    -4871837.516 6  -3796234.33521        12.250           0.500
  20550546.828     -598428.348 6   -466308.23522        19.500           1.531
  22583716.203   -10275654.159 6  -7963227.61521        18.000           1.344
 91  6 24 16 23 45.0000000  0  5G18G11G16G19G 2
  21894903.086     5677241.922 7   4423821.82422        21.500           1.656
  22995553.211    -7088665.406 6  -5523630.47121        16.250           0.844
  23303454.508    -4883196.367 6  -3805085.38921        12.250           0.594
  20551188.039     -595053.232 7   -463678.27322        20.000           1.500
  22574769.313   -10322668.590 6  -7999862.19921        18.250           1.250
 91  6 24 16 24  0.0000000  0  5G18G11G16G19G 2
  21902133.734     5715237.237 7   4453428.54022        21.500           1.688
  22991011.969    -7112529.377 6  -5542225.76121        16.250           0.875
  23301318.688    -4894411.922 6  -3813824.77921        12.250           0.438
  20551844.984     -591610.403 6   -460995.55122        19.500           1.563
  22565835.156   -10369617.688 6  -8036445.87221        18.250           1.281
 91  6 24 16 24 15.0000000  0  5G18G11G16G19G 2
  21909379.867     5753319.541 7   4483103.03922        21.250           1.656
  22986499.703    -7136248.128 6  -5560707.88521        16.500           0.844
  23299213.391    -4905481.826 6  -3822450.68021        12.000           0.531
  20552511.852     -588097.463 7   -458258.19322        20.000           1.594
  22556914.164   -10416498.696 6  -8072976.48421        18.250           1.281
 91  6 24 16 24 30.0000000  0  5G18G11G16G19G 2
  21916641.656     5791484.372 7   4512841.84822        21.000           1.750
  22982013.836    -7159826.093 6  -5579080.30921        16.750           0.813
  23297134.859    -4916410.689 6  -3830966.66521        12.250           0.531
  20553193.820     -584518.769 6   -455469.60222        19.500           1.500
  22548004.219   -10463316.065 6  -8109457.50621        18.500           1.375
 91  6 24 16 24 45.0000000  0  5G18G11G16G19G 2
  21923920.430     5829731.853 7   4542645.05522        20.750           1.750
  22977554.891    -7183262.397 6  -5597342.34921        17.000           0.813
  23295082.016    -4927197.532 6  -3839372.01021        12.000           0.531
  20553886.250     -580873.889 6   -452629.43921        19.750           1.469
  22539108.109   -10510069.105 6  -8145888.41021        18.750           1.344
 91  6 24 16 25  0.0000000  0  5G18G11G16G19G 2
  21931213.938     5868059.013 7   4572510.36022        21.000           1.625
  22973120.219    -7206559.374 6  -5615495.82621        17.000           0.875
  23293054.945    -4937845.036 6  -3847668.77121        12.250           0.563
  20554594.109     -577165.391 6   -449739.69922        19.250           1.531
  22530223.297   -10556760.169 6  -8182271.01421        19.000           1.219
 91  6 24 16 25 15.0000000  0  5G18G11G16G19G 2
  21938523.227     5906467.673 7   4602439.16422        21.000           1.656
  22968712.633    -7229714.895 6  -5633539.08321        16.750           0.938
  23291054.570    -4948351.160 6  -3855855.35221        12.250           0.531
  20555310.406     -573391.452 6   -446798.96822        19.750           1.531
  22521349.141   -10603387.400 6  -8218603.88621        19.000           1.313
 91  6 24 16 25 30.0000000  0  5G18G11G16G19G 2
  21945848.250     5944960.328 7   4632433.42622        21.250           1.656
  22964333.875    -7252726.036 6  -5651469.83021        16.500           0.813
  23289083.953    -4958713.611 6  -3863929.99421        12.000           0.531
  20556042.586     -569549.472 6   -443805.21722        19.000           1.500
  22512489.758   -10649948.060 6  -8254884.87821        19.250           1.344
 91  6 24 16 25 45.0000000  0  5G18G11G16G19G 2
  21953187.875     5983532.269 7   4662489.46822        21.000           1.625
  22959981.398    -7275597.048 6  -5669291.38121        16.750           0.969
  23287138.086    -4968936.846 6  -3871896.15321        12.250           0.563
  20556785.555     -565643.744 6   -440761.79321        19.750           1.469
  22503640.773   -10696446.417 6  -8291117.32221        18.750           1.125
 91  6 24 16 26  0.0000000  0  5G18G11G16G19G 2
  21960544.344     6022189.700 7   4692612.12522        20.750           1.688
  22955659.727    -7298321.328 6  -5686998.60521        16.750           0.844
  23285219.641    -4979014.258 6  -3879748.67421        12.000           0.594
  20557543.664     -561667.825 6   -437663.67621        19.000           1.406
  22494805.633   -10742875.922 6  -8327296.12021        19.250           1.469
 91  6 24 16 26 15.0000000  0  5G18G11G16G19G 2
  21967916.008     6060929.027 7   4722798.58922        20.500           1.719
  22951361.609    -7320902.012 6  -5704593.92921        16.500           0.969
  23283329.477    -4988949.309 6  -3887490.28421        12.250           0.625
  20558310.820     -557625.122 6   -434513.52021        19.750           1.438
  22485981.953   -10789239.672 6  -8363423.68521        18.750           1.219
 91  6 24 16 26 30.0000000  0  5G18G11G16G19G 2
  21975303.227     6099752.803 7   4753050.86622        20.000           1.813
  22947092.727    -7343336.091 6  -5722075.01121        16.250           1.031
  23281466.914    -4998738.922 6  -3895118.54921        12.000           0.563
  20559094.688     -553512.939 6   -431309.22222        19.250           1.531
  22477173.594   -10835534.884 6  -8399497.83421        19.000           1.125
 91  6 24 16 26 45.0000000  0  5G18G11G16G19G 2
  21982706.742     6138654.199 7   4783363.61322        20.250           1.719
  22942849.680    -7365629.826 6  -5739446.74521        16.250           1.063
  23279630.820    -5008389.953 6  -3902638.84721        12.250           0.594
  20559887.367     -549337.738 6   -428055.81722        19.750           1.500
  22468375.500   -10881767.784 6  -8435523.43321        18.750           1.375
 91  6 24 16 27  0.0000000  0  5G18G11G16G19G 2
  21990124.188     6177637.570 7   4813740.24822        20.250           1.656
  22938635.953    -7387778.607 6  -5756705.52021        16.250           0.938
  23277821.336    -5017898.004 6  -3910047.70621        12.000           0.563
  20560695.688     -545095.128 6   -424749.89121        19.250           1.375
  22459589.922   -10927934.024 6  -8471497.09421        18.500           1.250
 91  6 24 16 27 15.0000000  0  5G18G11G16G19G 2
  21997558.898     6216702.487 7   4844180.42922        20.250           1.688
  22934446.555    -7409782.697 6  -5773851.55121        16.000           0.938
  23276038.914    -5027263.492 6  -3917345.49321        12.250           0.625
  20561514.766     -540785.475 6   -421391.71621        19.750           1.469
  22450817.547   -10974033.816 6  -8507418.97321        19.000           1.344
 91  6 24 16 27 30.0000000  0  5G18G11G16G19G 2
  22005007.375     6255849.965 7   4874684.94122        20.250           1.625
  22930289.461    -7431640.511 6  -5790883.59521        16.500           0.906
  23274283.422    -5036484.931 6  -3924531.03221        12.000           0.531
  20562349.820     -536407.361 6   -417980.19721        19.250           1.438
  22442057.289   -11020065.530 6  -8543287.81221        18.500           1.250
 91  6 24 16 27 45.0000000  0  5G18G11G16G19G 2
  22012472.828     6295079.203 7   4905253.15522        20.250           1.563
  22926153.563    -7453352.187 6  -5807801.78421        16.250           0.906
  23272555.695    -5045562.583 6  -3931604.52621        12.000           0.625
  20563195.047     -531961.061 6   -414515.55421        19.750           1.469
  22433311.578   -11066029.458 6  -8579103.82121        18.250           1.344
 91  6 24 16 28  0.0000000  0  5G18G11G16G19G 2
  22019953.984     6334390.397 7   4935885.23022        20.000           1.656
  22922052.117    -7474917.314 6  -5824605.77121        16.500           0.906
  23270856.000    -5054496.409 6  -3938565.95521        12.000           0.563
  20564056.992     -527446.572 6   -410997.76622        19.000           1.531
  22424577.273   -11111925.382 6  -8614866.84821        18.500           1.344
 91  6 24 16 28 15.0000000  0  5G18G11G16G19G 2
  22027449.672     6373780.117 7   4966578.48622        20.250           1.688
  22917975.539    -7496338.663 6  -5841297.71721        16.750           0.875
  23269183.344    -5063289.660 6  -3945417.84821        12.250           0.563
  20564924.734     -522866.886 6   -407429.18422        19.750           1.500
  22415856.055   -11157756.188 6  -8650579.13021        18.500           1.406
 91  6 24 16 28 30.0000000  0  5G18G11G16G19G 2
  22034959.609     6413250.112 7   4997334.29322        20.000           1.594
  22913929.297    -7517613.798 6  -5857875.72921        17.500           1.031
  23267538.188    -5071940.106 6  -3952158.45721        12.250           0.656
  20565810.383     -518219.666 6   -403807.97722        19.250           1.500
  22407147.180   -11203519.655 6  -8686238.94921        18.750           1.344
 91  6 24 16 28 45.0000000  0  5G18G11G16G19G 2
  22042487.602     6452800.029 7   5028152.38522        20.500           1.594
  22909908.609    -7538743.108 6  -5874340.12221        17.750           1.000
  23265918.648    -5080448.262 6  -3958788.19021        12.250           0.563
  20566706.594     -513505.588 6   -400134.67121        19.500           1.469
  22398451.719   -11249215.975 6  -8721846.43821        18.500           1.375
 91  6 24 16 29  0.0000000  0  5G18G11G16G19G 2
  22050028.555     6492430.824 7   5059033.51822        20.500           1.563
  22905917.172    -7559725.142 6  -5890689.74821        18.000           0.938
  23264327.500    -5088813.002 6  -3965306.16621        12.250           0.563
  20567617.805     -508723.146 6   -396408.08922        19.250           1.594
  22389769.102   -11294843.805 6  -8757400.55221        18.500           1.469
 91  6 24 16 29 14.9990000  0  5G18G11G16G19G 2
  22057585.355     6532139.321 7   5089975.19222        20.250           1.500
  22901950.183    -7580558.739 6  -5906923.71021        17.750           0.906
  23262762.214    -5097033.954 6  -3971712.11321        12.250           0.563
  20568538.901     -503873.212 6   -392628.92521        19.750           1.469
  22381100.495   -11340400.413 6  -8792899.17121        18.750           1.438
 91  6 24 16 29 29.9990000  0  5G18G11G16G19G 2
  22065156.495     6571931.843 7   5120982.32822        20.250           1.500
  22898012.612    -7601244.922 6  -5923042.80121        17.250           0.969
  23261226.526    -5105110.655 6  -3978005.64821        12.250           0.531
  20569476.597     -498953.601 6   -388795.46322        19.250           1.531
  22372443.987   -11385890.132 6  -8828345.67721        19.000           1.406
 91  6 24 16 29 44.9990000  0  5G18G11G16G19G 2
  22072744.917     6611805.566 6   5152052.73521        19.750           1.469
  22894105.230    -7621782.314 6  -5939045.95521        17.250           0.938
  23259716.440    -5113042.894 6  -3984186.61921        12.250           0.594
  20570424.745     -493964.931 6   -384908.19621        19.750           1.469
  22363800.855   -11431310.125 6  -8863737.84121        19.250           1.469
 91  6 24 16 29 59.9990000  0  5G18G11G16G19G 2
  22080346.597     6651754.048 6   5183181.38521        19.750           1.406
  22890224.839    -7642176.929 6  -5954937.85521        17.250           0.969
  23258231.784    -5120837.125 6  -3990260.05121        12.250           0.531
  20571387.698     -488913.533 6   -380972.04522        19.250           1.531
  22355169.456   -11476666.471 6  -8899080.41322        19.250           1.531
 91  6 24 16 30 14.9990000  0  5G18G11G16G19G 2
  22087963.769     6691783.195 7   5214372.90821        20.000           1.438
  22886374.534    -7662422.134 6  -5970713.32821        17.500           1.000
  23256775.565    -5128487.105 6  -3996221.08521        12.000           0.531
  20572360.722     -483793.035 6   -376982.05322        19.750           1.500
  22346553.058   -11521952.789 6  -8934368.41822        19.250           1.594
 91  6 24 16 30 29.9990000  0  5G18G11G16G19G 2
  22095595.425     6731889.599 7   5245624.63221        20.500           1.344
  22882547.511    -7682520.841 6  -5986374.65921        17.000           1.000
  23255347.808    -5135995.819 6  -4002072.02321        12.000           0.563
  20573348.026     -478606.428 6   -372940.54022        19.500           1.531
  22337947.347   -11567171.896 6  -8969604.05022        19.500           1.563
 91  6 24 16 30 44.9990000  0  5G18G11G16G19G 2
  22103242.597     6772074.692 7   5276937.66321        20.000           1.313
  22878752.347    -7702471.615 6  -6001920.71521        17.000           1.031
  23253947.136    -5143361.785 6  -4007811.74121        12.000           0.563
  20574346.870     -473352.288 6   -368846.40522        19.750           1.500
  22329355.167   -11612322.290 6  -9004786.14422        19.500           1.563
 91  6 24 16 30 59.9990000  0  5G18G11G16G19G 2
  22110904.815     6812337.954 7   5308311.61021        20.250           1.313
  22874983.315    -7722274.400 6  -6017351.44221        17.000           1.063
  23252572.003    -5150585.251 6  -4013440.42021        12.000           0.500
  20575364.815     -468030.787 6   -364699.78222        18.500           1.531
  22320776.112   -11657404.009 6  -9039914.72222        19.250           1.531
 91  6 24 16 31 14.9990000  0  5G18G11G16G19G 2
  22118581.323     6852676.377 6   5339744.12421        19.750           1.375
  22871240.675    -7741931.715 6  -6032668.82321        16.500           1.031
  23251224.480    -5157669.030 6  -4018960.25121        12.500           0.594
  20576384.425     -462644.515 7   -360502.69122        20.000           1.563
  22312209.628   -11702419.734 6  -9074991.87722        19.000           1.625
 91  6 24 16 31 29.9990000  0  5G18G11G16G19G 2
  22126272.495     6893095.602 6   5371239.59921        19.500           1.438
  22867528.620    -7761437.680 6  -6047868.27421        16.250           0.969
  23249903.362    -5164607.387 6  -4024366.75821        12.500           0.500
  20577426.144     -457187.770 6   -356250.68221        19.250           1.438
  22303657.417   -11747363.590 6  -9110013.02722        19.000           1.531
 91  6 24 16 31 44.9990000  0  5G18G11G16G19G 2
  22133978.948     6933591.431 6   5402794.77121        19.500           1.313
  22863845.081    -7780795.842 6  -6062952.54921        16.250           0.938
  23248609.261    -5171404.198 6  -4029662.97321        12.500           0.625
  20578474.347     -451664.437 7   -351946.79022        20.000           1.531
  22295116.823   -11792239.194 6  -9144980.99822        19.000           1.563
 91  6 24 16 31 59.9990000  0  5G18G11G16G19G 2
  22141699.183     6974165.740 6   5434411.09821        19.500           1.281
  22860190.487    -7800004.222 6  -6077920.11621        16.250           1.031
  23247343.433    -5178057.936 6  -4034847.70621        12.250           0.531
  20579539.284     -446072.803 6   -347589.67321        19.750           1.469
  22286591.081   -11837044.737 6  -9179894.37622        19.000           1.531
 91  6 24 16 32 14.9990000  0  5G18G11G16G19G 2
  22149435.105     7014816.479 6   5466086.97321        19.500           1.250
  22856563.362    -7819064.195 6  -6092772.03521        16.500           0.938
  23246105.159    -5184569.696 6  -4039921.81021        12.750           0.563
  20580614.651     -440414.352 6   -343180.49522        19.750           1.688
  22278078.417   -11881781.723 6  -9214754.32922        19.000           1.563
 91  6 24 16 32 29.9990000  0  5G18G11G16G19G 2
  22157185.253     7055543.952 6   5497822.64621        19.250           1.313
  22852963.464    -7837975.217 6  -6107507.88221        16.500           0.969
  23244892.448    -5190939.423 6  -4044885.24221        12.500           0.500
  20581705.831     -434688.555 6   -338718.83922        19.750           1.594
  22269578.058   -11926449.591 6  -9249560.43422        19.000           1.531
 91  6 24 16 32 44.9990000  0  5G18G11G16G19G 2
  22164949.831     7096347.151 6   5529617.31921        19.250           1.313
  22849395.909    -7856737.965 6  -6122128.19621        17.000           0.906
  23243707.276    -5197167.796 6  -4049738.51021        12.750           0.500
  20582806.440     -428896.330 6   -334205.41822        19.750           1.500
  22261090.347   -11971048.877 6  -9284313.09422        19.250           1.625
 91  6 24 16 32 59.9990000  0  5G18G11G16G19G 2
  22172728.456     7137226.797 6   5561471.56721        18.750           1.313
  22845852.792    -7875351.130 6  -6136631.95421        16.750           1.031
  23242548.433    -5203253.995 6  -4054481.01621        12.500           0.563
  20583921.683     -423036.521 7   -329639.34022        20.000           1.594
  22252617.487   -12015578.381 6  -9319011.38222        19.250           1.594
 91  6 24 16 33 14.9990000  0  5G18G11G16G19G 2
  22180521.683     7178180.252 6   5593383.32421        19.000           1.219
  22842336.128    -7893816.971 6  -6151020.92221        16.500           0.969
  23241417.909    -5209200.281 6  -4059114.49021        12.500           0.563
  20585050.081     -417111.520 7   -325022.45622        20.000           1.563
  22244156.105   -12060040.453 6  -9353657.11822        19.250           1.656
 91  6 24 16 33 29.9990000  0  5G18G11G16G19G 2
  22188329.151     7219210.931 6   5625355.26021        18.750           1.281
  22838853.714    -7912131.613 6  -6165292.06821        17.000           1.031
  23240313.651    -5215003.190 6  -4063636.24321        12.250           0.563
  20586190.151     -411117.687 6   -320351.94822        19.750           1.625
  22235709.214   -12104431.239 6  -9388247.31522        19.500           1.563
 91  6 24 16 33 44.9990000  0  5G18G11G16G19G 2
  22196151.464     7260315.049 6   5657384.41121        19.000           1.219
  22835398.620    -7930298.388 6  -6179447.98521        17.500           0.969
  23239235.636    -5220666.178 6  -4068048.96621        12.000           0.469
  20587343.362     -405058.648 6   -315630.62022        19.500           1.563
  22227275.534   -12148754.238 6  -9422784.68622        19.500           1.656
 91  6 24 16 33 59.9990000  0  5G18G11G16G19G 2
  22203988.409     7301492.372 6   5689470.60221        19.750           1.281
  22831968.745    -7948317.181 6  -6193488.59621        17.500           1.000
  23238184.292    -5226189.504 6  -4072352.86721        12.000           0.531
  20588513.886     -398934.401 6   -310858.48022        18.250           1.625
  22218853.839   -12193009.491 6  -9457269.27122        19.500           1.625
 91  6 24 16 34 14.9990000  0  5G18G11G16G19G 2
  22211837.464     7342744.315 6   5721614.95221        19.500           1.281
  22828566.792    -7966186.101 6  -6207412.42221        17.000           1.031
  23237160.792    -5231571.481 6  -4076546.61721        12.000           0.531
  20589686.245     -392743.266 6   -306034.21922        19.500           1.531
  22210445.737   -12237195.100 6  -9491699.58622        19.750           1.563
 91  6 24 16 34 29.9990000  0  5G18G11G16G19G 2
  22219701.495     7384069.428 6   5753816.31121        19.250           1.281
  22825194.003    -7983906.339 6  -6221220.38521        16.750           1.000
  23236163.503    -5236813.635 6  -4080631.43521        12.000           0.531
  20590877.987     -386486.556 6   -301158.86522        19.500           1.594
  22202050.433   -12281312.363 7  -9526076.64222        20.250           1.656
 91  6 24 16 34 44.9990000  0  5G18G11G16G19G 2
  22227580.175     7425468.776 6   5786075.52021        19.500           1.219
  22821851.628    -8001476.312 6  -6234911.27421        17.000           1.000
  23235192.815    -5241914.454 6  -4084606.10121        12.000           0.406
  20592081.706     -380162.904 6   -296231.34922        19.500           1.656
  22193667.933   -12325359.597 7  -9560399.13222        20.000           1.594
 91  6 24 16 34 59.9990000  0  5G18G11G16G19G 2
  22235472.815     7466945.033 6   5818394.64321        19.250           1.344
  22818536.995    -8018892.827 6  -6248482.57421        16.750           0.969
  23234249.526    -5246870.905 6  -4088468.28321        12.250           0.531
  20593298.456     -373769.289 6   -291249.31522        19.750           1.594
  22185300.253   -12369333.691 7  -9594664.63622        20.000           1.656
 91  6 24 16 35 14.9990000  0  5G18G11G16G19G 2
  22243379.730     7508497.135 6   5850772.87821        19.250           1.281
  22815251.612    -8036156.671 6  -6261934.92121        16.750           1.094
  23233333.112    -5251684.090 6  -4092218.83521        12.250           0.563
  20594526.347     -367306.574 6   -286213.43922        19.500           1.688
  22176946.144   -12413235.403 7  -9628873.72722        20.000           1.563
 91  6 24 16 35 29.9990000  0  5G18G11G16G19G 2
  22251301.378     7550123.619 6   5883209.06821        19.500           1.281
  22811996.573    -8053269.104 6  -6275269.27921        16.750           1.000
  23232443.253    -5256355.518 6  -4095858.91721        12.000           0.469
  20595772.401     -360776.237 6   -281124.87122        18.750           1.688
  22168604.550   -12457066.012 7  -9663027.42322        20.000           1.563
 91  6 24 16 35 44.9990000  0  5G18G11G16G19G 2
  22259237.034     7591825.737 6   5915704.19521        19.750           1.313
  22808768.933    -8070228.172 6  -6288484.14121        16.250           1.000
  23231583.011    -5260883.624 6  -4099387.31921        12.000           0.500
  20597026.550     -354176.445 6   -275982.18022        19.750           1.688
  22160278.339   -12500823.703 6  -9697124.30122        19.750           1.563
 91  6 24 16 35 59.9990000  0  5G18G11G16G19G 2
  22267186.675     7633603.322 6   5948258.13421        19.500           1.250
  22805570.589    -8087033.784 6  -6301579.41921        16.500           0.875
  23230749.089    -5265268.374 6  -4102804.01421        12.250           0.531
  20598296.355     -347507.173 6   -270785.35022        19.000           1.688
  22151964.948   -12544508.563 7  -9731164.41622        20.000           1.563
 91  6 24 16 36 14.9990000  0  5G18G11G16G19G 2
  22275150.417     7675453.481 6   5980868.62121        19.250           1.281
  22802402.409    -8103688.495 6  -6314557.11521        17.000           1.125
  23229941.425    -5269512.512 6  -4106111.15021        12.500           0.500
  20599576.651     -340771.120 6   -265536.47922        19.750           1.656
  22143664.972   -12588123.140 6  -9765149.78122        19.750           1.531
 91  6 24 16 36 29.9990000  0  5G18G11G16G19G 2
  22283128.605     7717378.359 6   6013537.31921        19.500           1.250
  22799262.245    -8120189.762 6  -6327415.24521        16.750           1.063
  23229159.339    -5273613.656 6  -4109306.86421        12.250           0.531
  20600872.847     -333966.097 6   -260233.86922        19.250           1.625
  22135379.495   -12631664.771 6  -9799078.29222        19.750           1.625
 91  6 24 16 36 44.9990000  0  5G18G11G16G19G 2
  22291120.050     7759376.843 6   6046263.39421        19.000           1.125
  22796151.011    -8136538.222 6  -6340154.31721        17.000           1.031
  23228406.487    -5277572.721 5  -4112391.85621        11.750           0.563
  20602179.050     -327092.746 6   -254878.01522        19.500           1.656
  22127107.151   -12675134.291 6  -9832950.62022        19.750           1.594
 91  6 24 16 36 59.9990000  0  5G18G11G16G19G 2
  22299128.292     7801451.593 6   6079048.88521        19.000           1.219
  22793069.987    -8152730.750 6  -6352771.87521        17.000           1.000
  23227680.886    -5281386.766 5  -4115363.84221        11.750           0.500
  20603502.331     -320147.862 6   -249466.42422        19.250           1.688
  22118849.667   -12718528.684 6  -9866764.40622        19.750           1.625
 91  6 24 16 37 14.9990000  0  5G18G11G16G19G 2
  22307148.065     7843599.323 6   6111891.24221        18.750           1.344
  22790017.019    -8168770.328 6  -6365270.24121        17.000           1.125
  23226981.933    -5285059.183 6  -4118225.48721        12.000           0.406
  20604836.136     -313134.889 6   -244001.77422        19.750           1.719
  22110606.261   -12761850.810 7  -9900521.88222        20.000           1.625
 91  6 24 16 37 29.9990000  0  5G18G11G16G19G 2
  22315181.558     7885816.854 6   6144787.98721        18.750           1.344
  22786993.886    -8184659.641 6  -6377651.52621        17.000           1.000
  23226309.534    -5288592.763 6  -4120978.93121        12.000           0.531
  20606183.690     -306056.666 6   -238486.28322        19.250           1.688
  22102375.519   -12805103.320 6  -9934225.11222        19.750           1.563
 91  6 24 16 37 44.9990000  0  5G18G11G16G19G 2
  22323228.034     7928107.270 6   6177741.53221        18.750           1.313
  22784002.425    -8200395.472 6  -6389913.20721        17.750           1.000
  23225664.495    -5291984.682 5  -4123621.99421        11.750           0.469
  20607542.378     -298909.928 6   -232917.40322        19.500           1.750
  22094158.503   -12848283.071 7  -9967871.64422        20.000           1.594
 91  6 24 16 37 59.9990000  0  5G18G11G16G19G 2
  22331290.558     7970469.453 6   6210751.00021        18.750           1.250
  22781033.034    -8215978.523 6  -6402055.84521        17.000           1.063
  23225045.909    -5295235.717 5  -4126155.28921        11.750           0.563
  20608916.237     -291695.568 6   -227295.82922        19.250           1.719
  22085955.987   -12891390.857 7 -10001462.10622        20.000           1.656
 91  6 24 16 38 14.9990000  0  5G18G11G16G19G 2
  22339365.394     8012900.948 6   6243814.46921        18.500           1.188
  22778096.620    -8231410.677 6  -6414080.90421        17.000           1.125
  23224453.683    -5298348.102 6  -4128580.53721        12.000           0.469
  20610300.612     -284415.733 6   -221623.23922        19.750           1.750
  22077765.894   -12934428.656 7 -10034998.02722        20.500           1.719
 91  6 24 16 38 29.9990000  0  5G18G11G16G19G 2
  22347453.323     8055404.983 6   6276934.46821        18.250           1.219
  22775188.956    -8246688.319 6  -6425985.55321        17.250           1.156
  23223888.190    -5301318.114 5  -4130894.84021        11.750           0.500
  20611700.347     -277066.834 6   -215896.82522        19.000           1.750
  22069590.472   -12977392.815 7 -10068476.57122        20.500           1.750
 91  6 24 16 38 44.9990000  0  5G18G11G16G19G 2
  22355554.722     8097981.055 6   6310110.59421        18.000           1.156
  22772311.659    -8261811.857 6  -6437770.13021        17.500           1.094
  23223348.409    -5304146.651 5  -4133098.90921        11.750           0.469
  20613110.675     -269649.445 6   -210117.05022        19.500           1.750
  22061428.065   -13020283.787 7 -10101898.07822        20.500           1.906
 91  6 24 16 38 59.9990000  0  5G18G11G16G19G 2
  22363670.698     8140629.086 6   6343342.80521        18.000           1.031
  22769463.292    -8276780.987 6  -6449434.38021        17.500           1.094
  23222839.276    -5306833.679 6  -4135192.70721        12.000           0.469
  20614536.714     -262163.487 6   -204283.83922        19.000           1.844
  22053280.253   -13063101.311 7 -10135262.36022        20.500           1.844
 91  6 24 16 39 14.9990000  0  5G18G11G16G19G 2
  22371799.472     8183349.650 6   6376631.52721        18.000           1.094
  22766644.776    -8291594.577 6  -6460977.44321        17.250           1.156
  23222353.855    -5309377.965 6  -4137175.28121        12.250           0.531
  20615972.269     -254607.870 6   -198396.35122        19.500           1.750
  22045145.808   -13105844.273 7 -10168568.54222        20.500           1.719
 91  6 24 16 39 29.9990000  0  5G18G11G16G19G 2
  22379943.175     8226140.060 6   6409974.67221        18.750           1.125
  22763855.206    -8306254.781 6  -6472400.98321        17.250           1.156
  23221897.878    -5311782.187 6  -4139048.71621        12.000           0.594
  20617424.839     -246984.875 6   -192456.36322        19.000           1.750
  22037026.667   -13148514.788 7 -10201818.27122        20.500           1.813
 91  6 24 16 39 44.9990000  0  5G18G11G16G19G 2
  22388099.073     8269003.673 6   6443374.86821        18.250           1.188
  22761095.565    -8320758.053 6  -6483702.22821        17.250           1.094
  23221468.495    -5314043.131 6  -4140810.50221        12.250           0.563
  20618888.526     -239291.003 6   -186461.13622        19.500           1.781
  22028920.964   -13191109.359 7 -10235008.82222        20.500           1.938
 91  6 24 16 39 59.9990000  0  5G18G11G16G19G 2
  22396270.745     8311938.134 6   6476830.25021        18.250           1.125
  22758364.448    -8335106.247 6  -6494882.64321        17.500           1.125
  23221063.534    -5316162.806 6  -4142462.21721        12.250           0.438
  20620366.089     -231528.127 6   -180412.14722        19.000           1.719
  22020829.050   -13233629.930 7 -10268141.71322        20.500           1.844
 91  6 24 16 40 14.9990000  0  5G18G11G16G19G 2
  22404452.589     8354940.769 6   6510338.77421        17.750           1.094
  22755663.206    -8349301.572 6  -6505943.93321        17.750           1.156
  23220685.448    -5318143.314 5  -4144005.47621        11.750           0.500
  20621855.644     -223698.807 6   -174311.37922        19.500           1.781
  22012751.456   -13276078.787 7 -10301218.72222        20.250           1.906
 91  6 24 16 40 29.9990000  0  5G18G11G16G19G 2
  22412650.230     8398014.850 6   6543902.95721        18.000           1.063
  22752990.987    -8363340.363 6  -6516883.25921        17.750           1.125
  23220335.534    -5319981.531 6  -4145437.87521        12.000           0.500
  20623361.370     -215799.614 6   -168156.16822        18.750           1.906
  22004688.823   -13318452.208 7 -10334236.95422        20.500           1.969
 91  6 24 16 40 44.9990000  0  5G18G11G16G19G 2
  22420859.558     8441158.468 6   6577521.33021        17.500           0.969
  22750350.331    -8377224.437 6  -6527702.01121        17.500           1.156
  23220013.886    -5321679.344 6  -4146760.87121        12.000           0.469
  20624875.261     -207832.344 6   -161947.91622        19.750           1.688
  21996638.065   -13360752.000 7 -10367197.81122        20.250           1.844
 91  6 24 16 40 59.9990000  0  5G18G11G16G19G 2
  22429081.667     8484370.513 6   6611193.01321        17.500           1.000
  22747738.355    -8390954.550 6  -6538400.80721        17.500           1.063
  23219718.667    -5323237.692 5  -4147975.17421        11.750           0.531
  20626404.511     -199797.636 6   -155687.10322        18.750           1.844
  21988602.519   -13402978.881 7 -10400101.85322        20.500           1.844
 91  6 24 16 41 14.9990000  0  6G18G11G 6G16G19G 2
  22437317.745     8527650.344 6   6644917.52621        18.000           0.906
  22745152.605    -8404530.955 6  -6548979.81321        17.500           1.094
  23086536.769          -0.19616                        12.250
  23219448.261    -5324656.983 5  -4149081.14121        11.750           0.500
  20627944.394     -191695.935 6   -149374.09722        19.250           1.813
  21980581.800   -13445133.212 7 -10432949.36422        20.250           2.000
 91  6 24 16 41 29.9990000  0  6G18G11G 6G16G19G 2
  22445567.878     8570999.156 6   6678695.79521        18.250           0.938
  22742598.808    -8417952.213 6  -6559437.94721        17.500           1.094
  23078722.198      -41075.717 6                        12.250
  23219202.800    -5325936.514 5  -4150078.19021        11.500           0.688
  20629500.440     -183526.194 6   -143008.07722        18.750           1.750
  21972573.917   -13487213.631 7 -10465739.28222        20.500           1.969
 91  6 24 16 41 44.9990000  0  6G18G11G 6G16G19G 2
  22453829.940     8614414.074 6   6712525.56821        18.250           0.906
  22740075.737    -8431220.441 6  -6569776.82321        17.750           1.094
  23070910.190      -82128.019 6                        12.000
  23218985.862    -5327078.227 5  -4150967.84921        11.500           0.406
  20631066.745     -175290.557 6   -136590.70522        19.250           1.781
  21964579.917   -13529222.321 7 -10498473.30822        20.500           2.031
 91  6 24 16 41 59.9990000  0  6G18G11G 6G16G19G 2
  22462103.245     8657897.965 6   6746409.08221        17.250           0.969
  22737578.628    -8444332.594 6  -6579994.09121        17.750           1.031
  23063100.628     -123154.109 6                        12.000
  23218797.050    -5328079.011 5  -4151747.69021        11.750           0.469
  20632647.167     -166985.937 6   -130119.57522        18.500           1.781
  21956600.933   -13571155.948 7 -10531148.84122        21.000           1.969
 91  6 24 16 42 14.9990000  0  6G18G11G 6G16G19G 2
  22470392.464     8701450.987 6   6780346.45921        17.250           0.969
  22735115.097    -8457288.180 6  -6590089.35821        17.750           1.156
  23055301.605     -164153.519 6        -0.39831        12.250           0.625
  23218632.284    -5328938.948 5  -4152417.79521        11.500           0.500
  20634240.659     -158611.944 6   -123594.39222        19.000           1.875
  21948634.972   -13613014.154 7 -10563765.60522        21.000           1.938
 91  6 24 16 42 29.9990000  0  6G18G11G 6G16G19G 2
  22478691.917     8745072.596 6   6814337.28021        17.250           1.125
  22732676.448    -8470087.378 6  -6600062.75421        17.500           1.188
  23047501.331     -205126.559 6    -31927.42121        12.250           0.625
  23218495.472    -5329658.378 5  -4152978.40221        11.750           0.531
  20635847.683     -150168.877 6   -117015.38722        18.500           1.750
  21940684.112   -13654797.247 7 -10596323.84422        21.250           1.906
 91  6 24 16 42 44.9990000  0  6G18G11G 6G16G19G 2
  22487006.597     8788759.209 6   6848378.76221        16.750           1.000
  22730272.417    -8482733.454 6  -6609916.84021        18.000           1.094
  23039710.917     -246076.609 6    -63836.53221        12.500           0.594
  23218384.581    -5330240.655 5  -4153432.13421        11.500           0.438
  20637466.917     -141660.220 6   -110385.27122        19.000           1.750
  21932745.644   -13696508.579 7 -10628826.16422        21.500           1.938
 91  6 24 16 42 59.9990000  0  6G18G11G 6G16G19G 2
  22495331.831     8832512.396 6   6882472.11421        17.250           0.906
  22727894.886    -8495224.389 6  -6619650.03821        18.000           1.156
  23031922.019     -287001.767 6    -95726.24421        12.250           0.719
  23218300.425    -5330684.264 5  -4153777.82021        11.750           0.500
  20639098.550     -133084.011 6   -103702.52522        18.500           1.750
  21924823.761   -13738146.023 7 -10661270.90422        21.500           1.875
 91  6 24 16 43 14.9990000  0  6G18G11G 6G16G19G 2
  22503670.284     8876329.648 6   6916615.39621        17.250           0.906
  22725546.151    -8507562.388 6  -6629264.06421        17.750           1.188
  23024141.714     -327904.234 6   -127598.29321        12.250           0.563
  23218243.534    -5330991.581 5  -4154017.30021        11.750           0.500
  20640742.628     -124442.545 6    -96968.91822        18.750           1.719
  21916912.753   -13779711.750 7 -10693659.76922        21.500           1.938
 91  6 24 16 43 29.9990000  0  6G18G11G 6G16G19G 2
  22512021.815     8920214.552 6   6950811.39521        17.750           0.938
  22723229.776    -8519743.712 6  -6638756.01121        18.500           1.250
  23016360.769     -368780.382 6   -159449.82021        12.250           0.656
  23218208.831    -5331159.143 5                        11.500
  20642403.940     -115732.290 6    -90181.71322        17.500           1.719
  21909018.722   -13821202.057 7 -10725989.86122        21.500           1.875
 91  6 24 16 43 44.9990000  0  6G18G11G 6G16G19G 2
  22520385.917     8964168.921 6   6985061.52421        17.250           0.969
  22720942.105    -8531765.762 6  -6648123.84721        18.250           1.219
  23008588.519     -409627.738 6   -191278.89821        12.500           0.594
  23218203.870    -5331184.385 5                        11.750
  20644071.542     -106950.631 6    -83338.87222        18.500           1.781
  21901137.269   -13862614.330 7 -10758259.14822        21.250           1.969
 91  6 24 16 43 59.9990000  0  6G18G11G 6G16G19G 2
  22528761.362     9008187.914 6   7019362.00121        16.750           1.125
  22718682.487    -8543633.186 6  -6657371.19121        18.250           1.250
  23000820.089     -450450.972 6   -223089.19621        12.500           0.625
  23218227.331    -5331072.279 5                        11.750
  20645756.448      -98102.298 6    -76444.07122        17.750           1.813
  21893271.105   -13903953.150 7 -10790471.19822        21.500           1.750
 91  6 24 16 44 14.9990000  0  6G18G11G 6G16G19G 2
  22537151.948     9052275.138 6   7053715.64121        16.750           1.031
  22716453.370    -8555342.206 6  -6666495.10221        18.250           1.219
  22993055.808     -491246.515 6   -254877.91721        12.500           0.625
  23218272.706    -5330819.226 5                        11.750
  20647452.628      -89183.644 6    -69494.47822        18.500           1.750
  21885419.667   -13945214.730 7 -10822623.06222        21.500           1.875
 91  6 24 16 44 29.9990000  0  6G18G11G 6G16G19G 2
  22545554.761     9096428.814 6   7088121.05721        16.750           1.125
  22714255.933    -8566894.010 6  -6675496.51021        18.000           1.250
  22985297.800     -532015.555 6   -286645.97021        12.500           0.594
  23218347.417    -5330426.416 5                        11.500
  20649162.933      -80196.067 6    -62491.17722        18.250           1.875
  21877581.605   -13986400.488 7 -10854715.84722        21.250           1.969
 91  6 24 16 44 44.9990000  0  6G18G11G 6G16G19G 2
  22553969.230     9140647.762 6   7122577.34721        17.000           1.063
  22712088.370    -8578289.211 6  -6684375.88821        18.500           1.313
  22977546.159     -572758.929 6   -318394.04021        12.250           0.656
  23218450.667    -5329895.175 5  -4153163.05221        11.500           0.531
  20650886.026      -71140.202 6    -55434.66522        18.250           1.781
  21869758.276   -14027510.984 7 -10886749.98322        21.500           1.875
 91  6 24 16 44 59.9990000  0  6G18G11G 6G16G19G 2
  22562396.558     9184935.434 6   7157087.17121        17.500           1.094
  22709949.253    -8589524.504 6  -6693130.66621        18.000           1.188
  22969798.167     -613473.111 6   -350119.35421        12.750           0.563
  23218579.550    -5329222.254 5  -4152638.70621        11.500           0.500
  20652624.753      -62012.698 6    -48322.33122        18.000           1.813
  21861950.386   -14068542.901 7 -10918722.88622        21.250           1.906
 91  6 24 16 45 14.9990000  0  6G18G11G 6G16G19G 2
  22570837.355     9229287.048 6   7191646.82521        17.750           1.125
  22707841.628    -8600604.056 6  -6701764.09521        18.000           1.125
  22962053.558     -654162.547 6   -381825.40221        12.500           0.563
  23218734.237    -5328411.857 5  -4152007.25021        11.500           0.469
  20654373.698      -52817.926 6    -41157.58122        18.500           1.844
  21854156.409   -14109500.421 7 -10950637.82422        20.750           1.938
 91  6 24 16 45 29.9990000  0  6G18G11G 6G16G19G 2
  22579288.901     9273704.960 6   7226258.13621        17.500           0.969
  22705764.034    -8611525.181 6  -6710274.05721        18.000           1.188
  22954317.901     -694824.575 6   -413510.08421        13.000           0.500
  23218914.558    -5327461.532 5  -4151266.74121        11.750           0.469
  20656135.487      -43553.236 6    -33938.34922        18.250           1.656
  21846376.597   -14150380.852 7 -10982492.69422        21.000           1.906
 91  6 24 16 45 44.9990000  0  6G18G11G 6G16G19G 2
  22587754.175     9318188.607 6   7260920.68821        17.250           0.938
  22703712.917    -8622288.143 6  -6718660.78921        17.500           1.094
  22946582.050     -735459.422 6   -445173.57721        12.500           0.469
  23219120.081    -5326371.717 5  -4150417.56021        11.750           0.500
  20657911.667      -34218.988 6    -26664.92322        18.500           1.781
  21838613.448   -14191184.282 7 -11014287.55922        21.250           1.938
 91  6 24 16 45 59.9990000  0  6G18G11G 6G16G19G 2
  22596231.276     9362737.128 6   7295633.77721        17.000           0.969
  22701697.206    -8632893.571 6  -6726924.76321        17.750           1.125
  22938855.495     -776068.033 6                        12.250
  23219355.651    -5325143.499 5  -4149460.50321        11.750           0.438
  20659701.769      -24816.050 6    -19337.97222        18.250           1.844
  21830862.198   -14231911.531 7                        21.250
 91  6 24 16 46 14.9990000  0  6G18G11G 6G16G19G 2
  22604720.956     9407350.444 6   7330397.35721        16.750           1.000
  22699708.097    -8643341.115 6  -6735065.71121        17.500           1.156
  22931131.019     -816650.073 6                        12.500
  23219615.722    -5323776.726 5  -4148395.49621        11.750           0.500
  20661503.659      -15344.086 6    -11957.23222        18.500           1.844
  21823125.917   -14272562.200 7                        21.500
 91  6 24 16 46 29.9990000  0  6G18G11G 6G16G19G 2
  22613222.050     9452028.677 6   7365211.52221        17.250           0.938
  22697751.284    -8653630.137 6  -6743083.13421        17.750           1.250
  22923414.190     -857204.849 6                        12.250
  23219900.776    -5322270.746 5  -4147222.03121        11.500           0.563
  20663324.331       -5802.437 6     -4522.18622        17.000           1.719
  21815405.870   -14313135.686 7 -11109314.58022        21.500           2.219
 91  6 24 16 46 44.9990000  0  6G18G11G 6G16G19G 2
  22621737.011     9496767.837 6   7400073.16521        17.000           1.031
  22695819.495    -8663764.633 6  -6750980.15021        17.500           1.188
  22915703.362     -897736.480 6                        12.250
  23220213.550    -5320630.045 5  -4145943.56721        11.500           0.500
  20665148.128        3804.897 6      2964.04022        18.500           1.750
  21807699.190   -14353635.836 7                        21.750
 91  6 24 16 46 59.9990000  0  6G18G11G 6G16G19G 2
  22630262.120     9541571.996 6   7434985.45521        17.250           1.031
  22693925.269    -8673740.000 6  -6758753.16721        18.000           1.188
  22907995.464     -938240.309 6                        12.500
  23220552.464    -5318849.928 5  -4144556.47921        11.500           0.500
  20666989.464       13482.334 6     10504.89122        18.000           1.688
  21800006.565   -14394057.995 7 -11172370.89822        21.750           2.031
 91  6 24 16 47 14.9990000  0  6G18G11G 6G16G19G 2
  22638800.464     9586440.144 6   7469947.60721        17.000           1.000
  22692056.917    -8683557.002 6  -6766402.78421        18.000           1.188
  22900291.589     -978717.244 6        -0.01831        12.250           0.531
  23220918.019    -5316931.304 5  -4143061.46121        11.500           0.625
  20668843.417       23229.013 6     18099.69822        18.250           1.656
  21792329.378   -14434403.026 7 -11203808.57022        21.750           1.969
 91  6 24 16 47 29.9990000  0  6G18G11G 6G16G19G 2
  22647351.245     9631374.376 6   7504961.25521        16.750           1.031
  22690218.808    -8693213.000 6  -6773926.94021        18.000           1.156
  22892595.800    -1019164.834 6    -31517.62421        12.250           0.594
  23221308.940    -5314871.927 5  -4141456.76421        11.500           0.500
  20670713.565       33047.335 6     25750.33322        18.000           1.625
  21784667.784   -14474668.350 7 -11235184.13022        22.250           1.938
 91  6 24 16 47 44.9990000  0  6G18G11G 6G16G19G 2
  22655913.331     9676369.198 6   7540022.10321        16.000           1.000
  22688411.339    -8702712.996 6  -6781329.53621        18.000           1.125
  22884904.651    -1059587.903 6    -63016.09821        12.250           0.469
  23221726.394    -5312676.998 5  -4139746.44021        11.500           0.469
  20672591.815       42932.399 6     33452.97022        18.000           1.813
  21777018.847   -14514858.857 7 -11266501.39522        22.250           1.938
 91  6 24 16 47 59.9990000  0  6G18G11G 6G16G19G 2
  22664488.269     9721427.434 6   7575132.37421        15.250           0.906
  22686633.573    -8712054.197 6  -6788608.39621        18.500           1.219
  22877218.605    -1099983.793 6    -94493.39221        12.250           0.594
  23222170.190    -5310344.247 5  -4137928.73121        11.500           0.594
  20674490.136       52887.008 6     41209.80422        17.250           1.750
  21769385.573   -14554971.626 7 -11297758.08222        22.250           2.031
 91  6 24 16 48 14.9990000  0  6G18G11G 6G16G19G 2
  22673073.776     9766552.190 6   7610294.46921        15.000           0.938
  22684888.120    -8721233.215 6  -6795760.87821        18.750           1.281
  22869536.355    -1140349.199 6   -125946.95021        12.250           0.563
  23222640.300    -5307870.483 5  -4136001.12421        11.250           0.438
  20676395.198       62914.480 6     49023.41322        18.250           1.688
  21761767.034   -14595003.428 7 -11328951.67822        22.250           2.000
 91  6 24 16 48 29.9990000  0  6G18G11G 6G16G19G 2
  22681672.175     9811736.828 6   7645503.23221        15.500           0.969
  22683171.065    -8730256.105 6  -6802791.69921        18.750           1.250
  22861858.081    -1180690.282 6   -157381.55221        12.750           0.594
  23223138.808    -5305261.850 5  -4133968.44621        11.750           0.469
  20678317.698       73008.624 6     56888.96022        17.750           1.719
  21754164.870   -14634960.336 7 -11360086.91922        22.250           2.031
 91  6 24 16 48 44.9990000  0  6G18G11G 6G16G19G 2
  22690282.230     9856983.849 6   7680760.61721        16.000           0.844
  22681483.019    -8739120.282 6  -6809698.84721        18.500           1.125
  22854186.558    -1221004.229 6   -188795.00821        12.750           0.594
  23223661.167    -5302515.950 5  -4131828.80221        11.500           0.375
  20680249.690       83171.834 6     64808.34022        18.250           1.656
  21746575.675   -14674839.607 7 -11391161.66622        22.000           1.969
 91  6 24 16 48 59.9990000  0  6G18G11G 6G16G19G 2
  22698905.331     9902293.137 6   7716066.50721        15.750           0.844
  22679827.136    -8747825.501 6  -6816482.14521        18.250           1.125
  22846522.128    -1261290.997 6   -220187.28721        12.750           0.594
  23224210.683    -5299632.501 5  -4129581.96321        11.750           0.531
  20682197.644       93404.530 6     72781.86022        18.000           1.625
  21739000.667   -14714641.001 7 -11422175.72522        22.000           1.938
 91  6 24 16 49 14.9990000  0  6G18G11G 6G16G19G 2
  22707538.940     9947664.573 6   7751420.83121        15.750           0.906
  22678199.698    -8756371.431 6  -6823141.30421        18.250           1.219
  22838859.917    -1301550.316 6   -251558.16921        12.750           0.563
  23224784.089    -5296611.513 5  -4127227.97721        11.500           0.500
  20684158.308      103706.956 6     80809.71722        18.500           1.625
  21731443.245   -14754364.208 7 -11453128.86022        22.250           2.000
 91  6 24 16 49 29.9990000  0  6G18G11G 6G16G19G 2
  22716184.378     9993096.706 6   7786822.43921        15.750           0.906
  22676605.034    -8764759.204 6  -6829677.23821        18.250           1.219
  22831203.386    -1341783.387 6   -282908.59621        13.000           0.594
  23225385.073    -5293454.447 5  -4124767.93021        11.500           0.344
  20686133.292      114077.774 6     88890.86122        18.000           1.656
  21723898.487   -14794010.402 7 -11484021.98522        22.250           1.969
 91  6 24 16 49 44.9990000  0  6G18G11G 6G16G19G 2
  22724842.011    10038592.106 6   7822273.36021        15.500           0.844
  22675038.323    -8772985.901 6  -6836087.65121        18.250           1.344
  22823553.651    -1381987.343 6   -314236.35021        12.750           0.625
  23226010.972    -5290158.720 5  -4122199.84721        11.500           0.531
  20688118.440      124519.882 6     97027.55622        18.500           1.656
  21716368.784   -14833576.595 7 -11514852.77422        22.250           2.031
 91  6 24 16 49 59.9990000  0  6G18G11G 6G16G19G 2
  22733510.315    10084145.907 6   7857769.78321        14.750           0.813
  22673502.331    -8781056.202 6  -6842376.19821        18.500           1.250
  22815906.542    -1422166.821 6   -345545.02321        13.000           0.688
  23226664.339    -5286728.896 5  -4119527.27221        11.250           0.531
  20690121.175      135028.410 6    105216.01022        18.250           1.594
  21708855.073   -14873067.503 7 -11545624.90222        22.250           2.094
 91  6 24 16 50 14.9990000  0  6G18G11G 6G16G19G 2
  22742191.331    10129761.169 6   7893314.09121        14.750           0.938
  22671997.440    -8788966.891 6  -6848540.37521        18.250           1.250
  22808269.230    -1462318.603 6   -376832.11121        13.000           0.594
  23227343.315    -5283162.079 5  -4116747.96021        11.250           0.531
  20692132.105      145606.733 6    113458.84822        18.750           1.656
  21701353.894   -14912479.773 7 -11576335.74422        22.750           2.125
 91  6 24 16 50 29.9990000  0  5G18G11G16G19G 2
  22750882.448    10175437.740 6   7928906.16921        14.750           0.781
  22670522.628    -8796717.484 6  -6854579.79321        18.500           1.188
  23228048.089    -5279458.064 5  -4113861.72421        11.250           0.469
  20694158.847      156255.154 6    121756.31122        18.500           1.656
  21693870.308   -14951812.938 7 -11606984.95422        22.750           2.094
 91  6 24 16 50 44.9990000  0  5G18G11G16G19G 2
  22759585.878    10221172.257 6   7964543.41521        15.000           0.719
  22669078.222    -8804311.106 6  -6860496.89421        18.250           1.344
  23228779.831    -5275620.050 5  -4110871.08221        11.000           0.500
  20696197.386      166970.565 6    130105.97522        18.750           1.656
  21686398.526   -14991070.075 7 -11637574.91522        22.750           2.156
 91  6 24 16 50 59.9990000  0  5G18G11G16G19G 2
  22768300.714    10266967.012 6   8000227.60521        15.500           0.750
  22667662.456    -8811745.154 6  -6866289.65921        18.000           1.313
  23229535.284    -5271645.670 5  -4107774.16421        11.250           0.406
  20698252.862      177755.669 6    138509.94022        18.500           1.594
  21678943.753   -15030248.554 7 -11668103.58622        23.000           2.156
 91  6 24 16 51 14.9990000  0  5G18G11G16G19G 2
  22777026.159    10312820.031 6   8035957.18821        15.250           0.719
  22666277.753    -8819021.277 6  -6871959.36421        18.000           1.281
  23230316.511    -5267536.938 5  -4104572.56721        10.750           0.500
  20700313.862      188608.645 6    146966.79822        19.250           1.688
  21671502.909   -15069349.938 7 -11698572.18922        23.000           2.219
 91  6 24 16 51 29.9990000  0  5G18G11G16G19G 2
  22785763.995    10358733.540 6   8071733.89521        15.000           0.813
  22664924.511    -8826137.031 6  -6877504.10521        18.250           1.281
  23231125.886    -5263291.730 5  -4101264.62721        11.250           0.500
  20702394.823      199532.036 6    155478.52722        18.500           1.656
  21664076.644   -15108371.760 7 -11728978.79222        23.000           2.188
 91  6 24 16 51 44.9990000  0  5G18G11G16G19G 2
  22794513.417    10404707.341 6   8107557.57821        15.500           0.906
  22663599.956    -8833092.186 6  -6882923.70621        18.000           1.313
  23231958.206    -5258910.083 5  -4097850.36721        11.000           0.531
  20704486.230      210525.945 6    164045.20222        19.250           1.719
  21656667.855   -15147313.712 7 -11759323.15722        23.000           2.156
 91  6 24 16 51 59.9990000  0  5G18G11G16G19G 2
  22803271.964    10450741.880 6   8143428.60021        15.000           0.781
  22662309.120    -8839885.912 6  -6888217.52521        18.250           1.188
  23232819.956    -5254391.115 5  -4094329.10721        11.000           0.531
  20706592.792      221590.981 6    172667.30122        18.750           1.563
  21649272.198   -15186174.935 7 -11789604.61622        22.500           2.125
 91  6 24 16 52 14.9990000  0  5G18G11G16G19G 2
  22812042.995    10496833.915 6   8179344.41621        14.750           0.844
  22661045.511    -8846521.519 6  -6893388.13021        18.500           1.250
  23233703.808    -5249738.494 5  -4090703.69721        11.000           0.469
  20708709.542      232724.068 6    181342.42822        19.250           1.594
  21641891.737   -15224958.655 7 -11819825.68222        22.750           2.281
 91  6 24 16 52 29.9990000  0  5G18G11G16G19G 2
  22820825.401    10542983.796 6   8215305.30321        15.000           0.750
  22659811.925    -8852998.231 6  -6898434.91921        18.250           1.313
  23234616.019    -5244951.354 5  -4086973.47421        11.000           0.531
  20710842.730      243925.867 6    190071.09522        18.750           1.688
  21634525.940   -15263664.214 7 -11849985.85822        22.500           2.219
 91  6 24 16 52 44.9990000  0  5G18G11G16G19G 2
  22829618.253    10589191.551 6   8251311.29021        15.750           0.813
  22658612.058    -8859315.434 6  -6903357.41621        18.500           1.094
  23235552.206    -5240029.488 5  -4083138.26921        11.000           0.406
  20712986.417      255196.791 6    198853.62422        19.250           1.688
  21627175.847   -15302291.083 7 -11880084.69522        22.250           2.281
 91  6 24 16 52 59.9990000  0  5G18G11G16G19G 2
  22838423.198    10635456.014 6   8287361.47321        16.250           0.750
  22657440.136    -8865473.943 6  -6908156.24921        18.500           1.094
  23236513.276    -5234974.004 5  -4079198.94021        11.500           0.594
  20715146.776      266536.007 6    207689.36422        18.500           1.625
  21619840.792   -15340839.830 7 -11910122.66722        22.000           2.219
 91  6 24 16 53 14.9990000  0  5G18G11G16G19G 2
  22847236.284    10681775.805 6   8323454.77321        16.000           0.781
  22656295.495    -8871475.102 6  -6912832.47521        17.750           1.156
  23237498.894    -5229786.223 5  -4075156.52821        11.250           0.625
  20717313.948      277942.078 6    216577.20122        19.500           1.688
  21612519.519   -15379311.791 7 -11940100.80922        22.000           2.375
 91  6 24 16 53 29.9990000  0  5G18G11G16G19G 2
  22856062.230    10728151.697 6   8359591.78521        15.750           0.688
  22655185.855    -8877317.870 6  -6917385.28621        18.250           1.219
  23238511.995    -5224465.636 5  -4071010.61521        11.000           0.531
  20719498.862      289416.065 6    225517.95422        19.000           1.688
  21605212.948   -15417705.900 7 -11970018.28522        22.000           2.250
 91  6 24 16 53 44.9990000  0  5G18G11G16G19G 2
  22864898.456    10774584.002 6   8395772.75121        15.500           0.625
  22654104.136    -8883001.554 6  -6921814.13421        18.500           1.250
  23239551.128    -5219011.497 5  -4066760.66221        11.000           0.500
  20721694.855      300958.627 6    234512.15022        19.500           1.688
  21597921.347   -15456021.616 7 -11999874.67622        21.750           2.250
 91  6 24 16 53 59.9990000  0  5G18G11G16G19G 2
  22873745.026    10821069.248 6   8431994.96921        15.250           0.688
  22653052.862    -8888529.533 6  -6926121.65121        18.500           1.219
  23240614.308    -5213427.304 5  -4062409.35221        10.750           0.438
  20723903.737      312566.547 6    243557.27422        19.000           1.656
  21590643.792   -15494262.208 7 -12029672.53222        22.000           2.156
 91  6 24 16 54 14.9990000  0  5G18G11G16G19G 2
  22882601.370    10867611.652 6   8468261.72121        15.000           0.719
  22652029.659    -8893896.997 6  -6930304.08521        18.500           1.281
  23241702.823    -5207708.516 5  -4057953.17421        10.750           0.531
  20726125.878      324244.390 6    252656.88122        19.750           1.625
  21583382.855   -15532422.454 7 -12059407.77722        22.250           2.125
 91  6 24 16 54 29.9990000  0  5G18G11G16G19G 2
  22891467.206    10914208.848 6   8504571.17421        14.250           0.750
  22651039.870    -8899105.856 6  -6934362.93621        18.500           1.219
  23242815.683    -5201857.678 5  -4053394.08821        10.750           0.500
  20728360.925      335990.366 6    261809.58622        19.250           1.625
  21576136.105   -15570504.452 7 -12089082.05322        22.000           2.156
 91  6 24 16 54 44.9990000  0  5G18G11G16G19G 2
  22900346.480    10960863.070 6   8540925.05521        15.000           0.844
  22650078.573    -8904153.912 6  -6938296.49221        18.250           1.219
  23243955.073    -5195872.463 5  -4048730.30021        10.500           0.594
  20730609.651      347806.641 7    271017.06622        20.000           1.625
  21568905.276   -15608505.877 7 -12118693.54722        22.000           2.188
 91  6 24 16 54 59.9990000  0  5G18G11G16G19G 2
  22909233.808    11007569.379 6   8577319.53721        15.000           0.781
  22649146.394    -8909045.830 6  -6942108.37921        18.250           1.250
  23245116.815    -5189757.708 5  -4043965.56521        10.750           0.531
  20732872.964      359688.594 6    280275.72422        19.250           1.656
  21561688.761   -15646431.394 7 -12148245.88522        22.500           2.281
 91  6 24 16 55 14.9990000  0  5G18G11G16G19G 2
  22918132.495    11054331.650 6   8613757.60921        15.000           0.781
  22648246.706    -8913777.195 6  -6945795.15821        18.250           1.281
  23246305.917    -5183509.358 5  -4039096.74121        10.750           0.656
  20735144.995      371640.517 6    289588.90522        19.750           1.750
  21554486.706   -15684276.543 7 -12177735.60122        22.750           2.156
 91  6 24 16 55 29.9990000  0  5G18G11G16G19G 2
  22927041.144    11101144.684 6   8650235.25021        15.250           0.719
  22647375.948    -8918353.027 6  -6949360.75221        18.500           1.188
  23247521.628    -5177132.674 5  -4034127.91321        10.750           0.469
  20737432.589      383657.432 6    298952.72322        19.500           1.781
  21547298.972   -15722046.232 7 -12207166.51522        22.500           2.281
 91  6 24 16 55 44.9990000  0  5G18G11G16G19G 2
  22935959.308    11148012.823 6   8686755.82821        14.250           0.750
  22646537.612    -8922768.854 6  -6952801.66021        18.250           1.156
  23248758.901    -5170623.495 5  -4029055.85121        10.750           0.563
  20739732.300      395743.535 6    308370.45822        19.750           1.656
  21540125.745   -15759736.180 7 -12236535.29122        23.000           2.188
 91  6 24 16 55 59.9990000  0  5G18G11G16G19G 2
  22944886.706    11194933.773 6   8723317.55321        14.000           0.656
  22645724.519    -8927026.593 6  -6956119.37921        18.000           1.219
  23250023.831    -5163983.629 5  -4023881.94221        11.000           0.500
  20742049.253      407897.196 6    317840.84122        18.750           1.750
  21532969.253   -15797348.049 7 -12265843.22822        23.000           2.156
 91  6 24 16 56 14.9990000  0  5G18G11G16G19G 2
  22953826.698    11241906.748 6   8759919.81621        13.500           0.563
  22644945.386    -8931126.690 6  -6959314.27221        18.000           1.188
  23251310.956    -5157213.700 5  -4018606.69421        11.000           0.563
  20744369.784      420117.868 7    327363.43122        20.000           1.688
  21525827.659   -15834882.159 7 -12295090.57622        23.250           2.156
 91  6 24 16 56 29.9990000  0  5G18G11G16G19G 2
  22962775.808    11288934.523 6   8796564.77321        13.250           0.656
  22644195.753    -8935066.001 6  -6962383.86621        18.250           1.313
  23252624.940    -5150310.553 5  -4013227.63721        10.750           0.656
  20746711.815      432408.718 6    336940.70922        19.250           1.688
  21518699.050   -15872335.424 7 -12324274.92622        23.000           2.188
 91  6 24 16 56 44.9990000  0  5G18G11G16G19G 2
  22971733.745    11336012.049 6   8833248.51421        13.250           0.750
  22643476.526    -8938849.553 6  -6965332.09321        18.250           1.219
  23253962.487    -5143279.690 5  -4007749.05421        11.000           0.563
  20749060.722      444764.828 7    346568.83722        20.000           1.688
  21511587.253   -15909712.733 7 -12353400.09222        23.000           2.281
 91  6 24 16 56 59.9990000  0  5G18G11G16G19G 2
  22980702.925    11383140.129 6   8869971.63121        13.250           0.688
  22642787.808    -8942476.218 6  -6968158.07021        18.500           1.219
  23255326.675    -5136120.328 5  -4002170.35021        11.500           0.563
  20751425.370      457187.206 6    356248.60422        19.500           1.781
  21504489.472   -15947013.057 7 -12382465.26522        23.000           2.156
 91  6 24 16 57 14.9990000  0  5G18G11G16G19G 2
  22989680.362    11430319.624 6   8906734.82021        13.250           0.813
  22642126.386    -8945944.925 6  -6970860.96021        18.250           1.156
  23256710.847    -5128831.522 5  -3996490.77621        11.000           0.563
  20753800.120      469676.838 6    365980.77822        19.750           1.719
  21497404.714   -15984235.206 7 -12411469.52722        22.750           2.250
 91  6 24 16 57 29.9990000  0  5G18G11G16G19G 2
  22998667.589    11477545.147 6   8943533.87021        13.250           0.750
  22641495.206    -8949260.481 6  -6973444.51821        18.000           1.250
  23258124.495    -5121417.931 5  -3990713.97921        11.250           0.594
  20756190.151      482228.928 6    375761.61622        19.750           1.688
  21490336.730   -16021383.925 7 -12440416.57122        22.750           2.188
 91  6 24 16 57 44.9990000  0  5G18G11G16G19G 2
  23007662.659    11524824.261 6   8980374.67621        12.750           0.719
  22640894.284    -8952415.311 6  -6975902.82921        18.000           1.219
  23259558.425    -5113872.610 5  -3984834.52321        11.000           0.438
  20758591.355      494851.086 6    385597.05322        19.750           1.719
  21483281.862   -16058451.404 7 -12469300.30922        22.750           2.250
 91  6 24 16 57 59.9990000  0  5G18G11G16G19G 2
  23016668.519    11572150.995 6   9017252.58321        12.750           0.813
  22640324.370    -8955415.005 6  -6978240.25921        18.500           1.156
  23261019.065    -5106201.207 5  -3978856.82621        10.750           0.531
  20761004.503      507537.731 7    395482.74322        20.000           1.750
  21476243.542   -16095443.233 7 -12498125.10122        22.750           2.344
 91  6 24 16 58 14.9990000  0  5G18G11G16G19G 2
  23025684.409    11619528.723 6   9054170.23321        12.000           0.688
  22639784.628    -8958256.114 6  -6980454.11621        18.500           1.250
  23262500.940    -5098400.465 5  -3972778.34521        10.750           0.531
  20763432.612      520292.382 6    405421.42322        19.750           1.781
  21469218.526   -16132355.987 7 -12526888.27722        23.000           2.406
 91  6 24 16 58 29.9990000  0  5G18G11G16G19G 2
  23034709.636    11666953.821 6   9091124.79621        12.000           0.625
  22639273.167    -8960941.796 6  -6982546.85821        18.500           1.156
  23264012.589    -5090473.863 5  -3966601.78421        11.000           0.469
  20765871.933      533111.771 6    415410.54222        19.500           1.625
  21462209.808   -16169192.716 7 -12555592.21422        23.250           2.406
 91  6 24 16 58 44.9990000  0  5G18G11G16G19G 2
  23043743.573    11714427.653 6   9128117.34421        12.250           0.594
  22638790.847    -8963470.330 6  -6984517.15721        18.500           1.219
  23265544.300    -5082419.936 5  -3960326.02021        10.500           0.531
  20768323.003      545997.755 6    425451.56322        19.250           1.719
  21455215.167   -16205951.667 7 -12584235.54222        23.500           2.375
 91  6 24 16 58 59.9990000  0  5G18G11G16G19G 2
  23052786.315    11761949.849 6   9165147.58021        12.250           0.531
  22638340.323    -8965841.914 6  -6986365.14621        18.500           1.219
  23267102.698    -5074239.104 5  -3953951.36421        10.750           0.500
  20770791.730      558950.120 6    435544.31122        18.000           1.750
  21448233.573   -16242632.948 7 -12612818.34722        23.750           2.344
 91  6 24 16 59 14.9990000  0  5G18G11G16G19G 2
  23061838.565    11809519.777 6   9202215.00721        12.750           0.563
  22637918.542    -8968057.003 6  -6988091.19521        18.250           1.125
  23268683.620    -5065932.046 5  -3947478.36221        11.000           0.500
  20773265.917      571968.253 6    445688.30122        19.250           1.719
  21441268.644   -16279236.879 7 -12641340.88222        24.000           2.406
 91  6 24 16 59 29.9990000  0  5G18G11G16G19G 2
  23070901.042    11857136.508 6   9239318.91021        13.250           0.625
  22637524.276    -8970116.012 6  -6989695.62221        18.000           1.250
  23270281.394    -5057498.905 5  -3940907.09821        11.000           0.469
  20775756.003      585051.822 6    455883.28222        19.000           1.750
  21434319.917   -16315763.781 7 -12669803.39222        24.000           2.375
 91  6 24 16 59 44.9990000  0  5G18G11G16G19G 2
  23079971.800    11904799.056 6   9276458.51421        13.000           0.563
  22637163.495    -8972019.943 6  -6991179.21021        18.250           1.188
  23271915.058    -5048941.140 5  -3934238.72921        10.750           0.531
  20778257.933      598199.823 6    466128.46922        19.000           1.813
  21427381.355   -16352214.608 7 -12698206.62522        24.250           2.438
 91  6 24 16 59 59.9990000  0  5G18G11G16G19G 2
  23089050.339    11952507.806 6   9313634.11121        12.750           0.625
  22636831.808    -8973767.976 6  -6992541.31421        18.500           1.188
  23273566.730    -5040257.992 5  -3927472.67421        10.500           0.469
  20780771.675      611413.127 6    476424.54322        19.000           1.750
  21420459.714   -16388588.639 7 -12726550.01422        24.250           2.438
 91  6 24 17  0 14.9990000  0  5G18G11G16G19G 2
  23098137.167    12000264.200 6   9350846.83721        12.750           0.688
  22636528.987    -8975358.723 6  -6993780.86021        18.000           1.156
  23275244.917    -5031448.560 5  -3920608.20721        10.750           0.594
  20783298.737      624693.198 6    486772.63822        18.750           1.750
  21413553.448   -16424884.323 7 -12754832.35222        24.750           2.469
 91  6 24 17  0 29.9990000  0  5G18G11G16G19G 2
  23107233.980    12048065.440 6   9388094.49821        12.750           0.656
  22636255.730    -8976794.662 6  -6994899.78521        18.000           1.125
  23276939.323    -5022515.247 5  -3913647.22021        10.500           0.500
  20785840.214      638037.683 6    497170.92822        18.250           1.750
  21406661.534   -16461103.723 7 -12783055.25222        24.500           2.438
 91  6 24 17  0 44.9990000  0  5G18G11G16G19G 2
  23116340.331    12095913.183 6   9425378.39021        12.250           0.656
  22636011.456    -8978073.794 6  -6995896.51421        17.750           1.281
  23278667.503    -5013456.253 5  -3906588.27821        10.500           0.500
  20788390.550      651448.635 6    507621.01322        18.750           1.781
  21399784.120   -16497244.957 7 -12811217.24223        24.750           2.500
 91  6 24 17  0 59.9990000  0  5G18G11G16G19G 2
  23125452.909    12143809.000 6   9462699.73021        12.750           0.625
  22635797.222    -8979193.933 6  -6996769.35121        17.750           1.344
  23280414.151    -5004269.782 5  -3899430.01121        10.500           0.469
  20790955.198      664928.062 6    518124.45222        18.750           1.750
  21392921.683   -16533305.851 7 -12839316.63023        24.500           2.500
 91  6 24 17  1 14.9990000  0  5G18G11G16G19G 2
  23134576.394    12191744.981 6   9500052.37521        13.000           0.688
  22635613.862    -8980163.086 6  -6997524.55121        18.000           1.219
  23282188.784    -4994964.116 5  -3892178.87921        10.750           0.563
  20793530.706      678468.052 6    528675.08322        18.750           1.813
  21386073.784   -16569294.322 7 -12867359.58222        24.250           2.469
 91  6 24 17  1 29.9990000  0  5G18G11G16G19G 2
  23143704.815    12239725.815 6   9537439.97821        13.000           0.625
  22635458.870    -8980976.399 6  -6998158.30921        17.750           1.156
  23283979.675    -4985534.208 5  -3884830.92821        10.750           0.500
  20796121.636      692073.429 6    539276.66922        18.500           1.719
  21379240.214   -16605205.498 7 -12895342.30823        24.250           2.594
 91  6 24 17  1 44.9990000  0  5G18G11G16G19G 2
  23152845.480    12287748.588 6   9574860.26121        13.500           0.469
  22635333.698    -8981636.374 6  -6998672.58221        17.750           1.094
  23285797.323    -4975983.185 5  -3877388.59421        11.000           0.469
  20798722.565      705741.770 6    549927.31522        18.500           1.688
  21372419.628   -16641041.661 7 -12923266.58022        24.000           2.375
 91  6 24 17  1 59.9990000  0  5G18G11G16G19G 2
  23161991.628    12335813.680 6   9612313.53021        13.750           0.500
  22635238.214    -8982142.641 6  -6999067.07921        18.250           1.250
  23287641.581    -4966310.672 5  -3869851.59521        10.500           0.563
  20801336.081      719473.308 6    560627.20222        18.250           1.813
  21365615.378   -16676802.374 7 -12951132.06023        23.750           2.563
 91  6 24 17  2 14.9990000  0  5G18G11G16G19G 2
  23171145.386    12383920.364 6   9649799.21721        13.250           0.563
  22635170.089    -8982495.285 6  -6999341.88421        18.250           1.250
  23289502.183    -4956516.799 5  -3862220.04721        10.750           0.500
  20803960.065      733268.180 6    571376.44622        18.500           1.813
  21358824.448   -16712487.566 7 -12978938.69622        23.750           2.406
 91  6 24 17  2 29.9990000  0  5G18G11G16G19G 2
  23180308.753    12432068.577 6   9687317.23321        12.750           0.563
  22635131.620    -8982694.336 6                        18.000
  23291390.675    -4946601.931 5  -3854494.19721        10.500           0.406
  20806598.159      747126.330 6    582174.99822        18.000           1.750
  21352047.323   -16748097.263 7 -13006686.50422        23.750           2.438
 91  6 24 17  2 44.9990000  0  5G18G11G16G19G 2
  23189479.980    12480261.747 6   9724870.29321        13.000           0.500
  22635126.112    -8982736.115 6                        18.250
  23293299.456    -4936562.771 5  -3846671.50621        10.500           0.469
  20809247.503      761051.332 6    593025.64122        18.250           1.844
  21345285.401   -16783627.863 7 -13034372.67823        23.750           2.531
 91  6 24 17  2 59.9990000  0  5G18G11G16G19G 2
  23198659.323    12528498.347 6   9762457.18321        12.750           0.625
  22635146.511    -8982621.853 6                        18.250
  23295234.183    -4926400.622 5  -3838752.97021        10.500           0.375
  20811909.237      775042.054 6    603927.49422        17.750           1.844
  21338539.261   -16819080.368 7 -13061998.00023        23.750           2.656
 91  6 24 17  3 14.9990000  0  5G18G11G16G19G 2
  23207843.526    12576773.751 6   9800074.30321        12.250           0.625
  22635197.472    -8982356.066 6                        18.500
  23297191.589    -4916120.324 5  -3830742.36921        10.750           0.344
  20814583.558      789094.121 6    614877.15022        18.250           1.844
  21331808.136   -16854459.139 7 -13089565.86023        23.750           2.656
 91  6 24 17  3 29.9990000  0  5G18G11G16G19G 2
  23217040.058    12625095.370 6   9837727.43421        12.500           0.656
  22635277.605    -8981930.901 6                        18.500
  23299170.628    -4905713.929 5  -3822633.51221        10.750           0.469
  20817271.339      803215.413 6    625880.75122        17.750           1.844
  21325091.362   -16889756.293 7 -13117070.12823        24.000           2.594
 91  6 24 17  3 44.9990000  0  5G18G11G16G19G 2
  23226243.417    12673452.520 6   9875408.25421        13.000           0.656
  22635387.011    -8981356.919 6  -6998454.89421        18.250           1.219
  23301173.815    -4895192.136 5  -3814434.73221        10.750           0.469
  20819968.612      817395.407 6    636930.08822        18.000           1.906
  21318387.190   -16924982.342 7 -13144518.99123        23.750           2.594
 91  6 24 17  3 59.9990000  0  5G18G11G16G19G 2
  23235452.980    12721849.158 6   9913119.85821        13.750           0.656
  22635526.440    -8980630.044 6  -6997888.50421        18.250           1.156
  23303199.105    -4884551.300 5  -3806143.20221        10.750           0.531
  20822679.722      831638.165 6    648028.32622        17.750           1.844
  21311698.894   -16960133.028 7 -13171909.12923        23.750           2.656
 91  6 24 17  4 14.9990000  0  5G18G11G16G19G 2
  23244670.120    12770286.868 6   9950863.46921        13.750           0.594
  22635692.581    -8979748.262 6  -6997201.40721        17.750           1.094
  23305245.675    -4873789.574 5  -3797757.45621        10.500           0.469
  20825401.995      845945.849 6    659177.16022        18.000           1.906
  21305025.206   -16995206.158 7 -13199238.83323        24.250           2.688
 91  6 24 17  4 29.9990000  0  5G18G11G16G19G 2
  23253894.589    12818767.976 6   9988640.92121        13.250           0.563
  22635892.933    -8978708.887 6  -6996391.51321        18.000           1.188
  23307316.386    -4862904.330 5  -3789275.47921        10.750           0.531
  20828138.347      860321.072 6    670378.61922        17.750           1.844
  21298365.253   -17030198.975 7 -13226505.95423        24.000           2.813
 91  6 24 17  4 44.9990000  0  5G18G11G16G19G 2
  23263127.565    12867287.197 6  10026448.05821        12.750           0.563
  22636118.440    -8977517.290 6  -6995463.00821        18.000           1.063
  23309411.073    -4851901.185 5  -3780701.63221        10.750           0.438
  20830885.253      874758.558 6    681628.60322        18.000           1.844
  21291721.167   -17065116.907 7 -13253714.72623        24.250           2.750
 91  6 24 17  4 59.9990000  0  5G18G11G16G19G 2
  23272367.581    12915847.742 6  10064287.38021        12.750           0.531
  22636374.886    -8976170.189 6  -6994413.32821        18.000           1.219
  23311529.058    -4840776.696 5  -3772033.21921        10.750           0.500
  20833645.730      889261.781 6    692929.80522        18.000           1.844
  21285090.105   -17099956.376 7 -13280862.36323        24.000           2.781
 91  6 24 17  5 14.9990000  0  5G18G11G16G19G 2
  23281618.011    12964447.699 6  10102157.42721        12.250           0.406
  22636659.847    -8974669.057 6  -6993243.62721        17.750           1.188
  23313668.644    -4829532.486 5  -3763271.51821        11.000           0.438
  20836416.198      903829.300 6    704281.11122        18.500           1.844
  21278476.597   -17134718.766 7 -13307949.92523        23.750           2.750
 91  6 24 17  5 29.9990000  0  5G18G11G16G19G 2
  23290871.815    13013082.743 5  10140054.80621        11.750           0.469
  22636973.722    -8973018.182 6  -6991957.24621        18.000           1.094
  23315830.698    -4818173.418 5  -3754420.34321        11.000           0.469
  20839203.081      918456.773 6    715679.13222        18.000           1.750
  21271874.597   -17169408.129 7 -13334980.59023        24.000           2.813
 91  6 24 17  5 44.9990000  0  5G18G11G16G19G 2
  23300133.745    13061752.723 6  10177979.39921        12.000           0.469
  22637317.737    -8971217.214 6  -6990553.90721        18.000           1.125
  23318012.511    -4806699.497 5  -3745479.64921        10.750           0.438
  20841995.987      933144.617 6    727124.19322        18.250           1.719
  21265287.761   -17204024.328 7 -13361954.24523        24.250           2.750
 91  6 24 17  5 59.9990000  0  5G18G11G16G19G 2
  23309402.355    13110462.784 5  10215935.23021        11.750           0.563
  22637689.058    -8969260.655 6  -6989029.32621        17.750           1.125
  23320218.784    -4795105.322 5  -3736445.26521        10.750           0.406
  20844803.573      947898.207 6    738620.48922        18.250           1.750
  21258715.214   -17238561.837 7 -13388866.58323        24.000           2.781
 91  6 24 17  6 14.9990000  0  5G18G11G16G19G 2
  23318678.456    13159213.272 5  10253922.54921        11.500           0.469
  22638092.995    -8967148.220 6  -6987383.28121        18.000           1.219
  23322447.175    -4783390.951 5  -3727317.21221        10.500           0.406
  20847623.089      962718.079 6    750168.42922        18.500           1.781
  21252157.847   -17273020.135 7 -13415717.19523        24.000           2.781
 91  6 24 17  6 29.9990000  0  5G18G11G16G19G 2
  23327964.253    13207996.887 6  10291935.68321        12.000           0.438
  22638520.698    -8964886.941 6  -6985621.26221        17.750           1.188
  23324700.581    -4771563.200 5  -3718100.80321        10.500           0.375
  20850455.323      977597.287 6    761762.60522        18.250           1.781
  21245615.151   -17307406.125 7 -13442511.46723        24.000           2.688
 91  6 24 17  6 44.9990000  0  5G18G11G16G19G 2
  23337253.136    13256816.757 5  10329977.08821        11.500           0.500
  22638980.198    -8962473.201 6  -6983740.43321        17.750           1.188
  23326971.636    -4759618.810 5  -3708793.51821        10.250           0.438
  20853298.440      992539.498 6    773405.87922        18.500           1.781
  21239086.175   -17341715.974 7 -13469246.40823        24.250           2.750
 91  6 24 17  6 59.9990000  0  5G18G11G16G19G 2
  23346551.573    13305679.197 5  10368051.64221        11.250           0.469
  22639470.401    -8959900.691 6  -6981735.89321        17.750           1.219
  23329269.261    -4747551.792 5  -3699390.68121        10.500           0.406
  20856154.776     1007551.003 6    785103.14922        18.250           1.781
  21232571.401   -17375943.419 7 -13495917.13723        24.250           2.781
 91  6 24 17  7 14.9990000  0  5G18G11G16G19G 2
  23355855.909    13354577.549 5  10406154.18821        10.500           0.469
  22639988.417    -8957175.763 6  -6979612.59021        18.000           1.125
  23331588.105    -4735368.499 5  -3689897.24621        10.500           0.375
  20859022.284     1022625.273 6    796849.32322        18.500           1.781
  21226072.745   -17410094.801 7 -13522528.59523        24.250           2.750
 91  6 24 17  7 29.9990000  0  5G18G11G16G19G 2
  23365168.730    13403510.705 5  10444283.84321        10.500           0.438
  22640536.261    -8954299.337 6  -6977371.22321        18.000           1.219
  23333928.761    -4723069.776 5  -3680313.84421        10.750           0.375
  20861904.378     1037761.821 6    808644.02622        18.250           1.625
  21219588.636   -17444170.659 7 -13549081.20623        24.500           2.688
 91  6 24 17  7 44.9990000  0  5G18G11G16G19G 2
  23374488.237    13452479.762 5  10482441.48421        10.750           0.438
  22641113.519    -8951270.375 6  -6975011.00521        18.000           1.250
  23336289.690    -4710655.001 5  -3670640.03121        10.750           0.344
  20864796.081     1052961.729 6    820488.10422        18.250           1.719
  21213120.073   -17478169.711 7 -13575573.96623        24.250           2.625
 91  6 24 17  7 59.9990000  0  5G18G11G16G19G 2
  23383811.589    13501482.830 5  10520625.62121        10.250           0.438
  22641718.175    -8948090.471 6  -6972533.17621        17.750           1.281
  23338674.175    -4698126.095 5  -3660877.28621        11.000           0.375
  20867700.362     1068223.399 6    832380.30622        18.250           1.625
  21206664.331   -17512093.657 7 -13602008.20523        24.500           2.781
 91  6 24 17  8 14.9990000  0  5G18G11G16G19G 2
  23393143.011    13550523.378 5  10558838.97621        10.750           0.500
  22642352.089    -8944755.755 6  -6969934.70121        17.500           1.188
  23341081.956    -4685479.158 5  -3651022.57421        10.500           0.344
  20870617.284     1083550.723 6    844323.67122        18.250           1.719
  21200223.745   -17545938.498 7 -13628380.80323        24.750           2.688
 91  6 24 17  8 29.9990000  0  5G18G11G16G19G 2
  23402482.948    13599600.385 5  10597080.73021        11.250           0.469
  22643015.370    -8941267.138 6  -6967216.30721        17.750           1.219
  23343511.105    -4672715.491 5  -3641076.89321        10.750           0.344
  20873549.245     1098942.874 6    856317.54922        17.250           1.781
  21193798.737   -17579705.063 7 -13654692.40323        24.750           2.781
 91  6 24 17  8 44.9990000  0  5G18G11G16G19G 2
  23411828.769    13648715.166 5  10635351.93921        11.750           0.469
  22643709.347    -8937623.420 6  -6964377.05321        17.500           1.219
  23345960.667    -4659834.054 5  -3631039.43421        10.500           0.344
  20876488.175     1114401.207 6    868362.99122        18.000           1.750
  21187388.362   -17613391.828 7 -13680941.82523        24.750           2.750
 91  6 24 17  8 59.9990000  0  5G18G11G16G19G 2
  23421183.253    13697866.426 5  10673651.54221        11.250           0.375
  22644432.589    -8933825.431 6  -6961417.60021        17.750           1.156
  23348434.776    -4646835.738 5  -3620910.90821        10.250           0.406
  20879443.112     1129924.942 6    880459.40122        17.500           1.750
  21180993.042   -17646999.756 7 -13707129.81323        25.000           2.719
 91  6 24 17  9 14.9990000  0  5G18G11G16G19G 2
  23430541.534    13747050.168 5  10711976.49021        11.250           0.469
  22645183.495    -8929876.967 6  -6958340.88721        17.750           1.219
  23350929.050    -4633724.397 5  -3610694.30321         9.750           0.344
  20882408.245     1145510.335 6    892603.85022        18.250           1.625
  21174611.690   -17680532.364 7 -13733259.11523        25.000           2.750
 91  6 24 17  9 29.9990000  0  5G18G11G16G19G 2
  23439908.933    13796267.362 5  10750327.48121        11.000           0.469
  22645963.558    -8925776.939 6  -6955146.07321        17.500           1.219
  23353446.198    -4620499.154 5  -3600388.97121         9.500           0.313
  20885385.355     1161158.485 6    904797.20122        18.250           1.750
  21168245.276   -17713988.530 7 -13759328.84823        25.250           2.719
 91  6 24 17  9 44.9990000  0  5G18G11G16G19G 2
  23449279.800    13845520.044 5  10788706.12121        10.500           0.500
  22646772.995    -8921522.832 6  -6951831.18921        17.500           1.281
  23355984.972    -4607157.830 5  -3589993.16121         9.000           0.344
  20888375.589     1176872.077 6    917041.55122        18.500           1.625
  21161893.417   -17747365.485 7 -13785336.85923        25.250           2.563
 91  6 24 17  9 59.9990000  0  5G18G11G16G19G 2
  23458657.690    13894808.890 5  10827112.93321        10.250           0.531
  22647612.847    -8917113.831 6  -6948395.61321        17.500           1.281
  23358544.948    -4593699.626 5  -3579506.29521         8.750           0.281
  20891380.284     1192652.089 6    929337.65622        18.500           1.750
  21155556.167   -17780662.352 7 -13811282.46523        25.500           2.750
 91  6 24 17 10 14.9990000  0  5G18G11G16G19G 2
  23468044.089    13944129.388 5  10865544.40421        10.000           0.531
  22648479.847    -8912554.188 6  -6944842.65621        17.500           1.219
  23361127.167    -4580129.060 5  -3568931.85921         8.750           0.344
  20894392.886     1208494.241 6    941682.18322        18.500           1.844
  21149234.472   -17813883.341 7 -13837168.94823        25.500           2.656
 91  6 24 17 10 29.9990000  0  5G18G11G16G19G 2
  23477436.948    13993484.289 5  10904002.69921        10.000           0.469
  22649377.464    -8907841.134 6  -6941170.15621        17.500           1.063
  23363730.214    -4566443.471 5  -3558267.78821         8.250           0.375
  20897419.784     1224401.287 6    954077.27322        18.750           1.688
  21142929.159   -17847025.614 7 -13862994.08823        25.250           2.656
 91  6 24 17 10 44.9990000  0  5G18G11G16G19G 2
  23486835.128    14042871.103 5  10942485.84821         9.750           0.344
  22650303.589    -8902977.024 6  -6937379.95121        17.750           1.188
  23366357.183    -4552645.653 5  -3547516.29121         8.500           0.438
  20900459.519     1240371.047 6    966521.23222        18.250           1.688
  21136637.722   -17880091.255 7 -13888759.51923        25.500           2.594
 91  6 24 17 10 59.9990000  0  5G18G11G16G19G 2
  23496240.159    14092293.223 5  10980996.52421        10.500           0.469
  22651259.776    -8897958.490 6  -6933469.42221        18.000           1.094
  23369005.769    -4538732.192 5  -3536674.66721         8.750           0.281
  20903511.394     1256406.820 6    979016.62422        18.250           1.719
  21130358.628   -17913076.846 7 -13914462.57523        25.000           2.719
 91  6 24 17 11 14.9990000  0  5G18G11G16G19G 2
  23505651.503    14141752.762 5  11019536.36321        10.500           0.406
  22652242.011    -8892782.907 6  -6929436.51221        17.500           1.188
  23371675.815    -4524700.552 5  -3525740.96121         9.000           0.344
  20906575.847     1272511.533 6    991565.73422        18.250           1.719
  21124098.409   -17945979.526 7 -13940101.02223        25.500           2.625
 91  6 24 17 11 29.9990000  0  5G18G11G16G19G 2
  23515070.495    14191243.260 5  11058100.31821        11.000           0.563
  22653256.675    -8887456.561 6  -6925286.12521        18.000           1.063
  23374366.917    -4510557.361 5  -3514720.33021         9.250           0.313
  20909656.362     1288679.030 6   1004163.76622        17.000           1.688
  21117852.448   -17978805.391 7 -13965679.61223        25.250           2.563
 91  6 24 17 11 44.9990000  0  5G18G11G16G19G 2
  23524492.050    14240762.501 5  11096686.68021        11.500           0.438
  22654298.120    -8881981.349 6  -6921019.73621        18.000           1.156
  23377081.300    -4496304.756 5  -3503614.43821         9.250           0.438
  20912740.183     1304907.446 6   1016809.28022        18.000           1.656
  21111619.026   -18011556.299 7 -13991199.80123        25.000           2.500
 91  6 24 17 11 59.9990000  0  5G18G11G16G19G 2
  23533920.855    14290313.259 5  11135297.59121        11.000           0.469
  22655367.331    -8876354.457 6  -6916635.15821        17.750           1.125
  23379813.097    -4481939.737 5  -3492420.95321         9.750           0.313
  20915839.144     1321199.697 6   1029504.52722        17.750           1.594
  21105402.503   -18044229.148 7 -14016659.15823        25.250           2.500
 91  6 24 17 12 14.9990000  0  5G18G11G16G19G 2
  23543359.245    14339895.748 5  11173933.22721        10.750           0.531
  22656467.940    -8870575.575 6  -6912132.13821        18.000           1.031
  23382565.730    -4467462.642 5  -3481140.14921         9.500           0.406
  20918952.612     1337556.208 6   1042249.84622        17.750           1.625
  21099198.753   -18076823.701 7 -14042057.50223        25.500           2.500
 91  6 24 17 12 29.9990000  0  5G18G11G16G19G 2
  23552798.440    14389509.569 5  11212593.27721        10.250           0.469
  22657598.761    -8864644.876 6  -6907510.82921        18.500           1.125
  23385345.503    -4452873.551 5  -3469772.07821         9.750           0.344
  20922077.456     1353976.839 6   1055045.13322        18.000           1.656
  21093011.901   -18109340.017 7 -14067394.88423        25.000           2.531
 91  6 24 17 12 44.9990000  0  5G18G11G16G19G 2
  23562247.026    14439153.314 5  11251276.63121        10.250           0.500
  22658756.261    -8858563.562 6  -6902772.15421        18.500           1.188
  23388143.706    -4438173.742 5  -3458317.71521         9.500           0.406
  20925213.831     1370460.563 6   1067889.57822        17.750           1.625
  21086837.995   -18141779.116 7 -14092672.10023        25.000           2.594
 91  6 24 17 12 59.9990000  0  5G18G11G16G19G 2
  23571699.065    14488828.292 5  11289984.33521        10.250           0.500
  22659941.120    -8852330.197 6  -6897914.99821        18.250           1.063
  23390960.815    -4423361.964 5  -3446776.11721         9.250           0.375
  20928366.534     1387008.883 6   1080784.35822        17.250           1.688
  21080681.284   -18174139.334 7 -14117887.85223        25.500           2.563
 91  6 24 17 13 14.9990000  0  5G18G11G16G19G 2
  23581157.761    14538534.600 5  11328716.44521        10.000           0.500
  22661154.792    -8845944.314 6  -6892938.99821        17.750           1.156
  23393801.675    -4408438.183 5  -3435147.25121         9.250           0.531
  20931523.433     1403622.170 6   1093729.76422        17.750           1.688
  21074537.339   -18206420.253 7 -14143041.80923        25.250           2.594
 91  6 24 17 13 29.9990000  0  5G18G11G16G19G 2
  23590620.847    14588272.732 5  11367473.33921         9.750           0.563
  22662401.409    -8839405.578 6  -6887843.89621        18.000           1.031
  23396662.222    -4393401.809 5  -3423430.63521         9.000           0.281
  20934698.690     1420300.880 6   1106726.14522        17.750           1.625
  21068410.073   -18238621.122 7 -14168133.39123        25.250           2.594
 91  6 24 17 13 44.9990000  0  5G18G11G16G19G 2
  23600093.323    14638040.449 5  11406253.30921        10.000           0.531
  22663672.761    -8832716.076 6  -6882631.31221        18.000           1.125
  23399542.495    -4378255.345 5  -3411628.22721         9.000           0.406
  20937884.815     1437043.182 6   1119772.07922        17.750           1.625
  21062297.815   -18270743.916 7 -14193164.13723        25.250           2.656
 91  6 24 17 13 59.9990000  0  5G18G11G16G19G 2
  23609568.331    14687839.479 5  11445057.66421        10.000           0.438
  22664974.058    -8825873.743 6  -6877299.63821        17.750           0.969
  23402448.230    -4362996.813 5  -3399738.51021         9.000           0.375
  20941084.261     1453851.150 6   1132869.18122        18.000           1.594
  21056199.167   -18302786.461 7 -14218132.34923        25.000           2.750
 91  6 24 17 14 14.9990000  0  5G18G11G16G19G 2
  23619052.542    14737669.095 5  11483885.85121        10.000           0.438
  22666306.308    -8818879.192 6  -6871849.35721        17.750           1.125
  23405371.323    -4347627.176 5  -3387762.19921         9.000           0.500
  20944294.198     1470724.466 6   1146017.21022        18.500           1.656
  21050116.917   -18334749.223 7 -14243038.39523        25.000           2.781
 91  6 24 17 14 29.9990000  0  5G18G11G16G19G 2
  23628540.901    14787532.200 5  11522740.14921        10.000           0.375
  22667667.183    -8811729.212 6  -6866277.95221        18.000           1.125
  23408320.495    -4332143.143 5  -3375696.76421         9.250           0.406
  20947519.464     1487666.448 6   1159218.74422        17.750           1.625
  21044051.011   -18366628.943 7 -14267879.73123        25.000           2.781
 91  6 24 17 14 44.9990000  0  5G18G11G16G19G 2
  23638034.058    14837424.863 5  11561617.48021         9.750           0.313
  22669055.972    -8804427.652 6  -6860588.43721        17.750           1.063
  23411286.136    -4316548.912 5  -3363545.44721         9.250           0.406
  20950753.901     1504673.383 6   1172470.88422        18.250           1.563
  21037999.737   -18398429.244 7 -14292659.18523        25.000           2.813
 91  6 24 17 14 59.9990000  0  5G18G11G16G19G 2
  23647534.362    14887346.355 5  11600517.29121         9.250           0.344
  22670475.808    -8796974.987 6  -6854781.17921        18.000           1.125
  23414276.792    -4300845.191 5  -3351308.82821         9.500           0.313
  20954002.792     1521744.915 6   1185773.36022        17.750           1.625
  21031964.003   -18430150.596 7 -14317377.12123        24.750           2.844
 91  6 24 17 15 14.9990000  0  5G18G11G16G19G 2
  23657039.659    14937298.772 5  11639441.17221         9.250           0.281
  22671922.386    -8789369.234 6  -6848854.62421        17.500           1.094
  23417284.011    -4285029.970 5  -3338985.30921        10.000           0.438
  20957262.909     1538883.028 6   1199127.71922        18.000           1.594
  21025942.511   -18461790.714 7 -14342031.75623        24.750           2.719
 91  6 24 17 15 29.9990000  0  5G18G11G16G19G 2
  23666551.792    14987280.744 5  11678388.07821         9.000           0.313
  22673397.151    -8781611.309 6  -6842809.51021        17.750           1.125
  23420314.409    -4269104.431 5  -3326575.84021        10.250           0.438
  20960539.644     1556086.952 6   1212533.35922        17.750           1.625
  21019936.550   -18493350.519 7 -14366623.80923        25.000           2.844
 91  6 24 17 15 44.9990000  0  5G18G11G16G19G 2
  23676068.401    15037288.739 5  11717355.27321         9.000           0.281
  22674903.050    -8773704.666 6  -6836648.50821        18.000           1.125
  23423365.487    -4253072.161 5  -3314083.19921        10.250           0.469
  20963824.487     1573353.343 6   1225987.67622        17.500           1.688
  21013945.386   -18524833.150 7 -14391155.72523        25.000           2.938
 91  6 24 17 15 59.9990000  0  5G18G11G16G19G 2
  23685590.175    15087327.803 5  11756346.67821         9.250           0.375
  22676435.464    -8765644.219 6  -6830367.65021        18.000           1.094
  23426439.042    -4236928.164 5  -3301503.51921        10.000           0.469
  20967123.417     1590687.356 6   1239494.68622        17.000           1.625
  21007970.394   -18556233.284 7 -14415623.36023        25.250           2.875
 91  6 24 17 16 14.9990000  0  5G18G11G16G19G 2
  23695117.644    15137395.311 5  11795360.25921        10.500           0.250
  22677996.894    -8757432.179 6  -6823968.67521        17.500           1.125
  23429530.659    -4220674.816 5  -3288838.60921        10.000           0.438
  20970432.628     1608086.866 6   1253052.73322        17.500           1.625
  21002009.378   -18587553.121 7 -14440028.42123        25.000           2.938
 91  6 24 17 16 29.9990000  0  5G18G11G16G19G 2
  23704649.409    15187490.075 5  11834395.06321        11.000           0.406
  22679591.823    -8749069.853 6  -6817452.59121        18.000           0.969
  23432642.620    -4204313.577 5  -3276089.63421        10.000           0.469
  20973758.292     1625550.779 6   1266660.96822        17.250           1.594
  20996065.409   -18618793.729 7 -14464371.74923        25.000           2.875
 91  6 24 17 16 44.9990000  0  5G18G11G16G19G 2
  23714188.862    15237614.267 5  11873452.80221        11.250           0.281
  22681212.089    -8740554.861 6  -6810817.54421        17.750           1.031
  23435777.339    -4187842.160 5  -3263254.80321        10.000           0.438
  20977092.620     1643081.487 6   1280321.24522        17.500           1.625
  20990136.823   -18649952.651 7 -14488651.42723        25.250           2.906
 91  6 24 17 16 59.9990000  0  5G18G11G16G19G 2
  23723732.855    15287768.961 5  11912534.32121        11.500           0.375
  22682861.417    -8731885.854 6  -6804062.48821        17.500           1.219
  23438936.089    -4171259.606 5  -3250333.38021        10.000           0.469
  20980441.261     1660680.666 6   1294034.87822        17.250           1.625
  20984223.565   -18681028.424 7 -14512866.30923        25.250           2.813
 91  6 24 17 17 14.9990000  0  5G18G11G16G19G 2
  23733282.019    15337952.636 5  11951638.40921        11.000           0.406
  22684538.284    -8723064.329 6  -6797188.58321        17.500           1.063
  23442110.011    -4154567.449 5  -3237326.55121         9.750           0.531
  20983803.878     1678346.913 6   1307800.76522        17.500           1.656
  20978325.261   -18712022.146 7 -14537017.25923        25.250           3.000
 91  6 24 17 17 29.9990000  0  5G18G11G16G19G 2
  23742838.159    15388165.978 5  11990765.60321        11.000           0.406
  22686247.409    -8714089.307 6  -6790195.07521        17.750           0.938
  23445309.151    -4137765.005 5  -3224233.77321         9.750           0.469
  20987179.464     1696081.212 6   1321619.68922        17.250           1.656
  20972441.956   -18742932.773 7 -14561103.45623        25.250           2.938
 91  6 24 17 17 44.9990000  0  5G18G11G16G19G 2
  23752397.862    15438404.623 5  12029912.52621        10.750           0.344
  22687982.214    -8704965.156 6  -6783085.35821        17.500           1.063
  23448525.636    -4120856.707 5  -3211058.53321         9.500           0.281
  20990565.081     1713879.284 6   1335488.30322        17.500           1.750
  20966574.503   -18773764.481 7 -14585128.16123        25.500           2.969
 91  6 24 17 17 59.9990000  0  5G18G11G16G19G 2
  23761963.550    15488671.372 5  12069081.35721        10.000           0.375
  22689750.573    -8695688.947 6  -6775857.15821        18.000           1.063
  23451764.253    -4103839.710 5  -3197798.58521         9.750           0.406
  20993967.753     1731744.130 6   1349408.94722        17.000           1.719
  20960724.526   -18804514.405 7 -14609089.13623        25.500           3.031
 91  6 24 17 18 14.9990000  0  5G18G11G16G19G 2
  23771533.503    15538962.593 5  12108269.23421         9.000           0.438
  22691542.597    -8686264.133 6  -6768513.16121        18.000           0.938
  23455024.245    -4086717.743 5  -3184456.82621         9.750           0.344
  20997376.120     1749672.564 6   1363379.14122        17.500           1.594
  20954887.245   -18835185.753 7 -14632988.88223        25.500           3.031
 91  6 24 17 18 29.9990000  0  5G18G11G16G19G 2
  23781106.995    15589275.373 5  12147473.91421         8.000           0.406
  22693363.737    -8676693.322 6  -6761055.39521        18.000           1.094
  23458301.456    -4069493.650 5  -3171035.50621         9.500           0.344
  21000799.784     1767662.009 6   1377396.87222        17.250           1.688
  20949064.769   -18865780.979 7 -14656829.31723        25.250           3.031
 91  6 24 17 18 44.9990000  0  5G18G11G16G19G 2
  23790686.050    15639614.210 5  12186698.89621         7.750           0.438
  22695213.675    -8666972.208 6  -6753480.51421        18.000           1.156
  23461599.847    -4052162.958 5  -3157531.10321         9.750           0.531
  21004235.565     1785717.089 6   1391465.75722        17.750           1.688
  20943259.628   -18896295.502 7 -14680606.85923        25.500           3.156
 91  6 24 17 18 59.9990000  0  5G18G11G16G19G 2
  23800272.417    15689978.878 4  12225944.00121         7.000           0.500
  22697092.183    -8657100.883 6  -6745788.58821        18.000           1.125
  23464916.042    -4034726.060 5  -3143943.96021         9.750           0.406
  21007684.128     1803837.777 6   1405585.76222        17.250           1.563
  20937467.862   -18926729.355 7 -14704321.54823        25.750           3.031
 91  6 24 17 19 14.9990000  0  5G18G11G16G19G 2
  23809860.886    15740368.232 4  12265208.33921         7.250           0.406
  22698999.190    -8647080.110 6  -6737980.20221        17.750           1.000
  23468254.980    -4017183.920 5  -3130274.79421        10.000           0.406
  21011145.073     1822023.366 6   1419756.33322        17.500           1.688
  20931690.526   -18957082.950 7 -14727973.69523        25.500           3.000
 91  6 24 17 19 29.9990000  0  5G18G11G16G19G 2
  23819452.558    15790781.397 4  12304491.23721         7.250           0.313
  22700935.480    -8636910.619 6  -6730055.93921        18.000           1.188
  23471612.370    -3999537.320 5  -3116524.24521         9.750           0.406
  21014616.948     1840273.444 6   1433977.16322        17.250           1.750
  20925930.659   -18987356.776 7 -14751563.68523        25.750           3.188
 91  6 24 17 19 44.9990000  0  5G18G11G16G19G 2
  23829051.058    15841217.623 5  12343792.09721         7.500           0.438
  22702895.675    -8626593.097 6  -6722016.32921        17.750           1.125
  23474987.878    -3981787.177 5  -3102693.00321         9.750           0.344
  21018101.753     1858587.320 6   1448247.70322        17.500           1.625
  20920184.347   -19017551.721 7 -14775092.20723        25.750           3.125
 91  6 24 17 19 59.9990000  0  5G18G11G16G19G 2
  23838651.831    15891676.809 5  12383110.85921         8.000           0.500
  22704890.300    -8616127.357 6  -6713861.22221        18.000           1.156
  23478387.651    -3963933.471 5  -3088781.08021         9.500           0.438
  21021600.425     1876965.308 6   1462568.20322        17.000           1.594
  20914454.417   -19047667.278 7 -14798558.87023        25.750           3.156
 91  6 24 17 20 14.9990000  0  5G18G11G16G19G 2
  23848259.901    15942158.456 5  12422447.11021         8.500           0.500
  22706909.128    -8605513.780 6  -6705590.91421        18.000           1.156
  23481806.128    -3945976.709 5  -3074788.82821         9.250           0.375
  21025110.237     1895407.148 6   1476938.45122        17.250           1.656
  20908737.378   -19077703.654 7 -14821963.83023        26.000           3.188
 91  6 24 17 20 29.9990000  0  5G18G11G16G19G 2
  23857870.737    15992666.520 5  12461803.96521         8.000           0.406
  22708959.026    -8594748.453 6  -6697202.36221        18.250           1.094
  23485242.792    -3927913.015 5  -3060713.26421         9.250           0.406
  21028631.722     1913917.041 6   1491361.73222        17.250           1.625
  20903038.136   -19107656.690 7 -14845303.85323        26.000           3.125
 91  6 24 17 20 44.9990000  0  5G18G11G16G19G 2
  23867485.706    16043191.404 5  12501173.89121         8.000           0.406
  22711032.886    -8583840.793 6  -6688702.90621        18.000           1.125
  23488696.737    -3909752.179 5  -3046562.00321         8.750           0.344
  21032164.526     1932485.600 6   1505830.73422        17.500           1.594
  20897352.253   -19137535.619 7 -14868586.13023        25.750           3.094
 91  6 24 17 20 59.9990000  0  5G18G11G16G19G 2
  23877103.917    16093740.427 5  12540562.65221         8.250           0.406
  22713136.776    -8572783.394 6  -6680086.76421        17.750           1.094
  23492172.980    -3891486.836 5  -3032329.31321         8.500           0.438
  21035714.964     1951120.456 6   1520351.38622        16.250           1.625
  20891681.605   -19167332.804 7 -14891804.71023        26.250           3.031
 91  6 24 17 21 14.9990000  0  5G18G11G16G19G 2
  23886727.706    16144310.751 5  12579967.99021         8.500           0.281
  22715269.003    -8561578.911 6  -6671356.01121        17.500           1.063
  23495671.183    -3873119.689 5  -3018017.28421         8.500           0.500
  21039269.065     1969819.106 6   1534921.74822        17.500           1.656
  20886027.050   -19197050.653 7 -14914961.46923        26.250           3.063
 91  6 24 17 21 29.9990000  0  5G18G11G16G19G 2
  23896355.675    16194902.655 5  12619390.17121         8.750           0.250
  22717428.847    -8550227.000 6  -6662510.38921        17.500           1.094
  23499181.362    -3854650.664 5  -3003625.88921         8.250           0.438
  21042840.925     1988582.017 6   1549542.18322        16.750           1.563
  20880388.081   -19226688.808 7 -14938056.13023        26.000           3.000
 91  6 24 17 21 44.9990000  0  5G18G11G16G19G 2
  23905986.761    16245516.490 5  12658829.44921         9.000           0.219
  22719617.472    -8538727.268 6  -6653549.56621        18.000           1.063
  23502716.597    -3836079.371 5  -2989154.81321         8.250           0.313
  21046422.409     2007409.718 6   1564213.10822        17.500           1.625
  20874762.940   -19256246.737 7 -14961088.27923        26.000           3.094
 91  6 24 17 21 59.9990000  0  5G18G11G16G19G 2
  23915621.534    16296149.627 5  12698283.77921         9.250           0.219
  22721832.190    -8527082.186 6  -6644475.49221        18.000           1.188
  23506270.065    -3817408.553 5  -2974606.15721         8.250           0.344
  21050018.878     2026299.974 6   1578932.77622        17.500           1.563
  20869152.839   -19285726.591 7 -14984059.58923        26.250           3.125
 91  6 24 17 22 14.9990000  0  5G18G11G16G19G 2
  23925261.870    16346806.775 5  12737756.80721        10.000           0.188
  22724078.714    -8515287.054 6  -6635284.49321        18.000           1.188
  23509844.886    -3798633.712 5  -2959976.45221         8.250           0.406
  21053623.987     2045257.528 6   1593704.88922        17.500           1.563
  20863557.894   -19315123.421 7 -15006966.20723        26.500           3.000
 91  6 24 17 22 29.9990000  0  5G18G11G16G19G 2
  23934905.815    16397485.560 5  12777246.69421         9.750           0.125
  22726351.558    -8503343.950 6  -6625978.19621        18.250           1.094
  23513435.565    -3779757.041 5  -2945267.40821         8.000           0.438
  21057246.034     2064280.444 6   1608527.93022        17.250           1.563
  20857979.409   -19344439.328 7 -15029809.76623        26.750           3.063
 91  6 24 17 22 44.9990000  0  5G18G11G16G19G 2
  23944553.581    16448182.372 5  12816750.64221         9.750           0.188
  22728651.190    -8491256.282 6  -6616559.25021        17.750           1.219
  23517047.300    -3760781.890 5                         8.250
  21060876.065     2083365.521 6                        17.500
  20852416.636   -19373677.422 7 -15052592.69523        26.750           3.031
 91  6 24 17 22 59.9990000  0  5G18G11G16G19G 2
  23954205.058    16498899.755 5  12856270.62921         9.250           0.125
  22730980.284    -8479021.097 6  -6607025.35321        18.250           1.125
  23520678.964    -3741705.396 5                         8.500
  21064520.839     2102515.870 6                        17.500
  20846867.495   -19402834.739 7 -15075312.67823        27.000           3.000
 91  6 24 17 23 14.9990000  0  5G18G11G16G19G 2
  23963859.003    16549631.578 5  12895801.81721         9.000           0.219
  22733335.292    -8466644.841 6  -6597381.53421        18.000           1.125
  23524326.440    -3722534.492 5                         8.250
  21068174.831     2121725.165 6                        17.000
  20841334.175   -19431917.502 7 -15097974.56423        27.000           3.094
 91  6 24 17 23 29.9990000  0  5G18G11G16G19G 2
  23973514.058    16600379.822 5  12935345.83721         9.000           0.250
  22735715.605    -8454125.329 6  -6587626.08021        18.000           1.188
  23527992.542    -3703267.033 5                         8.000
  21071843.839     2140995.709 6                        17.250
  20835814.730   -19460923.230 7 -15120576.42723        27.000           3.031
 91  6 24 17 23 44.9990000  0  5G18G11G16G19G 2
  23983177.042    16651144.557 5  12974902.69721         8.750           0.188
  22738127.378    -8441462.505 6  -6577758.95921        17.750           1.156
  23531676.769    -3683903.088 5                         8.250
  21075522.214     2160327.952 6                        17.000
  20830309.519   -19489851.609 7 -15143118.01723        27.250           3.031
 91  6 24 17 23 59.9990000  0  5G18G11G16G19G 2
  23992840.214    16701927.940 5  13014474.09721         7.750           0.250
  22740565.769    -8428654.194 6  -6567778.48021        18.250           1.094
  23535381.167    -3664440.495 5                         8.500
  21079216.487     2179723.881 6                        16.000
  20824819.878   -19518700.254 7 -15165597.47323        27.500           3.000
 91  6 24 17 24 14.9990000  0  5G18G11G16G19G 2
  24002506.378    16752730.385 4  13054060.31821         6.750           0.344
  22743028.519    -8415699.676 6  -6557684.06121        17.750           1.000
  23539104.948    -3644878.503 5  -2840167.61321         8.500           0.250
  21082915.612     2199184.668 6   1713648.04022        17.000           1.594
  20819344.839   -19547468.225 7 -15188014.07123        27.750           3.031
 91  6 24 17 24 29.9990000  0  5G18G11G16G19G 2
  24012177.347    16803549.486 3  13093659.51921         6.000           0.281
  22745520.855    -8402601.436 6  -6547477.65321        17.500           1.000
  23542842.964    -3625220.276 5  -2824849.56221         8.750           0.344
  21086632.144     2218707.934 6   1728860.96522        17.250           1.500
  20813885.089   -19576157.966 7 -15210369.70723        27.750           3.031
 91  6 24 17 24 44.9990000  0  5G18G11G16G19G 2
  24021851.628    16854384.983 3  13133271.47021         5.500           0.313
  22748042.550    -8389359.275 6  -6537159.10221        17.750           1.094
  23546602.276    -3605465.620 5  -2809456.36321         8.750           0.344
  21090359.761     2238294.010 6   1744122.83722        17.000           1.594
  20808440.230   -19604769.059 7 -15232664.06223        27.500           3.188
 91  6 24 17 24 59.9990000  0  5G18G11G16G19G 2
  24031526.542    16905237.144 2  13172896.41521         4.750           0.344
  22750588.456    -8375973.083 6  -6526728.32321        17.750           1.000
  23550380.800    -3585614.429 5  -2793987.95721         8.750           0.281
  21094098.019     2257943.153 6   1759433.84422        17.250           1.563
  20803012.050   -19633301.132 7 -15254896.83923        27.750           3.063
 91  6 24 17 25 14.9990000  0  5G18G11G16G19G 2
  24041207.448    16956104.213 3  13212532.97221         5.500           0.344
  22753162.823    -8362444.508 6  -6516186.59021        17.250           1.031
  23554175.909    -3565668.321 5  -2778445.57221         8.500           0.313
  21097849.323     2277653.937 6   1774792.89122        17.000           1.500
  20797597.042   -19661755.594 7 -15277069.14223        27.750           3.094
 91  6 24 17 25 29.9990000  0  5G18G11G16G19G 2
  24050889.714    17006987.186 3  13252181.93321         6.000           0.406
  22755765.636    -8348772.445 6  -6505533.05221        17.750           0.969
  23557990.417    -3545626.607 5  -2762828.70021         8.500           0.281
  21101613.347     2297427.621 6   1790200.94322        16.250           1.625
  20792196.792   -19690131.285 7 -15299180.06423        27.250           3.125
 91  6 24 17 25 44.9990000  0  5G18G11G16G19G 2
  24060576.425    17057881.327 4  13291839.59121         7.000           0.375
  22758392.651    -8334961.788 6  -6494771.52021        17.750           1.063
  23561820.558    -3525494.067 5  -2747141.05521         8.250           0.250
  21105385.433     2317259.695 6   1805654.49722        17.000           1.563
  20786810.190   -19718432.811 7 -15321233.19823        27.000           3.094
 91  6 24 17 25 59.9990000  0  5G18G11G16G19G 2
  24070264.300    17108790.476 5  13331508.95021         8.000           0.406
  22761046.683    -8321008.209 6  -6483898.61621        17.250           1.094
  23565669.050    -3505266.460 5  -2731379.31721         8.500           0.281
  21109171.112     2337154.477 6   1821156.91722        16.500           1.531
  20781440.808   -19746655.651 7 -15343225.01723        27.250           3.125
 91  6 24 17 26 14.9990000  0  5G18G11G16G19G 2
  24079952.901    17159717.471 5  13371192.25421         8.250           0.250
  22763731.058    -8306908.914 6  -6472912.16921        17.250           1.125
  23569536.253    -3484941.319 5  -2715541.58921         8.500           0.219
  21112970.034     2357114.875 6   1836710.46322        17.000           1.563
  20776085.144   -19774796.879 7 -15365153.23923        27.250           3.031
 91  6 24 17 26 29.9990000  0  4G11G16G19G 2
  22766441.589    -8292668.278 6  -6461815.59321        17.250           1.094
  23573422.355    -3464523.189 5  -2699631.39121         8.500           0.344
  21116780.167     2377136.691 6   1852311.87322        16.750           1.594
  20770745.065   -19802860.579 7 -15387021.05023        27.250           3.094
 91  6 24 17 26 44.9990000  0  4G11G16G19G 2
  22769177.870    -8278288.993 6  -6450610.97221        17.000           1.031
  23577322.683    -3444014.728 5  -2683650.82021         8.250           0.281
  21120601.581     2397217.344 6   1867959.12622        16.750           1.531
  20765419.355   -19830849.343 7 -15408830.47023        27.250           2.938
 91  6 24 17 26 59.9990000  0  4G11G16G19G 2
  22771940.519    -8263769.276 6  -6439296.91921        17.250           0.938
  23581245.558    -3423414.308 5  -2667598.59621         8.500           0.156
  21124432.909     2417359.061 6   1883653.96622        16.250           1.531
  20760107.245   -19858761.122 7 -15430579.90223        27.250           3.000
 91  6 24 17 27 14.9990000  0  4G11G16G19G 2
  22774730.659    -8249107.343 6  -6427872.04921        17.000           1.031
  23585183.667    -3402720.603 5  -2651473.69021         8.500           0.219
  21128277.284     2437563.656 6   1899397.80022        16.500           1.563
  20754811.980   -19886593.927 7 -15452267.79323        27.500           3.000
 91  6 24 17 27 29.9990000  0  4G11G16G19G 2
  22777547.448    -8234301.930 6  -6416335.37921        17.250           1.031
  23589143.386    -3381932.166 5  -2635274.93821         8.500           0.219
  21132136.253     2457832.456 6   1915191.66422        16.250           1.594
  20749529.651   -19914346.307 7 -15473893.01523        27.500           3.031
 91  6 24 17 27 44.9990000  0  4G11G16G19G 2
  22780393.183    -8219355.832 6  -6404689.08121        17.000           1.094
  23593113.058    -3361052.248 5  -2619004.90521         8.000           0.281
  21136002.573     2478162.868 6   1931033.53422        16.750           1.500
  20744263.847   -19942021.053 7 -15495457.74523        27.500           2.969
 91  6 24 17 27 59.9990000  0  4G11G16G19G 2
  22783262.394    -8204267.111 6  -6392931.65721        16.750           1.156
  23597103.784    -3340078.927 5  -2602662.11021         8.250           0.125
  21139887.440     2498557.013 6   1946925.06921        16.750           1.469
  20739012.565   -19969615.799 7 -15516960.13723        27.500           3.000
 91  6 24 17 28 14.9990000  0  5G 6G11G16G19G 2
  21703589.714          -0.57716                        18.250
  22786162.511    -8189037.120 6  -6381064.15021        17.250           1.156
  23601114.558    -3319013.622 5  -2586247.66621         8.250           0.188
  21143777.472     2519013.865 6   1962865.46822        17.250           1.594
  20733776.261   -19997131.746 7 -15538401.12723        27.000           3.031
 91  6 24 17 28 29.9990000  0  5G 6G11G16G19G 2
  21696709.737      -36148.319 6                        18.500
  22789086.565    -8173667.631 6  -6369087.94221        17.000           1.188
  23605137.722    -3297858.009 5  -2569762.77321         8.000           0.219
  21147682.511     2539531.772 6   1978853.44122        16.750           1.531
  20728555.659   -20024570.453 7 -15559781.93023        26.750           2.938
 91  6 24 17 28 44.9990000  0  5G 6G11G16G19G 2
  21689836.425      -72270.511 6        -0.34931        18.250           1.281
  22792038.331    -8158160.737 6  -6357004.66721        17.500           1.031
  23609183.011    -3276614.470 5  -2553209.44821         8.250           0.281
  21151598.417     2560108.764 6   1994887.45322        17.000           1.531
  20723346.933   -20051933.723 7 -15581103.95223        26.750           3.000
 91  6 24 17 28 59.9990000  0  5G 6G11G16G19G 2
  21682968.956     -108363.810 6    -28124.98821        18.500           1.344
  22795014.542    -8142513.567 6  -6344812.07821        17.500           1.031
  23613242.112    -3255280.267 5  -2536585.42821         8.250           0.219
  21155527.065     2580748.025 6   2010969.98622        17.000           1.531
  20718155.550   -20079218.600 7 -15602364.89023        27.000           3.063
 91  6 24 17 29 14.9990000  0  5G 6G11G16G19G 2
  21676104.612     -144429.675 6    -56228.24621        18.250           1.313
  22798019.362    -8126727.869 6  -6332511.54521        17.250           1.094
  23617317.269    -3233857.226 5  -2519892.17821         8.250           0.344
  21159464.042     2601447.975 6   2027099.80721        17.250           1.438
  20712978.159   -20106426.504 7 -15623565.84723        26.750           3.000
 91  6 24 17 29 29.9990000  0  5G 6G11G16G19G 2
  21669246.292     -180465.566 6    -84308.14921        18.250           1.375
  22801049.144    -8110801.359 6  -6320101.29321        16.750           1.094
  23621413.159    -3212343.346 5  -2503128.14721         8.500           0.188
  21163415.847     2622211.064 6   2043278.83121        17.000           1.438
  20707816.058   -20133554.973 7 -15644704.91023        26.250           3.125
 91  6 24 17 29 44.9990000  0  5G 6G11G16G19G 2
  21662394.183     -216472.822 6   -112365.73621        18.000           1.344
  22804108.675    -8094735.625 6  -6307582.56421        17.250           1.000
  23625522.433    -3190740.315 5  -2486294.64921         8.000           0.281
  21167377.480     2643035.735 6   2059505.84022        17.250           1.594
  20702667.550   -20160605.427 7 -15665783.17923        26.250           3.094
 91  6 24 17 29 59.9990000  0  5G 6G11G16G19G 2
  21655549.628     -252450.686 6   -140400.43021        18.000           1.344
  22807192.581    -8078530.277 6  -6294955.03721        17.000           1.031
  23629651.737    -3169047.687 5  -2469391.34721         8.250           0.219
  21171353.808     2663922.718 6   2075781.40322        16.750           1.563
  20697535.167   -20187577.211 7 -15686800.14723        26.750           3.188
 91  6 24 17 30 14.9990000  0  5G 6G11G16G19G 2
  21648708.347     -288403.068 6   -168415.26221        18.250           1.469
  22810300.378    -8062189.421 6  -6282221.91521        17.250           0.938
  23633796.159    -3147269.801 5  -2452421.62021         8.000           0.313
  21175338.425     2684868.100 6   2092102.46722        17.000           1.594
  20692416.128   -20214474.352 7 -15707758.95123        26.500           3.094
 91  6 24 17 30 29.9990000  0  5G 6G11G16G19G 2
  21641872.581     -324325.796 6   -196406.98921        18.000           1.406
  22813434.769    -8045709.360 6  -6269380.31921        17.000           0.969
  23637956.323    -3125403.142 5  -2435382.71121         8.250           0.406
  21179337.995     2705875.713 6   2108472.03222        16.750           1.563
  20687313.128   -20241292.635 7 -15728656.30623        26.750           3.063
 91  6 24 17 30 44.9990000  0  5G 6G11G16G19G 2
  21635042.894     -360220.866 6   -224377.16621        18.250           1.375
  22816599.675    -8029092.251 6  -6256431.93821        17.000           1.063
  23642133.558    -3103450.200 5  -2418276.55721         8.000           0.281
  21183344.558     2726943.763 6   2124888.68222        17.000           1.500
  20682224.800   -20268034.077 7 -15749493.78423        26.750           3.125
 91  6 24 17 30 59.9990000  0  5G 6G11G16G19G 2
  21628216.308     -396086.821 6   -252324.65121        18.250           1.406
  22819786.495    -8012336.912 6  -6243375.84221        17.250           1.000
  23646328.597    -3081409.588 5  -2401102.07021         8.000           0.250
  21187366.042     2748073.531 6   2141353.42922        16.750           1.531
  20677150.909   -20294697.279 7 -15770270.29423        26.750           3.125
 91  6 24 17 31 14.9990000  0  5G 6G11G16G19G 2
  21621396.409     -431925.029 6   -280250.51921        18.250           1.406
  22823000.925    -7995445.083 6  -6230213.38721        16.750           0.938
  23650538.503    -3059282.945 5  -2383860.57321         8.250           0.344
  21191398.456     2769263.479 6   2157865.06922        17.000           1.563
  20672091.222   -20321283.877 7 -15790987.11723        26.500           3.063
 91  6 24 17 31 29.9990000  0  4G11G16G19G 2
  22826238.987    -7978418.305 6  -6216945.78521        16.500           0.906
  23654766.925    -3037072.152 5  -2366553.51421         8.500           0.313
  21195443.206     2790512.297 6   2174422.58122        16.750           1.625
  20667046.706   -20347795.189 7 -15811645.27323        26.750           3.094
 91  6 24 17 31 44.9990000  0  4G11G16G19G 2
  22829509.534    -7961254.893 6  -6203571.71621        17.000           0.969
  23659009.128    -3014775.589 5  -2349179.60021         9.000           0.313
  21199496.417     2811821.731 6   2191027.32322        17.000           1.625
  20662016.573   -20374229.254 7 -15832243.24023        26.500           3.188
 91  6 24 17 31 59.9990000  0  4G11G16G19G 2
  22832801.667    -7943951.783 6  -6190088.78921        17.250           0.875
  23663270.823    -2992390.502 5  -2331736.73821         9.000           0.219
  21203564.565     2833195.241 6   2207682.00122        16.750           1.625
  20657001.847   -20400582.764 7 -15852778.43123        26.500           3.156
 91  6 24 17 32 14.9990000  0  4G11G16G19G 2
  22836117.550    -7926513.693 6  -6176500.68121        16.750           0.875
  23667542.362    -2969921.678 5  -2314228.59621         8.500           0.375
  21207643.167     2854628.307 6   2224383.08422        16.750           1.688
  20652001.253   -20426860.255 7 -15873254.39023        26.750           3.219
 91  6 24 17 32 29.9990000  0  4G11G16G19G 2
  22839464.300    -7908939.692 6  -6162806.67721        17.250           0.844
  23671837.464    -2947368.270 5  -2296654.57021         8.500           0.375
  21211734.183     2876121.841 6   2241131.27922        16.750           1.688
  20647015.597   -20453060.673 7 -15893670.29223        26.250           3.250
 91  6 24 17 32 44.9990000  0  4G11G16G19G 2
  22842832.230    -7891229.946 6  -6149006.88921        17.250           0.875
  23676144.948    -2924730.598 5  -2279014.85421         8.500           0.375
  21215835.323     2897675.991 6   2257926.71722        16.750           1.688
  20642044.784   -20479183.960 7 -15914026.09023        26.750           3.156
 91  6 24 17 32 59.9990000  0  4G11G16G19G 2
  22846228.362    -7873384.831 6  -6135101.61021        17.000           1.156
  23680467.464    -2902009.018 5  -2261309.75521         8.250           0.313
  21219948.487     2919290.600 6   2274769.25622        16.750           1.688
  20637087.612   -20505230.087 7 -15934321.76423        26.750           3.125
 91  6 24 17 33 14.9990000  0  4G11G16G19G 2
  22849650.565    -7855404.191 6  -6121090.74821        17.000           0.969
  23684803.855    -2879203.656 5  -2243539.40621         8.000           0.344
  21224070.917     2940966.214 6   2291659.33922        16.500           1.625
  20632146.308   -20531198.621 7 -15954556.97923        27.000           3.125
 91  6 24 17 33 29.9990000  0  4G11G16G19G 2
  22853097.909    -7837288.445 6  -6106974.58621        16.500           1.031
  23689162.026    -2856314.883 5  -2225704.03921         8.000           0.313
  21228213.339     2962702.570 6   2308596.75422        15.750           1.563
  20627219.511   -20557089.842 7 -15974731.94723        27.250           3.281
 91  6 24 17 33 44.9990000  0  4G11G16G19G 2
  22856571.331    -7819036.255 6  -6092752.13121        17.250           0.938
  23693533.175    -2833341.526 5  -2207802.76321         7.500           0.344
  21232357.745     2984501.033 6   2325582.56122        16.750           1.625
  20622307.675   -20582902.210 7 -15994845.46923        26.750           3.188
 91  6 24 17 33 59.9990000  0  4G11G16G19G 2
  22860069.339    -7800652.985 6  -6078427.51221        17.000           0.969
  23697922.081    -2810289.267 4  -2189840.01321         7.000           0.344
  21236516.972     3006356.586 6   2342612.84622        16.000           1.688
  20617409.659   -20608640.793 7 -16014901.49923        27.000           3.156
 91  6 24 17 34 14.9990000  0  4G11G16G19G 2
  22863591.401    -7782135.383 6  -6063998.23621        16.750           0.875
  23702323.190    -2787154.708 4  -2171813.13521         7.250           0.313
  21240686.909     3028272.720 6   2359690.34822        16.500           1.625
  20612526.714   -20634302.296 7 -16034897.46923        27.250           3.188
 91  6 24 17 34 29.9990000  0  4G11G16G19G 2
  22867141.183    -7763481.950 6  -6049463.10221        17.000           0.906
  23706740.144    -2763936.418 4  -2153721.00321         7.000           0.375
  21244870.300     3050251.094 6   2376816.34522        16.500           1.531
  20607658.706   -20659884.931 7 -16054831.98123        27.500           3.156
 91  6 24 17 34 44.9990000  0  4G11G16G19G 2
  22870715.823    -7744695.571 6  -6034824.38321        17.000           0.969
  23711175.745    -2740637.645 4  -2135566.17721         7.000           0.406
  21249063.472     3072288.885 6   2393988.63722        16.750           1.500
  20602805.401   -20685391.288 7 -16074707.05523        27.500           3.219
 91  6 24 17 34 59.9990000  0  4G11G16G19G 2
  22874315.948    -7725777.528 6  -6020083.06921        17.000           0.938
  23715622.894    -2717259.638 4  -2117349.58921         6.750           0.313
  21253269.105     3094385.150 6   2411206.49622        16.250           1.563
  20597965.050   -20710822.351 7 -16094523.46223        27.500           3.000
 91  6 24 17 35 14.9990000  0  4G11G16G19G 2
  22877942.417    -7706724.154 6  -6005236.30321        17.000           0.906
  23720087.511    -2693798.752 4  -2099068.45021         6.750           0.375
  21257484.737     3116543.791 6   2428472.95721        16.750           1.469
  20593141.112   -20736174.180 7 -16114278.12323        27.250           3.125
 91  6 24 17 35 29.9990000  0  4G11G16G19G 2
  22881594.776    -7687539.702 6  -5990287.39321        17.750           0.875
  23724567.386    -2670259.577 4  -2080726.28221         6.750           0.250
  21261712.706     3138760.694 6   2445784.82322        16.750           1.531
  20588330.503   -20761451.005 7 -16133974.34423        27.250           3.125
 91  6 24 17 35 44.9990000  0  4G11G16G19G 2
  22885268.800    -7668226.109 6  -5975237.86121        16.750           0.906
  23729063.253    -2646643.688 4  -2062324.33921         7.250           0.250
  21265949.730     3161034.096 6   2463140.70822        16.500           1.500
  20583535.378   -20786654.569 7 -16153613.47923        27.250           3.094
 91  6 24 17 35 59.9990000  0  4G11G16G19G 2
  22888969.019    -7648779.078 6  -5960084.35421        16.750           0.938
  23733570.769    -2622947.196 4  -2043859.59821         7.000           0.281
  21270201.245     3183368.623 6   2480544.22522        16.500           1.563
  20578753.519   -20811780.017 7 -16173191.74323        27.500           3.094
 91  6 24 17 36 14.9990000  0  4G11G16G19G 2
  22892694.128    -7629200.607 6  -5944828.42821        16.500           0.875
  23738095.112    -2599172.356 4  -2025333.79321         7.000           0.281
  21274462.276     3205762.542 6   2497994.02122        16.250           1.563
  20573986.214   -20836829.172 7 -16192710.56223        27.500           3.219
 91  6 24 17 36 29.9990000  0  4G11G16G19G 2
  22896449.581    -7609484.801 6  -5929465.47321        17.000           0.844
  23742635.495    -2575313.215 4  -2006742.31921         7.000           0.375
  21278740.542     3228222.155 6   2515495.01321        15.250           1.469
  20569235.847   -20861795.963 7 -16212165.19223        27.750           3.188
 91  6 24 17 36 44.9990000  0  4G11G16G19G 2
  22900223.409    -7589637.111 6  -5913999.76921        16.500           0.781
  23747192.886    -2551375.822 4  -1988089.85421         6.750           0.344
  21283022.206     3250742.042 6   2533042.96422        16.500           1.500
  20564499.331   -20886685.802 7 -16231559.86323        27.750           3.281
 91  6 24 17 36 59.9990000  0  4G11G16G19G 2
  22904025.050    -7569659.282 6  -5898432.64921        16.250           0.750
  23751758.034    -2527361.600 4  -1969377.54421         7.250           0.281
  21287319.183     3273320.478 6   2550636.54022        16.500           1.500
  20559778.003   -20911500.134 7 -16250895.70123        27.500           3.281
 91  6 24 17 37 14.9990000  0  4G11G16G19G 2
  22907852.956    -7549553.116 6  -5882765.53421        17.000           0.719
  23756345.526    -2503272.282 4  -1950606.70021         6.750           0.313
  21291624.675     3295956.026 6   2568274.62121        16.500           1.375
  20555070.144   -20936240.408 8 -16270173.82923        28.000           3.156
 91  6 24 17 37 29.9990000  0  4G11G16G19G 2
  22911704.753    -7529315.039 6  -5866995.62421        16.750           0.906
  23760944.839    -2479104.594 4  -1931774.76321         7.250           0.281
  21295944.745     3318652.509 6   2585960.18822        16.500           1.500
  20550376.362   -20960902.745 7 -16289391.22523        27.750           3.156
 91  6 24 17 37 44.9990000  0  4G11G16G19G 2
  22915577.636    -7508949.765 6  -5851126.59821        15.750           0.781
  23765558.769    -2454863.242 4  -1912885.46421         7.000           0.219
  21300274.776     3341405.432 6   2603689.72621        16.500           1.469
  20545697.417   -20985491.640 8 -16308551.39823        28.000           3.125
 91  6 24 17 37 59.9990000  0  4G11G16G19G 2
  22919477.987    -7488453.969 6  -5835155.86921        16.250           0.844
  23770181.190    -2430545.277 4  -1893936.45321         7.000           0.219
  21304617.870     3364218.316 6   2621465.99121        15.750           1.438
  20541032.972   -21010003.486 8 -16327651.53123        28.000           3.188
 91  6 24 17 38 14.9990000  0  4G11G16G19G 2
  22923402.761    -7467827.547 6  -5819083.35221        15.750           0.844
  23774827.065    -2406150.726 5  -1874927.73821         7.500           0.219
  21308967.808     3387091.640 6   2639289.35121        16.500           1.406
  20536383.425   -21034438.028 7 -16346691.42623        27.750           3.188
 91  6 24 17 38 29.9990000  0  4G11G16G19G 2
  22927353.980    -7447073.173 6  -5802911.12521        16.250           0.813
  23779483.800    -2381682.002 5  -1855861.25021         7.500           0.250
  21313334.019     3410022.922 6   2657157.87521        16.000           1.344
  20531748.808   -21058797.619 8 -16365672.92223        28.000           3.188
 91  6 24 17 38 44.9990000  0  4G11G16G19G 2
  22931327.776    -7426189.177 6  -5786637.90821        16.250           0.781
  23784153.886    -2357137.640 5  -1836735.83221         7.750           0.250
  21317705.690     3433013.915 6   2675072.92421        16.250           1.438
  20527126.956   -21083080.674 7 -16384594.77523        27.750           3.156
 91  6 24 17 38 59.9990000  0  4G11G16G19G 2
  22935326.050    -7405173.851 6  -5770262.34421        16.000           0.813
  23788840.151    -2332516.218 5  -1817550.37421         8.250           0.188
  21322094.230     3456066.587 6   2693036.03621        16.000           1.313
  20522521.605   -21107285.202 8 -16403455.44123        28.000           3.188
 91  6 24 17 39 14.9990000  0  4G11G16G19G 2
  22939352.370    -7384031.996 6  -5753788.18021        16.250           0.781
  23793537.237    -2307822.311 5  -1798308.39821         8.250           0.156
  21326490.792     3479176.428 6   2711043.69721        16.250           1.313
  20517929.480   -21131415.516 8 -16422258.27823        28.000           3.188
 91  6 24 17 39 29.9990000  0  4G11G16G19G 2
  22943399.112    -7362757.961 6  -5737211.03121        16.500           0.813
  23798252.167    -2283050.786 5  -1779005.96521         8.000           0.250
  21330901.690     3502349.403 6   2729100.54921        16.000           1.469
  20513352.425   -21155465.635 8 -16440998.62723        28.000           3.063
 91  6 24 17 39 44.9990000  0  4G11G16G19G 2
  22947471.409    -7341353.399 6  -5720532.17221        16.500           0.781
  23802983.237    -2258203.275 5  -1759644.33121         8.250           0.188
  21335320.503     3525583.905 6   2747205.34621        16.000           1.469
  20508791.144   -21179436.999 8 -16459677.60423        28.000           3.156
 91  6 24 17 39 59.9990000  0  4G11G16G19G 2
  22951570.651    -7319819.258 6  -5703752.33621        16.750           0.719
  23807722.886    -2233280.576 5  -1740224.06621         8.000           0.250
  21339755.917     3548879.336 6   2765357.62221        15.750           1.406
  20504244.073   -21203330.289 7 -16478295.74123        27.750           3.063
 91  6 24 17 40 14.9990000  0  5G 6G11G16G19G 2
  21379591.175          -0.20517                        20.000
  22955689.964    -7298159.477 6  -5686874.60021        16.500           0.906
  23812477.362    -2208286.799 5  -1720748.48121         8.000           0.156
  21344200.151     3572231.937 6   2783554.44521        16.250           1.344
  20499711.355   -21227149.305 8 -16496856.01123        28.000           3.063
 91  6 24 17 40 29.9980000  0  5G 6G11G16G19G 2
  21372981.115      -34735.550 6                        19.750
  22959835.232    -7276375.663 6  -5669900.21921        16.500           0.781
  23817246.451    -2183224.090 5  -1701219.15821         7.750           0.281
  21348653.279     3595640.214 6   2801794.64521        16.000           1.406
  20495193.537   -21250892.408 8 -16515357.12323        28.250           3.156
 91  6 24 17 40 44.9980000  0  5G 6G11G16G19G 2
  21366377.076      -69439.083 7        -0.27032        20.000           1.719
  22964007.154    -7254460.420 6  -5652823.42921        16.250           0.813
  23822031.326    -2158084.648 5  -1681630.01721         7.500           0.188
  21353120.287     3619112.022 6   2820084.35921        16.250           1.375
  20490689.615   -21274558.043 8 -16533797.87123        28.000           3.063
 91  6 24 17 40 59.9980000  0  5G 6G11G16G19G 2
  21359777.803     -104115.401 7    -27020.76922        20.250           1.781
  22968200.201    -7232422.492 6  -5635651.03821        16.500           0.844
  23826828.506    -2132877.422 5  -1661988.11221         7.500           0.125
  21357598.623     3642638.793 6   2838416.90321        16.000           1.406
  20486200.295   -21298151.473 8 -16552182.35323        28.000           2.938
 91  6 24 17 41 14.9980000  0  4G11G16G19G 2
  22972418.951    -7210258.199 6  -5618380.17321        16.000           0.781
  23831642.568    -2107598.949 5  -1642290.61421         7.500           0.156
  21362084.709     3666224.337 6   2856795.23921        16.250           1.438
  20481724.865   -21321668.821 8 -16570507.54823        28.000           3.063
 91  6 24 17 41 29.9980000  0  4G11G16G19G 2
  22976664.115    -7187963.572 6  -5601007.74821        16.000           0.844
  23836462.553    -2082245.118 4  -1622534.41821         7.250           0.250
  21366586.545     3689872.924 6   2875222.69821        16.000           1.344
  20477265.295   -21345105.947 8 -16588770.23923        28.000           2.938
 91  6 24 17 41 44.9980000  0  4G11G16G19G 2
  22980928.186    -7165544.936 6  -5583538.70821        15.500           0.844
  23841304.561    -2056822.231 4  -1602724.44221         7.000           0.219
  21371095.889     3713578.587 6   2893694.63121        16.250           1.375
  20472819.107   -21368468.874 8 -16606975.11023        28.250           3.031
 91  6 24 17 41 59.9980000  0  3G11G19G 2
  22985215.701    -7143000.413 6  -5565971.55521        15.250           0.875
  21375620.600     3737343.403 6   2912212.66021        16.000           1.375
  20468388.147   -21391755.441 8 -16625120.48123        28.250           3.000
 91  6 24 17 42 14.9980000  0  3G11G19G 2
  22989530.647    -7120327.708 6  -5548304.52721        15.500           1.031
  21380151.975     3761169.656 6   2930778.56221        16.250           1.344
  20463972.068   -21414963.163 8 -16643204.41423        28.000           3.094
 91  6 24 17 42 29.9980000  0  3G11G19G 2
  22993867.115    -7097533.003 6  -5530542.43621        14.750           0.844
  21384697.865     3785051.612 6   2949387.86721        16.000           1.438
  20459569.381   -21438097.954 8 -16661231.52123        28.250           3.094
 91  6 24 17 42 44.9980000  0  3G11G19G 2
  22998231.022    -7074613.134 6  -5512682.82221        15.000           0.969
  21389253.639     3808992.675 6   2968043.23421        16.250           1.406
  20455181.295   -21461156.416 8 -16679199.14723        28.250           3.156
 91  6 24 17 42 59.9980000  0  3G11G19G 2
  23002615.678    -7051571.498 6  -5494728.32221        15.500           0.906
  21393822.990     3832989.827 6   2986742.30121        15.500           1.313
  20450807.475   -21484141.580 8 -16697109.65823        28.000           3.219
 91  6 24 17 43 14.9980000  0  3G11G19G 2
  23007026.107    -7028403.327 6  -5476675.22621        15.750           0.875
  21398395.693     3857047.970 6   3005488.89621        16.000           1.375
  20446448.545   -21507048.488 8 -16714959.19123        28.000           3.188
 91  6 24 17 43 29.9980000  0  3G11G19G 2
  23011455.506    -7005110.838 6  -5458525.24721        15.250           0.813
  21402988.959     3881164.979 6   3024281.35821        15.750           1.313
  20442103.982   -21529879.169 8 -16732749.33023        28.250           3.156
 91  6 24 17 43 44.9980000  0  4G 6G11G19G 2
  21287595.951          -0.85716                        19.750
  23015912.936    -6981694.169 6  -5440278.51321        15.250           0.938
  21407587.139     3905341.111 6   3043119.89521        16.000           1.313
  20437773.725   -21552633.369 8 -16750479.87023        28.000           3.094
 91  6 24 17 43 59.9980000  0  4G 6G11G19G 2
  21281069.850      -34290.271 6                        19.750
  23020392.732    -6958153.141 6  -5421934.87921        15.500           0.938
  21412201.615     3929576.842 6   3062004.86321        15.500           1.281
  20433458.107   -21575310.675 8 -16768150.49723        28.250           3.188
 91  6 24 17 44 14.9980000  0  4G 6G11G19G 2
  21274551.568      -68544.382 6        -0.08132        19.750           1.844
  23024895.287    -6934486.346 6  -5403493.24721        15.250           0.875
  21416821.959     3953873.740 6   3080937.50121        16.000           1.219
  20429158.607   -21597909.507 8 -16785759.96823        28.250           3.188
 91  6 24 17 44 29.9980000  0  4G 6G11G19G 2
  21268039.131     -102764.757 6    -26665.29722        19.500           1.844
  23029424.209    -6910695.603 6  -5384955.02921        15.750           0.781
  21421459.029     3978230.238 6   3099916.57721        15.250           1.313
  20424872.389   -21620431.347 8 -16803309.44723        28.500           3.000
 91  6 24 17 44 44.9980000  0  4G 6G11G19G 2
  21261534.498     -136953.762 7    -53306.06422        20.000           1.906
  23033972.193    -6886783.807 6  -5366322.48021        15.000           0.906
  21426104.498     4002643.741 6   3118940.07421        15.750           1.344
  20420600.897   -21642878.812 8 -16820800.97323        28.500           3.000
 91  6 24 17 44 59.9980000  0  4G 6G11G19G 2
  21255034.717     -171108.910 6    -79920.45022        19.750           1.813
  23038548.928    -6862748.841 6  -5347593.96221        15.500           0.875
  21430761.482     4027116.593 6   3138009.81321        15.500           1.250
  20416344.303   -21665249.708 8 -16838232.83223        28.250           3.000
 91  6 24 17 45 14.9980000  0  4G 6G11G19G 2
  21248541.256     -205232.104 6   -106509.94122        19.750           1.844
  23043142.068    -6838593.175 6  -5328771.38221        15.250           0.813
  21435427.818     4051646.769 6   3157124.22421        16.000           1.344
  20412100.811   -21687545.962 8 -16855606.53123        28.250           2.969
 91  6 24 17 45 29.9980000  0  4G 6G11G19G 2
  21242054.303     -239321.423 6   -133073.03422        19.750           1.906
  23047764.217    -6814315.160 6  -5309853.47221        15.500           0.906
  21440109.006     4076236.004 6   3176284.65721        15.500           1.406
  20407872.514   -21709765.650 8 -16872920.56623        28.250           2.875
 91  6 24 17 45 44.9980000  0  4G 6G11G19G 2
  21235572.436     -273380.562 6   -159612.60822        19.500           1.906
  23052406.607    -6789918.837 6  -5290843.38321        15.750           0.938
  21444798.631     4100880.578 6   3195488.21421        15.750           1.313
  20403658.600   -21731912.682 8 -16890177.98723        28.250           2.969
 91  6 24 17 45 59.9980000  0  4G 6G11G19G 2
  21229098.287     -307404.530 7   -186124.77822        20.000           1.844
  23057071.639    -6765399.652 6  -5271737.55421        15.500           0.938
  21449505.748     4125585.301 6   3214738.62821        14.750           1.313
  20399458.412   -21753982.203 8 -16907375.01023        28.250           3.000
 91  6 24 17 46 14.9980000  0  4G 6G11G19G 2
  21222629.295     -341396.906 6   -212612.33222        19.750           2.031
  23061760.428    -6740761.498 6                        15.500
  21454211.139     4150346.465 6                        15.500
  20395272.803   -21775977.926 8 -16924514.52923        28.500           2.938
 91  6 24 17 46 29.9980000  0  4G 6G11G19G 2
  21216167.186     -375355.445 7   -239073.52122        20.000           1.938
  23066471.592    -6716002.585 6                        15.500
  21458937.709     4175166.097 6                        15.000
  20391102.092   -21797897.655 8 -16941594.83123        28.250           2.938
 91  6 24 17 46 44.9980000  0  4G 6G11G19G 2
  21209711.225     -409281.638 7   -265509.50722        20.000           1.969
  23071204.795    -6691124.892 6                        15.500
  21463669.350     4200042.431 6                        15.750
  20386944.811   -21819743.175 8 -16958617.30823        28.250           2.906
 91  6 24 17 46 59.9980000  0  4G 6G11G19G 2
  21203261.975     -443174.276 7   -291919.34122        20.000           1.969
  23075963.584    -6666127.545 6                        16.000
  21468412.592     4224976.532 6                        15.500
  20382802.256   -21841513.357 8 -16975581.08123        28.000           2.969
 91  6 24 17 47 14.9980000  0  4G 6G11G19G 2
  21196817.975     -477034.560 7   -318303.96722        20.000           2.000
  23080742.240    -6641012.163 6  -5174812.34821        15.250           0.750
  21473168.998     4249967.135 6   3311659.46921        15.750           1.250
  20378673.693   -21863209.624 8 -16992487.25523        28.250           3.063
 91  6 24 17 47 29.9980000  0  4G 6G11G19G 2
  21190381.514     -510860.644 6   -344661.94622        19.750           2.000
  23085543.717    -6615777.330 6  -5155148.86721        15.500           0.813
  21477936.053     4275016.032 6   3331178.07921        15.500           1.219
  20374559.568   -21884830.148 8 -17009334.41123        28.500           3.063
 91  6 24 17 47 44.9980000  0  4G 6G11G19G 2
  21183951.678     -544651.874 7   -370992.76122        20.250           2.031
  23090369.553    -6590422.922 6  -5135392.20221        15.750           0.719
  21482711.240     4300123.469 6   3350742.30621        15.500           1.156
  20370459.428   -21906374.528 8 -17026122.23623        28.500           3.063
 91  6 24 17 47 59.9980000  0  4G 6G11G19G 2
  21177528.022     -578408.214 7   -397296.39422        20.250           2.063
  23095216.740    -6564949.261 6  -5115542.62621        15.750           0.719
  21487500.404     4325289.581 6   3370352.24721        15.500           1.219
  20366374.193   -21927842.859 8 -17042850.79823        28.500           3.156
 91  6 24 17 48 14.9980000  0  4G 6G11G19G 2
  21171111.475     -612128.683 7   -423572.07322        20.000           2.031
  23100087.811    -6539355.621 6  -5095599.54521        15.250           0.781
  21492300.779     4350515.104 6   3390008.48821        15.500           1.219
  20362304.022   -21949234.031 8 -17059519.23923        28.500           3.063
 91  6 24 17 48 29.9980000  0  4G 6G11G19G 2
  21164701.100     -645814.937 7   -449821.09522        20.250           2.000
  23104980.342    -6513644.166 6  -5075564.67321        15.750           0.844
  21497113.772     4375798.023 6   3409709.45621        15.750           1.156
  20358247.475   -21970550.089 8 -17076129.15023        28.500           3.219
 91  6 24 17 48 44.9980000  0  4G 6G11G19G 2
  21158296.092     -679468.080 7   -476044.31222        20.000           2.063
  23109895.522    -6487816.518 6  -5055439.26121        15.500           0.688
  21501936.248     4401137.281 6   3429454.31221        16.000           1.219
  20354205.006   -21991792.197 8 -17092681.43723        28.500           3.094
 91  6 24 17 48 59.9980000  0  4G 6G11G19G 2
  21151900.717     -713080.509 7   -502235.80522        20.500           2.031
  23114833.857    -6461865.423 6  -5035217.66121        15.500           0.625
  21506773.459     4426540.396 6   3449248.93721        14.750           1.250
  20350178.428   -22012952.971 8 -17109170.34523        28.500           3.125
 91  6 24 17 49 14.9980000  0  4G 6G11G19G 2
  21145511.107     -746661.372 7   -528402.70122        20.500           2.031
  23119793.420    -6435800.355 6  -5014907.23921        15.750           0.625
  21511611.756     4451997.923 6   3469085.94921        15.750           1.219
  20346165.482   -22034041.849 8 -17125603.23223        28.500           3.094
 91  6 24 17 49 29.9980000  0  4G 6G11G19G 2
  21139127.412     -780210.672 7   -554545.00122        20.500           2.063
  23124772.787    -6409621.929 6  -4994508.48521        15.500           0.625
  21516468.092     4477509.710 6   3488965.25121        16.000           1.219
  20342165.725   -22055058.927 8 -17141980.16823        28.500           3.156
 91  6 24 17 49 44.9980000  0  4G 6G11G19G 2
  21132748.053     -813727.024 7   -580661.62822        20.500           2.125
  23129777.045    -6383329.036 6  -4974020.54221        15.500           0.625
  21521334.092     4503077.079 6   3508887.86121        16.000           1.188
  20338180.443   -22076002.628 8 -17158299.93323        28.500           3.031
 91  6 24 17 49 59.9980000  0  4G 6G11G19G 2
  21126376.834     -847207.217 7   -606750.08422        20.500           2.031
  23134805.053    -6356918.913 6  -4953441.25821        16.000           0.719
  21526209.412     4528703.079 6   3528856.16121        16.000           1.188
  20334208.975   -22096870.192 8 -17174560.36723        28.000           3.125
 91  6 24 17 50 14.9980000  0  4G 6G11G19G 2
  21120011.842     -880656.267 7   -632814.26922        20.500           2.000
  23139849.373    -6330397.067 6  -4932774.90521        15.750           0.500
  21531098.217     4554382.535 6   3548866.10721        16.250           1.094
  20330251.818   -22117666.745 8 -17190765.47023        28.500           3.188
 91  6 24 17 50 29.9980000  0  4G 6G11G19G 2
  21113653.803     -914069.255 7   -658850.35322        20.750           1.969
  23144920.420    -6303758.950 6  -4912017.96621        15.500           0.594
  21535996.397     4580120.047 6   3568921.30021        15.500           1.125
  20326309.217   -22138387.349 8 -17206911.39023        28.500           2.969
 91  6 24 17 50 44.9980000  0  4G 6G11G19G 2
  21107300.795     -947451.610 7   -684862.57322        20.500           2.125
  23150010.045    -6277010.357 6  -4891174.93521        15.500           0.594
  21540902.951     4605910.081 6   3589017.41621        16.000           1.125
  20322379.381   -22159037.659 8 -17223002.53923        28.500           3.125
 91  6 24 17 50 59.9980000  0  4G 6G11G19G 2
  21100955.631     -980799.055 7   -710847.58822        20.500           2.094
  23155121.889    -6250147.430 6  -4870242.80521        15.250           0.688
  21545819.389     4631756.871 6   3609157.76621        15.750           1.219
  20318463.639   -22179613.688 8 -17239035.80523        28.500           3.031
 91  6 24 17 51 14.9980000  0  3G11G19G 2
  23160254.881    -6223170.129 6  -4849221.57121        14.250           0.563
  21550749.037     4657660.758 6   3629342.60121        16.250           1.188
  20314562.904   -22200114.942 8 -17255010.80223        28.750           3.063
 91  6 24 17 51 29.9980000  0  3G11G19G 2
  23165411.709    -6196079.335 6  -4828111.86821        14.250           0.625
  21555690.568     4683621.127 6   3649571.44821        15.750           1.219
  20310675.647   -22220542.031 8 -17270928.01423        28.750           3.000
 91  6 24 17 51 44.9980000  0  3G11G19G 2
  23170584.717    -6168875.048 6  -4806913.74521        14.000           0.625
  21560641.303     4709638.284 6   3669844.54421        15.750           1.188
  20306802.186   -22240894.733 8 -17286787.26023        29.000           3.156
 91  6 24 17 51 59.9980000  0  3G11G19G 2
  23175785.584    -6141555.435 6  -4785625.75221        14.250           0.750
  21565604.389     4735714.299 6   3690163.50321        15.500           1.281
  20302943.943   -22261170.947 8 -17302586.90323        28.750           3.063
 91  6 24 17 52 14.9980000  0  3G11G19G 2
  23181006.772    -6114130.111 6  -4764255.39921        14.500           0.688
  21570574.061     4761839.712 6   3710520.95621        15.500           1.219
  20299098.311   -22281379.942 8 -17318334.16823        28.750           3.125
 91  6 24 17 52 29.9980000  0  3G11G19G 2
  23186243.936    -6086592.198 6  -4742797.30721        13.500           0.719
  21575555.623     4788021.546 6   3730922.37221        15.000           1.344
  20295266.397   -22301514.736 8 -17334023.61723        28.500           3.094
 91  6 24 17 52 44.9980000  0  3G11G19G 2
  23191507.811    -6058938.884 6  -4721249.30421        14.000           0.688
  21580549.490     4814263.108 6   3751370.33021        15.250           1.313
  20291449.998   -22321572.007 8 -17349652.65223        28.500           3.063
 91  6 24 17 52 59.9980000  0  3G11G19G 2
  23196791.561    -6031175.618 6  -4699615.62621        14.000           0.719
  21585554.818     4840559.261 6   3771860.82321        15.000           1.313
  20287647.029   -22341556.727 8 -17365225.15723        28.750           3.125
 91  6 24 17 53 14.9980000  0  4G 6G11G19G 2
  21044145.248          -0.26417                        20.500
  23202097.584    -6003294.743 6  -4677890.28321        14.000           0.656
  21590569.904     4866917.936 6   3792400.04421        15.250           1.313
  20283859.147   -22361461.205 8 -17380735.13523        28.500           3.125
 91  6 24 17 53 29.9980000  0  4G 6G11G19G 2
  21037867.639      -32986.052 7                        20.500
  23207423.428    -5975300.967 6  -4656076.97021        13.750           0.750
  21595599.248     4893334.893 6   3812984.67021        15.000           1.344
  20280085.639   -22381289.798 8 -17396185.98323        28.500           3.125
 91  6 24 17 53 44.9980000  0  4G 6G11G19G 2
  21031597.529      -65939.147 7        -0.08932        21.000           2.125
  23212769.623    -5947199.985 6  -4634180.12921        13.750           0.813
  21600633.436     4919804.432 6   3833610.27521        15.250           1.344
  20276326.045   -22401047.977 8 -17411581.96523        28.500           3.125
 91  6 24 17 53 59.9980000  0  4G 6G11G19G 2
  21025333.928      -98852.634 7    -25646.95722        20.750           2.063
  23218139.631    -5918985.254 6  -4612194.65221        14.250           0.688
  21605682.225     4946333.352 6   3854282.14721        14.500           1.344
  20272581.256   -22420728.960 8 -17426917.78923        28.500           3.094
 91  6 24 17 54 14.9980000  0  4G 6G11G19G 2
  21019077.553     -131729.626 7    -51265.37722        21.000           2.031
  23223530.389    -5890660.456 6  -4590123.39921        14.000           0.750
  21610740.623     4972918.239 6   3874997.63421        15.000           1.313
  20268849.490   -22440335.988 8 -17442195.98923        28.500           3.094
 91  6 24 17 54 29.9980000  0  4G 6G11G19G 2
  21012828.029     -164568.914 7    -76854.42222        20.750           2.063
  23228941.170    -5862224.830 6  -4567965.79621        14.250           0.781
  21615811.670     4999560.269 6   3895757.64221        14.500           1.344
  20265132.686   -22459868.021 8 -17457415.75223        28.750           3.125
 91  6 24 17 54 44.9980000  0  4G 6G11G19G 2
  21006587.154     -197368.874 7   -102412.82022        20.750           2.031
  23234374.209    -5833677.065 6  -4545720.81921        14.000           0.781
  21620892.943     5026260.778 6   3916563.21821        15.000           1.344
  20261430.803   -22479323.715 8 -17472576.02823        28.750           3.188
 91  6 24 17 54 59.9980000  0  4G 6G11G19G 2
  21000351.873     -230129.789 7   -127940.79422        20.750           1.969
  23239827.092    -5805018.057 6  -4523389.15021        13.250           0.750
  21625983.982     5053019.348 6   3937414.03321        14.500           1.344
  20257742.490   -22498703.593 8 -17487677.22723        29.000           3.219
 91  6 24 17 55 14.9980000  0  4G 6G11G19G 2
  20994125.217     -262852.047 7   -153438.64622        20.750           2.000
  23245302.568    -5776248.577 6  -4500971.40121        14.250           0.719
  21631087.881     5079835.497 6   3958309.72121        14.750           1.438
  20254069.662   -22518008.073 8 -17502719.67423        28.750           3.188
 91  6 24 17 55 29.9980000  0  4G 6G11G19G 2
  20987905.826     -295538.877 7   -178908.89322        21.000           2.094
  23250795.709    -5747372.349 6  -4478470.47221        14.250           0.719
  21636201.404     5106705.756 6   3979247.56721        14.000           1.375
  20250409.639   -22537240.602 8 -17517706.05623        28.750           3.250
 91  6 24 17 55 44.9980000  0  4G 6G11G19G 2
  20981693.607     -328184.421 7   -204346.97122        21.000           2.031
  23256312.904    -5718384.008 6  -4455882.19021        14.250           0.688
  21641323.732     5133635.834 6   4000232.02821        14.750           1.344
  20246764.397   -22556395.405 8 -17532631.87323        28.750           3.188
 91  6 24 17 55 59.9980000  0  3G11G19G 2
  23261851.272    -5689284.055 6  -4433206.92621        14.750           0.906
  21646460.928     5160625.302 6   4021262.76621        14.500           1.250
  20243134.107   -22575472.750 8 -17547497.33123        29.000           3.219
 91  6 24 17 56 14.9980000  0  3G11G19G 2
  23267408.248    -5660077.382 6  -4410448.50921        14.750           0.750
  21651608.201     5187669.668 6   4042336.28421        14.750           1.313
  20239518.397   -22594477.167 8 -17562305.96623        28.750           3.156
 91  6 24 17 56 29.9980000  0  3G11G19G 2
  23272988.865    -5630760.270 6  -4387604.02621        14.500           0.688
  21656764.029     5214772.980 6   4063455.72421        14.750           1.219
  20235915.951   -22613404.706 8 -17577054.69323        28.750           3.313
 91  6 24 17 56 44.9980000  0  4G 6G11G19G 2
  20956920.303      -32486.278 7                        21.000
  23278586.139    -5601332.936 6  -4364673.66921        15.000           0.750
  21661933.350     5241935.125 6   4084621.02021        15.250           1.375
  20232329.107   -22632255.385 8 -17591743.53023        28.750           3.188
 91  6 24 17 56 59.9980000  0  4G 6G11G19G 2
  20950746.576      -64932.295 7        -0.00332        21.000           2.125
  23284210.256    -5571797.735 6  -4341659.24621        14.750           0.750
  21667112.443     5269154.145 6   4105830.62321        15.000           1.250
  20228755.350   -22651031.146 8 -17606373.98823        28.500           3.219
 91  6 24 17 57 14.9980000  0  4G 6G11G19G 2
  20944580.662      -97336.210 7    -25249.80022        21.250           2.094
  23289850.389    -5542152.263 6  -4318558.91821        14.750           0.563
  21672305.756     5296432.749 6   4127086.66921        15.250           1.219
  20225196.967   -22669729.452 8 -17620944.09523        28.500           3.188
 91  6 24 17 57 29.9980000  0  4G 6G11G19G 2
  20938420.943     -129700.906 7    -50469.03422        21.000           2.063
  23295511.600    -5512399.878 6  -4295375.25821        14.750           0.594
  21677505.592     5323767.609 6   4148386.54121        15.250           1.219
  20221653.193   -22688353.371 8 -17635456.23323        28.500           3.250
 91  6 24 17 57 44.9980000  0  4G 6G11G19G 2
  20932270.779     -162024.301 7    -75656.08922        21.000           2.063
  23301193.818    -5482538.996 6  -4272107.07621        15.000           0.563
  21682718.912     5351160.880 6   4169731.93221        15.500           1.281
  20218123.928   -22706900.923 8 -17649908.86623        28.500           3.313
 91  6 24 17 57 59.9980000  0  4G 6G11G19G 2
  20926126.584     -194307.633 7   -100811.92622        21.000           2.156
  23306897.764    -5452571.279 6  -4248755.64721        14.750           0.500
  21687942.920     5378611.035 6   4191121.64321        15.750           1.188
  20214608.522   -22725373.660 8 -17664303.20023        28.750           3.219
 91  6 24 17 58 14.9980000  0  4G 6G11G19G 2
  20919991.451     -226549.753 7   -125935.64822        21.500           2.125
  23312621.029    -5422496.081 6  -4225320.44121        14.250           0.500
  21693175.615     5406119.086 6   4212556.47421        15.750           1.250
  20211108.545   -22743770.483 8 -17678638.38023        28.750           3.188
 91  6 24 17 58 29.9980000  0  4G 6G11G19G 2
  20913865.068     -258748.547 7   -151025.61422        21.500           2.031
  23318364.209    -5392311.863 6  -4201800.31021        14.750           0.563
  21698427.272     5433686.758 6   4234037.76421        14.500           1.188
  20207622.076   -22762089.357 8 -17692912.82123        29.000           3.094
 91  6 24 17 58 44.9980000  0  4G 6G11G19G 2
  20907745.428     -290902.745 7   -176080.82422        21.250           2.031
  23324126.834    -5362017.694 6  -4178194.48421        14.000           0.594
  21703681.225     5461315.407 6   4255566.56521        15.500           1.250
  20204151.076   -22780329.148 8 -17707125.64223        28.750           3.094
 91  6 24 17 58 59.9980000  0  4G 6G11G19G 2
  20901635.357     -323014.118 7   -201102.66722        21.500           2.125
  23329914.443    -5331615.880 6  -4154504.79421        14.500           0.531
  21708951.943     5489002.909 6   4277141.22521        15.000           1.156
  20200694.772   -22798492.002 8 -17721278.50923        28.500           3.063
 91  6 24 17 59 14.9980000  0  4G 6G11G19G 2
  20895531.506     -355088.152 7   -226095.40822        21.500           2.063
  23335720.201    -5301112.360 6  -4130735.85221        14.500           0.625
  21714228.295     5516743.637 6   4298757.35721        15.250           1.188
  20197251.334   -22816583.724 8 -17735375.94723        28.250           3.000
 91  6 24 17 59 29.9980000  0  4G 6G11G19G 2
  20889437.029     -387118.069 7   -251053.77222        21.250           2.250
  23341543.881    -5270500.809 6  -4106882.71721        14.500           0.500
  21719518.951     5544544.091 6   4320420.03321        15.250           1.250
  20193823.865   -22834597.509 8 -17749412.65823        28.000           3.125
 91  6 24 17 59 44.9980000  0  4G 6G11G19G 2
  20883349.279     -419105.480 7   -275979.02222        21.250           2.031
  23347388.756    -5239783.286 6  -4082947.01021        14.250           0.594
  21724819.490     5572402.625 6   4342127.96621        15.000           1.188
  20190410.561   -22852535.242 8 -17763390.10823        28.250           3.031
 91  6 24 17 59 59.9980000  0  4G 6G11G19G 2
  20877270.490     -451047.760 7   -300869.09822        21.250           2.188
  23353253.904    -5208957.808 6  -4058927.19121        14.250           0.656
  21730134.342     5600321.662 6   4363883.03221        14.750           1.063
  20187012.701   -22870394.311 8 -17777306.25823        28.000           3.125
 91  6 24 18  0 14.9980000  0  4G 6G11G19G 2
  20871199.897     -482947.708 7   -325726.18722        21.250           2.094
  23359141.123    -5178027.616 6  -4034825.78221        13.500           0.656
  21735456.779     5628298.234 6   4385682.94821        14.750           1.313
  20183628.256   -22888177.635 8 -17791163.38823        28.000           3.156
 91  6 24 18  0 29.9980000  0  4G 6G11G19G 2
  20865139.248     -514803.183 7   -350548.63022        21.250           2.188
  23365045.482    -5146990.995 6  -4010641.43921        12.750           0.594
  21740790.584     5656334.146 6   4407529.09421        15.000           1.156
  20180259.600   -22905883.379 8 -17804960.06823        28.000           3.063
 91  6 24 18  0 44.9980000  0  4G 6G11G19G 2
  20859085.451     -546612.619 7   -375335.19522        21.500           2.188
  23370971.693    -5115846.823 6  -3986373.28321        12.750           0.563
  21746137.779     5684430.842 6   4429422.60821        14.750           1.188
  20176904.639   -22923510.109 8 -17818695.17823        28.250           3.188
 91  6 24 18  0 59.9980000  0  4G 6G11G19G 2
  20853040.600     -578382.714 7   -400091.10322        21.500           2.125
  23376916.889    -5084602.297 6  -3962026.94321        12.000           0.563
  21751496.123     5712581.595 6   4451358.23921        15.000           1.156
  20173564.553   -22941064.741 8 -17832374.11023        28.500           3.313
 91  6 24 18  1 14.9980000  0  4G 6G11G19G 2
  20847003.529     -610106.159 7   -424810.66522        21.500           2.188
  23382886.170    -5053250.588 6  -3937597.09821        12.750           0.375
  21756863.022     5740793.321 6   4473341.39321        14.750           1.188
  20170239.334   -22958540.301 8 -17845991.42923        28.250           3.313
 91  6 24 18  1 29.9980000  0  3G11G19G 2
  23388870.232    -5021793.713 6  -3913085.29421        13.000           0.594
  21762248.443     5769064.072 6   4495370.52221        13.750           1.063
  20166928.123   -22975938.511 8 -17859548.47623        28.250           3.281
 91  6 24 18  1 44.9980000  0  3G11G19G 2
  23394877.475    -4990235.003 6  -3888494.12821        13.250           0.438
  21767633.256     5797391.007 6   4517443.44121        14.250           1.125
  20163631.576   -22993262.295 8 -17873047.52923        28.250           3.188
 91  6 24 18  1 59.9980000  0  3G11G19G 2
  23400903.514    -4958572.016 6  -3863821.70521        13.000           0.469
  21773038.334     5825776.881 6   4539562.28621        14.500           1.094
  20160349.522   -23010508.851 7 -17886486.40023        27.750           3.188
 91  6 24 18  2 14.9980000  0  3G11G19G 2
  23406947.647    -4926805.212 6  -3839068.38221        13.250           0.406
  21778447.693     5854221.582 6   4561726.96721        14.500           1.156
  20157082.772   -23027678.383 8 -17899865.25223        28.000           3.188
 91  6 24 18  2 29.9980000  0  3G11G19G 2
  23413010.248    -4894934.735 6  -3814234.25621        12.750           0.500
  21783873.975     5882725.111 6   4583937.49421        14.750           1.125
  20153829.787   -23044770.836 8 -17913184.04423        28.250           3.188
 91  6 24 18  2 44.9980000  0  3G11G19G 2
  23419098.131    -4862962.541 6  -3789320.89221        14.000           0.500
  21789306.131     5911285.964 6   4606192.68921        15.000           1.063
  20150591.779   -23061787.684 8 -17926443.92423        28.000           3.156
 91  6 24 18  2 59.9980000  0  3G11G19G 2
  23425200.686    -4830885.990 6  -3764326.20521        13.500           0.563
  21794758.600     5939906.871 6   4628494.67921        14.250           1.063
  20147368.068   -23078725.930 8 -17939642.55523        28.000           3.125
 91  6 24 18  3 14.9980000  0  3G11G19G 2
  23431322.240    -4798706.629 6  -3739251.43221        12.500           0.531
  21800212.217     5968586.581 6   4650842.48921        15.000           1.000
  20144158.795   -23095587.024 7 -17952781.06923        27.750           3.031
 91  6 24 18  3 29.9980000  0  3G11G19G 2
  23437465.287    -4766425.804 6  -3714097.58321        12.750           0.563
  21805680.334     5997324.174 6   4673235.39821        14.500           1.031
  20140965.693   -23112371.949 8 -17965860.23023        28.000           3.000
 91  6 24 18  3 44.9980000  0  3G11G19G 2
  23443628.100    -4734044.482 6  -3688865.41021        12.750           0.531
  21811158.975     6026118.991 6   4695672.90021        14.750           1.031
  20137786.154   -23129081.412 8 -17978880.58923        28.000           3.031
 91  6 24 18  3 59.9980000  0  3G11G19G 2
  23449808.811    -4701561.366 6  -3663553.94821        13.500           0.531
  21816651.475     6054972.544 6   4718156.16921        14.750           1.094
  20134620.975   -23145713.796 7 -17991840.88223        27.750           2.938
 91  6 24 18  4 14.9980000  0  3G11G19G 2
  23456008.818    -4668977.461 6  -3638163.93021        13.250           0.594
  21822151.561     6083884.290 6   4740684.78721        15.250           1.063
  20131470.256   -23162269.718 8 -18004741.59823        28.000           2.938
 91  6 24 18  4 29.9980000  0  3G11G19G 2
  23462228.357    -4636294.684 6  -3612696.86921        13.250           0.563
  21827667.092     6112852.525 6   4763257.41821        14.750           1.094
  20128333.936   -23178750.707 8 -18017583.92123        28.000           2.938
 91  6 24 18  4 44.9980000  0  3G11G19G 2
  23468465.037    -4603512.095 6  -3587152.04721        13.250           0.469
  21833187.209     6141878.365 6   4785874.92821        14.750           1.063
  20125212.248   -23195155.667 8 -18030367.00323        28.000           2.938
 91  6 24 18  4 59.9980000  0  3G11G19G 2
  23474725.553    -4570628.604 6  -3561528.55621        13.500           0.500
  21838723.482     6170963.126 6   4808538.37021        14.250           1.125
  20122105.193   -23211483.289 8 -18043089.82323        28.000           2.969
 91  6 24 18  5 14.9980000  0  3G11G19G 2
  23481001.514    -4537647.564 6  -3535829.09721        13.000           0.563
  21844266.584     6200103.656 6   4831245.23821        15.000           1.031
  20119012.389   -23227736.531 8 -18055754.68423        28.250           2.875
 91  6 24 18  5 29.9980000  0  3G11G19G 2
  23487298.272    -4504565.628 6  -3510051.01121        14.250           0.594
  21849825.873     6229303.841 6   4853998.60921        14.500           1.000
  20115934.303   -23243911.661 8 -18068358.67723        28.250           2.938
 91  6 24 18  5 44.9980000  0  4G 6G11G19G 2
  20739813.897      -30901.000 7                        21.750
  23493612.959    -4471385.111 6  -3484196.09321        13.500           0.563
  21855391.381     6258561.589 6   4876796.83321        14.750           1.031
  20112870.811   -23260010.701 8 -18080903.37623        28.250           2.813
 91  6 24 18  5 59.9980000  0  4G 6G11G19G 2
  20733941.990      -61757.180 7        -0.04032        21.750           2.375
  23499944.092    -4438108.713 6  -3458266.48521        14.000           0.531
  21860971.928     6287874.537 6   4899638.07021        14.500           1.000
  20109821.443   -23276036.265 8 -18093390.82423        28.250           3.000
 91  6 24 18  6 14.9980000  0  4G 6G11G19G 2
  20728079.303      -92568.565 7    -24008.89622        22.000           2.375
  23506293.451    -4404736.770 6  -3432262.41621        12.250           0.688
  21866558.670     6317242.527 6   4922522.19721        15.000           1.000
  20106785.920   -23291988.397 8 -18105821.05123        28.250           2.906
 91  6 24 18  6 29.9980000  0  4G 6G11G19G 2
  20722223.998     -123334.888 7    -47982.64522        22.000           2.313
  23512662.537    -4371269.529 6  -3406184.11121        12.750           0.625
  21872157.365     6346665.581 6   4945449.23521        14.500           1.094
  20103764.076   -23307866.884 8 -18118193.89223        28.500           3.000
 91  6 24 18  6 44.9980000  0  4G 6G11G19G 2
  20716377.561     -154053.983 7    -71919.59222        21.500           2.344
  23519050.654    -4337705.365 6  -3380030.25521        13.500           0.625
  21877769.076     6376145.734 6   4968420.76221        15.000           0.969
  20100757.186   -23323669.657 8 -18130507.73423        28.250           2.969
 91  6 24 18  6 59.9980000  0  4G 6G11G19G 2
  20710541.615     -184723.537 7    -95817.93422        21.750           2.375
  23525457.693    -4304042.567 6  -3353799.54621        13.500           0.625
  21883389.623     6405685.084 6   4991438.42121        14.500           1.063
  20097764.561   -23339394.745 8 -18142761.04223        28.000           3.000
 91  6 24 18  7 14.9980000  0  4G 6G11G19G 2
  20704714.623     -215346.709 7   -119680.13622        21.750           2.375
  23531879.865    -4270284.581 6  -3327494.67321        12.750           0.625
  21889018.857     6435280.375 6   5014499.66421        14.750           1.031
  20094786.537   -23355045.311 8 -18154956.27923        28.000           2.938
 91  6 24 18  7 29.9980000  0  4G 6G11G19G 2
  20698896.147     -245923.925 7   -143506.53622        21.750           2.344
  23538316.482    -4236432.484 5  -3301116.44221        11.750           0.656
  21894664.029     6464930.581 6   5037603.69621        14.750           1.063
  20091821.772   -23370622.266 8 -18167094.16723        28.000           2.844
 91  6 24 18  7 44.9980000  0  4G 6G11G19G 2
  20693088.100     -276454.497 7   -167296.58122        21.750           2.406
  23544779.311    -4202486.158 6  -3274664.81721        12.500           0.500
  21900315.482     6494636.275 6   5060750.97221        14.500           1.063
  20088871.334   -23386125.072 8 -18179174.27223        28.000           3.000
 91  6 24 18  7 59.9980000  0  4G 6G11G19G 2
  20687284.865     -306937.024 7   -191049.19222        21.500           2.344
  23551257.764    -4168444.677 6  -3248139.02121        13.500           0.469
  21905979.436     6524398.747 6   5083942.49221        13.750           1.094
  20085936.561   -23401552.516 8 -18191195.65723        28.000           2.938
 91  6 24 18  8 14.9980000  0  4G 6G11G19G 2
  20681493.748     -337372.232 7   -214764.92922        21.500           2.375
  23557753.873    -4134309.318 6  -3221540.06821        12.750           0.500
  21911652.998     6554217.058 6   5107177.51621        14.500           1.000
  20083014.553   -23416905.439 7 -18203158.96223        27.750           2.906
 91  6 24 18  8 29.9980000  0  4G 6G11G19G 2
  20675710.514     -367759.067 7   -238442.97222        21.500           2.438
  23564267.350    -4100079.578 6  -3194867.58021        13.000           0.438
  21917338.592     6584091.986 6   5130456.65221        14.000           1.063
  20080107.842   -23432182.898 7 -18215063.47023        27.750           2.875
 91  6 24 18  8 44.9980000  0  3G11G19G 2
  23570799.607    -4065757.085 6  -3168122.82621        12.750           0.500
  21923033.397     6614021.992 6   5153778.71821        14.750           1.031
  20077214.381   -23447386.557 8 -18226910.47423        28.000           2.906
 91  6 24 18  8 59.9980000  0  3G11G19G 2
  23577349.686    -4031341.531 6  -3141305.55321        12.750           0.438
  21928741.045     6644007.800 6   5177144.26121        14.250           0.969
  20074335.303   -23462515.787 7 -18238699.48123        27.750           2.938
 91  6 24 18  9 14.9980000  0  3G11G19G 2
  23583914.326    -3996830.621 5  -3114413.96621        11.500           0.469
  21934456.178     6674052.046 6   5200555.33621        15.000           1.063
  20071470.498   -23477567.889 7 -18250428.38623        27.750           2.875
 91  6 24 18  9 29.9980000  0  3G11G19G 2
  23590500.795    -3962227.146 5  -3087450.25521        11.750           0.469
  21940186.186     6704152.041 6   5224009.85821        14.500           1.031
  20068620.475   -23492545.526 7 -18262099.26923        27.750           2.938
 91  6 24 18  9 44.9980000  0  3G11G19G 2
  23597103.686    -3927526.812 6  -3060411.09421        12.000           0.531
  21945924.584     6734312.669 6   5247511.62221        14.500           1.094
  20065786.068   -23507443.883 7 -18273708.38023        27.250           2.875
 91  6 24 18  9 59.9980000  0  3G11G19G 2
  23603723.943    -3892735.010 5  -3033300.62221        11.750           0.531
  21951677.623     6764528.752 6   5271056.59421        14.250           0.969
  20062965.326   -23522267.982 7 -18285259.61923        27.250           2.875
 91  6 24 18 10 14.9980000  0  3G11G19G 2
  23610360.084    -3857851.325 5  -3006118.57521        10.750           0.438
  21957435.232     6794800.960 6   5294645.30721        14.750           1.063
  20060158.443   -23537017.343 7 -18296752.62823        27.500           2.875
 91  6 24 18 10 29.9980000  0  3G11G19G 2
  23617018.717    -3822874.311 5  -2978863.81121        11.500           0.500
  21963206.240     6825131.099 6   5318279.16121        14.250           0.969
  20057367.334   -23551690.120 7 -18308185.95823        27.250           2.906
 91  6 24 18 10 44.9980000  0  3G11G19G 2
  23623691.053    -3787805.989 6  -2951537.90421        12.500           0.469
  21968988.482     6855517.243 6   5341956.64621        14.250           1.063
  20054588.584   -23566287.925 7 -18319560.86823        27.000           2.781
 91  6 24 18 10 59.9980000  0  3G11G19G 2
  23630380.084    -3752647.327 6  -2924141.56821        12.000           0.406
  21974787.826     6885958.784 6   5365677.30221        13.500           0.969
  20051824.365   -23580811.512 7 -18330877.94323        27.250           2.781
 91  6 24 18 11 14.9980000  0  3G11G19G 2
  23637090.498    -3717392.602 6  -2896670.39621        12.250           0.500
  21980588.170     6916461.786 6   5389445.85021        14.000           0.938
  20049075.295   -23595254.824 7 -18342132.47123        27.250           2.844
 91  6 24 18 11 29.9980000  0  3G11G19G 2
  23643816.326    -3682048.992 6  -2869129.97321        13.000           0.469
  21986403.709     6947019.201 6   5413256.79621        13.250           0.938
  20046341.514   -23609624.838 7 -18353329.88023        27.500           2.781
 91  6 24 18 11 44.9980000  0  3G11G19G 2
  23650560.068    -3646610.795 6  -2841515.82721        12.250           0.406
  21992228.264     6977637.273 6   5437115.01221        13.500           1.031
  20043621.732   -23623915.462 7 -18364465.42823        27.500           2.563
 91  6 24 18 11 59.9980000  0  3G11G19G 2
  23657324.498    -3611083.214 6  -2813832.05821        12.500           0.438
  21998065.873     7008310.911 6   5461016.52721        13.500           0.875
  20040916.772   -23638131.490 7 -18375542.85023        27.750           2.750
 91  6 24 18 12 14.9980000  0  3G11G19G 2
  23664100.193    -3575464.598 6  -2786077.33521        12.000           0.469
  22003913.092     7039042.120 6   5484962.89921        13.500           1.000
  20038226.272   -23652270.894 8 -18386560.56323        28.000           2.719
 91  6 24 18 12 29.9980000  0  3G11G19G 2
  23670894.561    -3539753.815 6  -2758250.81721        12.000           0.375
  22009771.037     7069832.342 6   5508955.26021        13.000           0.969
  20035550.514   -23666332.336 8 -18397517.52523        28.000           2.656
 91  6 24 18 12 44.9980000  0  3G11G19G 2
  23677710.857    -3503951.643 6  -2730353.05621        13.750           0.438
  22015641.998     7100680.883 6   5532993.05721        13.250           0.938
  20032889.498   -23680316.398 8 -18408414.19223        28.000           2.594
 91  6 24 18 12 59.9980000  0  3G11G19G 2
  23684539.412    -3468060.639 6  -2702386.08821        13.000           0.375
  22021524.154     7131585.564 6   5557074.60721        13.250           0.938
  20030241.943   -23694225.236 8 -18419252.24523        28.250           2.656
 91  6 24 18 13 14.9980000  0  3G11G19G 2
  23691385.725    -3432080.755 6  -2674349.86821        12.750           0.375
  22027413.834     7162546.884 6   5581200.28521        13.000           0.813
  20027610.357   -23708058.483 8 -18430031.39723        28.250           2.625
 91  6 24 18 13 29.9980000  0  3G11G19G 2
  23698251.436    -3396010.261 6  -2646243.02921        12.750           0.375
  22033319.045     7193566.964 6   5605371.75621        13.250           0.875
  20024992.732   -23721813.947 8 -18440749.93323        28.250           2.563
 91  6 24 18 13 44.9980000  0  3G11G19G 2
  23705129.193    -3359849.573 5  -2618065.92121        11.750           0.438
  22039232.662     7224645.468 6   5629588.74221        13.500           0.813
  20022388.850   -23735491.940 8 -18451408.10523        28.250           2.625
 91  6 24 18 13 59.9980000  0  3G11G19G 2
  23712029.576    -3323599.556 6  -2589819.20221        12.250           0.469
  22045161.342     7255781.714 6   5653850.73421        12.250           0.844
  20019801.881   -23749093.027 8 -18462006.35123        28.500           2.625
 91  6 24 18 14 14.9980000  0  3G11G19G 2
  23718945.084    -3287259.688 6  -2561502.46521        12.500           0.500
  22051089.279     7286976.764 6   5678158.54121        13.000           0.938
  20017228.014   -23762616.194 8 -18472543.88123        28.250           2.625
 91  6 24 18 14 29.9980000  0  3G11G19G 2
  23725872.725    -3250832.687 5  -2533117.85021        11.000           0.406
  22057040.014     7318228.141 6   5702510.24321        13.250           0.875
  20014669.248   -23776063.944 8 -18483022.64523        28.500           2.625
 91  6 24 18 14 44.9980000  0  3G11G19G 2
  23732823.428    -3214316.735 5  -2504663.91621        10.500           0.313
  22062997.311     7349538.065 6   5726907.56321        13.500           0.938
  20012124.576   -23789434.262 8 -18493441.07223        28.500           2.719
 91  6 24 18 14 59.9980000  0  3G11G19G 2
  23739788.818    -3177710.642 5  -2476139.74521        10.750           0.375
  22068969.451     7380907.882 6   5751351.55421        13.750           0.969
  20009594.701   -23802725.484 8 -18503797.86423        28.250           2.688
 91  6 24 18 15 14.9980000  0  3G11G19G 2
  23746773.287    -3141016.706 5  -2447547.10221        10.750           0.406
  22074948.990     7412335.468 6   5775840.54621        13.500           0.875
  20007081.662   -23815939.635 8 -18514094.60223        28.500           2.719
 91  6 24 18 15 29.9980000  0  3G11G19G 2
  23753771.654    -3104234.949 5  -2418886.04021        10.000           0.469
  22080941.529     7443821.199 6   5800374.86621        13.000           0.844
  20004581.475   -23829076.598 8 -18524331.19323        28.500           2.625
 91  6 24 18 15 44.9980000  0  3G11G19G 2
  23760786.170    -3067362.762 5  -2390154.51221        10.750           0.375
  22086941.654     7475368.048 6   5824956.80721        13.500           0.875
  20002096.514   -23842133.362 8 -18534505.29523        28.250           2.688
 91  6 24 18 15 59.9980000  0  3G11G19G 2
  23767820.865    -3030404.673 5  -2361356.04021        10.750           0.469
  22092957.014     7506971.755 6   5849583.04921        13.250           0.844
  19999626.701   -23855114.182 8 -18544620.21723        28.250           2.688
 91  6 24 18 16 14.9980000  0  3G11G19G 2
  23774868.811    -2993361.238 5  -2332491.09821        11.000           0.406
  22098981.529     7538631.930 6   5874253.29221        13.500           0.813
  19997170.436   -23868019.075 8 -18554675.97823        28.000           2.750
 91  6 24 18 16 29.9980000  0  3G11G19G 2
  23781936.732    -2956230.364 5  -2303557.99121        11.500           0.531
  22105018.162     7570350.874 6   5898969.33721        13.000           0.813
  19994730.326   -23880845.635 8 -18564670.69823        28.000           2.688
 91  6 24 18 16 44.9980000  0  3G11G19G 2
  23789016.506    -2919010.161 5  -2274555.30421        11.000           0.469
  22111066.982     7602130.925 6   5923732.98321        13.500           0.844
  19992303.514   -23893591.801 8 -18574602.77423        28.000           2.750
 91  6 24 18 16 59.9980000  0  3G11G19G 2
  23796117.490    -2881704.400 5  -2245485.92021        11.750           0.531
  22117123.803     7633968.597 6   5948541.53921        13.250           0.875
  19989893.467   -23906260.980 8 -18584474.85923        28.000           2.813
 91  6 24 18 17 14.9980000  0  3G11G19G 2
  23803234.967    -2844312.210 5  -2216349.19121        11.500           0.469
  22123195.209     7665865.033 6   5973395.88121        13.500           0.875
  19987497.662   -23918852.018 8 -18594286.05923        28.250           2.781
 91  6 24 18 17 29.9980000  0  3G11G19G 2
  23810364.420    -2806836.516 5  -2187147.41121        11.500           0.438
  22129276.115     7697817.621 6   5998293.98421        13.250           0.875
  19985115.115   -23931367.613 7 -18604038.47023        27.750           2.688
 91  6 24 18 17 44.9980000  0  4G 6G11G19G 2
  20468725.967          -0.75817                        22.750
  23817512.068    -2769275.265 5  -2157878.95921        11.000           0.438
  22135363.795     7729828.653 6   6023237.62921        13.500           0.938
  19982748.998   -23943805.153 8 -18613730.05723        28.000           2.719
 91  6 24 18 17 59.9980000  0  4G 6G11G19G 2
  20463334.178      -28340.292 7                        23.000
  23824675.678    -2731630.456 5  -2128545.37021        10.500           0.500
  22141468.772     7761896.497 6   6048225.52821        13.000           0.844
  19980396.529   -23956166.469 8 -18623362.25023        28.250           2.656
 91  6 24 18 18 14.9980000  0  4G 6G11G19G 2
  20457953.107      -56621.214 7        -0.38833        22.750           2.500
  23831855.482    -2693901.313 5  -2099146.09921        10.750           0.469
  22147579.561     7794022.165 6   6073258.49521        13.250           0.875
  19978059.115   -23968450.566 8 -18632934.27023        28.250           2.688
 91  6 24 18 18 29.9980000  0  4G 6G11G19G 2
  20452581.748      -84842.234 7    -21990.79223        22.750           2.500
  23839051.240    -2656087.277 5  -2069680.66121        10.000           0.500
  22153708.053     7826206.604 6   6098337.26121        13.000           0.844
  19975736.982   -23980656.445 8 -18642445.34223        28.500           2.656
 91  6 24 18 18 44.9980000  0  4G 6G11G19G 2
  20447222.826     -113005.913 7    -43936.51022        22.500           2.469
  23846260.951    -2618191.323 5  -2040151.44121        10.750           0.438
  22159840.287     7858447.019 6   6123459.64121        13.000           1.000
  19973427.889   -23992786.668 8 -18651897.46323        28.500           2.656
 91  6 24 18 18 59.9980000  0  4G 6G11G19G 2
  20441873.889     -141109.302 7    -65835.24723        22.500           2.625
  23853493.326    -2580210.989 5  -2010556.43321        11.500           0.406
  22165989.389     7890746.185 6   6148627.79221        12.750           1.000
  19971134.873   -24004838.580 8 -18661288.56023        28.500           2.688
 91  6 24 18 19 14.9980000  0  4G 6G11G19G 2
  20436537.834     -169153.252 7    -87687.66923        22.500           2.563
  23860733.131    -2542147.726 5  -1980896.76521        10.750           0.406
  22172143.209     7923102.851 6   6173840.76621        13.000           0.813
  19968855.295   -24016813.329 8 -18670619.52923        28.500           2.625
 91  6 24 18 19 29.9980000  0  4G 6G11G19G 2
  20431212.350     -197137.314 7   -109493.42723        22.500           2.563
  23867991.732    -2504001.650 5  -1951172.63421        11.500           0.375
  22178313.373     7955517.413 6   6199098.83721        12.500           0.844
  19966592.084   -24028710.729 8 -18679890.22923        28.250           2.656
 91  6 24 18 19 44.9980000  0  4G 6G11G19G 2
  20425899.256     -225059.433 7   -131250.91723        22.500           2.563
  23875267.053    -2465771.239 5  -1921382.72821        10.500           0.281
  22184490.420     7987991.649 6   6224403.41521        13.000           0.813
  19964342.967   -24040528.916 8 -18689099.20223        28.500           2.656
 91  6 24 18 19 59.9980000  0  4G 6G11G19G 2
  20420596.936     -252922.288 7   -152962.22423        22.250           2.500
  23882556.342    -2427459.675 5  -1891529.59121        10.000           0.219
  22190684.592     8020522.577 6   6249752.16921        12.750           0.813
  19962108.615   -24052270.792 8 -18698248.71523        28.250           2.750
 91  6 24 18 20 14.9980000  0  4G 6G11G19G 2
  20415306.725     -280721.294 7   -174623.78523        22.250           2.563
  23889865.920    -2389062.941 5  -1861610.13521        11.000           0.438
  22196884.693     8053114.500 6   6275148.44821        12.750           0.906
  19959889.506   -24063932.013 8 -18707335.37823        28.250           2.625
 91  6 24 18 20 29.9980000  0  4G 6G11G19G 2
  20410028.365     -308460.075 7   -196238.41323        22.000           2.594
  23897185.725    -2350585.165 5  -1831627.46721        10.500           0.219
  22203100.326     8085763.548 6   6300589.24721        12.250           0.875
  19957684.897   -24075516.466 8 -18716362.22223        28.250           2.719
 91  6 24 18 20 44.9980000  0  4G 6G11G19G 2
  20404760.795     -336139.083 7   -217806.46223        22.000           2.531
  23904523.170    -2312027.332 5  -1801582.42821        10.500           0.344
  22209322.350     8118469.024 6   6326074.01021        12.500           0.844
  19955495.107   -24087024.738 8 -18725329.70723        28.000           2.750
 91  6 24 18 20 59.9980000  0  2G19G 2
  22215556.451     8151235.776 5   6351606.51621        11.750           0.781
  19953320.232   -24098451.959 8 -18734234.03323        28.250           2.625
 91  6 24 18 21 14.9980000  0  2G19G 2
  22221802.701     8184058.151 6   6377182.36421        12.250           0.813
  19951160.365   -24109803.729 8 -18743079.56723        28.000           2.625
 91  6 24 18 21 29.9980000  0  2G19G 2
  22228060.576     8216939.543 6   6402804.20421        12.000           0.781
  19949015.240   -24121076.609 8 -18751863.63223        28.250           2.656
 91  6 24 18 21 44.9980000  0  2G19G 2
  22234328.076     8249882.030 6   6428473.64921        12.250           0.750
  19946885.490   -24132268.593 8 -18760584.65823        28.250           2.688
 91  6 24 18 21 59.9980000  0  2G19G 2
  22240607.201     8282882.874 5   6454188.56921        11.750           0.844
  19944770.725   -24143382.434 8 -18769244.79623        28.250           2.656
 91  6 24 18 22 14.9980000  0  2G19G 2
  22246898.232     8315940.555 6   6479947.77621        12.250           0.750
  19942670.147   -24154419.761 8 -18777845.31323        28.500           2.656
 91  6 24 18 22 29.9980000  0  2G19G 2
  22253202.193     8349057.347 6   6505753.05121        12.000           0.750
  19940585.162   -24165378.114 8 -18786384.28923        28.250           2.625
 91  6 24 18 22 44.9980000  0  2G19G 2
  22259514.857     8382233.876 6   6531604.86521        12.000           0.688
  19938514.561   -24176256.630 8 -18794861.05023        28.500           2.594
 91  6 24 18 22 59.9980000  0  2G19G 2
  22265839.936     8415469.710 6   6557502.88721        12.500           0.844
  19936460.162   -24187055.676 8 -18803275.89423        28.500           2.656
 91  6 24 18 23 14.9980000  0  2G19G 2
  22272174.318     8448765.049 6   6583447.29321        12.500           0.750
  19934420.482   -24197775.230 8 -18811628.79323        28.750           2.594
 91  6 24 18 23 29.9980000  0  2G19G 2
  22278523.748     8482116.286 5   6609435.23521        11.500           0.563
  19932393.842   -24208419.018 8 -18819922.65323        29.000           2.531
 91  6 24 18 23 44.9980000  0  2G19G 2
  22284877.006     8515524.647 6   6635467.69721        12.250           0.719
  19930384.428   -24218985.495 8 -18828156.27023        29.000           2.625
 91  6 24 18 23 59.9980000  0  2G19G 2
  22291249.842     8548992.001 6   6661546.12521        12.000           0.625
  19928387.951   -24229472.824 8 -18836328.21323        29.250           2.656
 91  6 24 18 24 14.9980000  0  2G19G 2
  22297625.920     8582516.675 6   6687669.21621        12.750           0.719
  19926406.897   -24239882.799 8 -18844439.88423        29.000           2.688
 91  6 24 18 24 29.9980000  0  2G19G 2
  22304017.959     8616101.923 6   6713839.50821        12.500           0.625
  19924442.076   -24250211.982 8 -18852488.59423        29.000           2.594
 91  6 24 18 24 44.9980000  0  2G19G 2
  22310419.756     8649746.853 6   6740056.29921        12.750           0.719
  19922490.748   -24260461.303 8 -18860475.08123        29.000           2.656
 91  6 24 18 24 59.9980000  0  2G19G 2
  22316836.678     8683449.780 6   6766318.30021        12.500           0.656
  19920555.936   -24270632.372 8 -18868400.58923        29.000           2.594
 91  6 24 18 25 14.9980000  0  2G19G 2
  22323259.725     8717217.367 6   6792630.67421        12.500           0.688
  19918636.865   -24280718.472 8 -18876259.88823        29.000           2.750
 91  6 24 18 25 29.9980000  0  2G19G 2
  22329696.912     8751038.692 6   6818984.92321        12.750           0.719
  19916731.100   -24290730.526 8 -18884061.48923        28.750           2.656
 91  6 24 18 25 44.9980000  0  2G19G 2
  22336142.990     8784917.353 6   6845383.85421        13.000           0.688
  19914840.709   -24300664.980 8 -18891802.62523        28.500           2.719
 91  6 24 18 25 59.9980000  0  2G19G 2
  22342601.107     8818853.017 6   6871827.19721        12.750           0.719
  19912965.264   -24310522.182 8 -18899483.55823        28.500           2.719
 91  6 24 18 26 14.9980000  0  2G19G 2
  22349069.623     8852848.547 6   6898317.18721        12.500           0.625
  19911104.107   -24320299.191 8 -18907102.01323        28.500           2.719
 91  6 24 18 26 29.9980000  0  2G19G 2
  22355555.568     8886902.278 5   6924852.53121        11.750           0.625
  19909259.201   -24329997.496 8 -18914659.13623        28.500           2.719
 91  6 24 18 26 44.9980000  0  2G19G 2
  22362039.350     8921015.005 6   6951433.85321        12.250           0.781
  19907428.873   -24339616.347 8 -18922154.34823        28.750           2.563
 91  6 24 18 26 59.9980000  0  2G19G 2
  22368544.553     8955183.851 6   6978058.88521        12.000           0.656
  19905613.029   -24349158.631 8 -18929589.89523        28.500           2.719
 91  6 24 18 27 14.9980000  0  2G19G 2
  22375055.553     8989409.924 5   7004728.54221        11.750           0.719
  19903810.982   -24358623.347 8 -18936965.00023        28.750           2.688
 91  6 24 18 27 29.9980000  0  2G19G 2
  22381582.506     9023698.673 6   7031447.01321        12.000           0.719
  19902026.865   -24368004.797 8 -18944275.22523        28.500           2.625
 91  6 24 18 27 44.9980000  0  2G19G 2
  22388116.123     9058046.610 5   7058211.60821        11.500           0.688
  19900256.561   -24377306.396 8 -18951523.22623        28.750           2.656
 91  6 24 18 27 59.9980000  0  2G19G 2
  22394667.764     9092452.228 5   7085021.14521        11.000           0.594
  19898501.076   -24386529.748 8 -18958710.25723        29.000           2.781
 91  6 24 18 28 14.9980000  0  2G19G 2
  22401222.686     9126916.483 5   7111876.36821        11.750           0.625
  19896761.139   -24395673.720 8 -18965835.43523        29.000           2.688
 91  6 24 18 28 29.9980000  0  2G19G 2
  22407794.670     9161441.124 5   7138778.66521        11.250           0.750
  19895037.123   -24404736.649 8 -18972897.45923        29.000           2.656
 91  6 24 18 28 44.9980000  0  3G15G19G 2
  23598698.068          -0.16714                         7.000
  22414371.920     9196028.042 5   7165729.46021        11.250           0.656
  19893327.811   -24413716.608 8 -18979894.83423        29.000           2.688
 91  6 24 18 28 59.9980000  0  3G15G19G 2
  23592146.326      -34448.675 5                         8.250
  22420967.498     9230671.123 5   7192724.03821        11.250           0.781
  19891633.303   -24422619.641 8 -18986832.26623        29.000           2.563
 91  6 24 18 29 14.9980000  0  3G15G19G 2
  23585612.084      -68797.428 5                         8.500
  22427569.037     9265373.141 5   7219764.52721        11.750           0.656
  19889954.607   -24431443.091 8 -18993707.68323        28.750           2.531
 91  6 24 18 29 29.9980000  0  3G15G19G 2
  23579094.084     -103046.268 5                         8.750
  22434188.256     9300133.886 5   7246850.78621        11.250           0.656
  19888290.522   -24440186.996 8 -19000521.11923        28.500           2.625
 91  6 24 18 29 44.9980000  0  3G15G19G 2
  23572590.225     -137196.052 5        -0.43131         8.000           0.406
  22440812.779     9334952.105 5   7273981.82921        11.750           0.563
  19886641.897   -24448852.424 8 -19007273.40423        28.750           2.625
 91  6 24 18 29 59.9980000  0  3G15G19G 2
  23566114.732     -171240.755 5    -26528.74921         9.250           0.406
  22447451.178     9369833.289 5   7301161.93521        11.000           0.563
  19885008.732   -24457433.939 8 -19013960.30323        28.750           2.656
 91  6 24 18 30 14.9980000  0  3G15G19G 2
  23559656.803     -205188.105 5    -52981.23321         9.500           0.344
  22454096.904     9404769.436 5   7328384.86321        11.750           0.656
  19883389.779   -24465939.571 8 -19020588.07223        28.500           2.688
 91  6 24 18 30 29.9980000  0  4G15G 6G19G 2
  23553214.647     -239037.356 5    -79357.24921        10.250           0.406
  20209084.147          -0.28417                        22.500
  22460758.373     9439760.754 5   7355650.79621        11.250           0.563
  19881785.818   -24474369.015 8 -19027156.47423        28.250           2.625
 91  6 24 18 30 44.9980000  0  4G15G 6G19G 2
  23546792.209     -272782.537 5   -105652.21721        10.250           0.406
  20204329.600      -24981.798 7                        22.500
  22467425.498     9474812.881 5   7382964.10521        11.000           0.688
  19880197.545   -24482716.772 8 -19033661.22223        28.250           2.563
 91  6 24 18 30 59.9980000  0  4G15G 6G19G 2
  23540388.022     -306425.644 5   -131867.60321        10.000           0.375
  20199589.311      -49890.512 7                        22.750
  22474109.873     9509923.399 5   7410322.90521        11.000           0.594
  19878624.811   -24490985.107 8 -19040104.08623        28.500           2.563
 91  6 24 18 31 14.9980000  0  4G15G 6G19G 2
  23534006.326     -339963.423 5   -158000.90721        10.500           0.406
  20194864.139      -74723.364 7                        23.000
  22480800.178     9545095.245 5   7437729.50621        11.000           0.594
  19877066.475   -24499171.077 8 -19046482.76623        28.250           2.563
 91  6 24 18 31 29.9980000  0  3G15G19G 2
  23527643.147     -373399.243 5   -184054.79321         9.750           0.313
  22487504.717     9580324.139 5   7465180.55121        10.500           0.688
  19875522.850   -24507278.759 8 -19052800.44523        28.500           2.656
 91  6 24 18 31 44.9980000  0  3G15G19G 2
  23521300.857     -406733.493 5   -210029.50621        10.500           0.250
  22494217.014     9615609.656 5   7492675.71621        11.000           0.719
  19873995.147   -24515308.646 8 -19059057.50523        28.250           2.656
 91  6 24 18 31 59.9980000  0  3G15G19G 2
  23514979.022     -439966.294 5   -235925.18021        10.000           0.313
  22500944.865     9650951.157 5   7520214.50721        10.750           0.563
  19872482.045   -24523261.251 8 -19065254.34523        28.500           2.594
 91  6 24 18 32 14.9980000  0  3G15G19G 2
  23508674.857     -473095.062 5   -261739.79921        10.500           0.406
  22507682.225     9686350.862 5   7547798.64221        11.000           0.563
  19870984.553   -24531134.527 8 -19071389.36823        28.250           2.688
 91  6 24 18 32 29.9980000  0  3G15G19G 2
  23502387.545     -506123.633 5   -287476.32221        10.000           0.250
  22514428.818     9721804.522 5   7575424.84621        11.000           0.594
  19869500.850   -24538932.644 8 -19077465.82723        28.500           2.719
 91  6 24 18 32 44.9980000  0  3G15G19G 2
  23496121.053     -539048.657 5   -313132.19021         9.500           0.281
  22521184.365     9757315.036 5   7603095.34521        11.000           0.531
  19868030.693   -24546652.514 8 -19083481.31323        28.500           2.688
 91  6 24 18 32 59.9980000  0  3G15G19G 2
  23489876.795     -571870.620 5   -338707.74821         9.500           0.313
  22527956.209     9792881.459 5   7630809.39721        11.250           0.656
  19866576.639   -24554294.941 8 -19089436.45423        28.500           2.594
 91  6 24 18 33 14.9980000  0  3G15G19G 2
  23483651.092     -604587.758 5   -364201.60321         9.250           0.344
  22534731.365     9828505.043 5   7658567.99021        11.250           0.563
  19865137.584   -24561858.824 8 -19095330.39223        28.500           2.656
 91  6 24 18 33 29.9980000  0  3G15G19G 2
  23477440.256     -637204.955 5   -389617.59721         8.250           0.344
  22541523.522     9864180.866 5   7686367.29421        11.000           0.500
  19863712.342   -24569348.945 8 -19101166.85123        28.750           2.563
 91  6 24 18 33 44.9980000  0  4G15G 6G19G 2
  23471254.107     -669718.735 5   -414952.97921         9.000           0.281
  20148364.248          -0.04717                        23.750
  22548321.193     9899911.758 5   7714209.50321        11.250           0.500
  19862301.600   -24576762.653 8 -19106943.76723        28.750           2.656
 91  6 24 18 33 59.9980000  0  4G15G 6G19G 2
  23465090.920     -702128.582 5   -440207.41421         8.250           0.406
  20143789.865      -24038.564 7                        23.250
  22555131.373     9935697.723 5   7742094.63421        11.000           0.531
  19860905.732   -24584099.735 8 -19112660.97523        28.500           2.625
 91  6 24 18 34 14.9980000  0  4G15G 6G19G 2
  23458941.561     -734435.632 5   -465381.68421         9.250           0.250
  20139228.725      -48005.428 7                        23.250
  22561949.545     9971537.303 5   7770021.54421        11.000           0.500
  19859523.522   -24591361.726 8 -19118319.67723        28.750           2.625
 91  6 24 18 34 29.9980000  0  4G15G 6G19G 2
  23452810.779     -766640.905 5   -490476.70021         9.000           0.313
  20134682.022      -71902.075 7                        23.250
  22568781.662    10007428.837 5   7797988.93221        10.500           0.375
  19858155.404   -24598550.268 8 -19123921.13923        28.750           2.531
 91  6 24 18 34 44.9980000  0  4G15G 6G19G 2
  23446703.186     -798742.249 5   -515490.74621         8.250           0.344
  20130149.014      -95726.203 7        -0.39833        23.250           2.688
  22575620.428    10043374.177 5   7825998.24721        10.750           0.500
  19856800.811   -24605663.344 8 -19129463.80023        28.750           2.719
 91  6 24 18 34 59.9980000  0  4G15G 6G19G 2
  23440619.537     -830737.523 5   -540422.09621         9.250           0.313
  20125628.592     -119475.702 7    -18506.49223        22.750           2.750
  22582473.631    10079375.148 5   7854050.92321        10.500           0.469
  19855462.865   -24612699.159 8 -19134946.25423        28.500           2.656
 91  6 24 18 35 14.9980000  0  4G15G 6G19G 2
  23434549.912     -862628.244 5   -565271.98121         9.250           0.375
  20121122.982     -143152.500 7    -36955.94423        22.750           2.688
  22589331.998    10115429.710 5   7882145.34321        10.500           0.563
  19854138.623   -24619659.640 8 -19140370.01123        28.750           2.750
 91  6 24 18 35 29.9980000  0  4G15G 6G19G 2
  23428500.068     -894414.002 5   -590040.09121         8.250           0.313
  20116631.459     -166755.998 7    -55348.28023        22.750           2.844
  22596203.842    10151537.997 5   7910281.62421        10.500           0.500
  19852828.498   -24626544.646 8 -19145734.95723        28.750           2.688
 91  6 24 18 35 44.9980000  0  4G15G 6G19G 2
  23422471.545     -926094.385 5   -614726.08421         9.250           0.438
  20112153.490     -190286.013 7    -73683.34723        22.750           2.813
  22603085.537    10187699.940 5   7938459.71921        10.500           0.500
  19851532.381   -24633354.235 8 -19151041.13223        28.500           2.781
 91  6 24 18 35 59.9980000  0  4G15G 6G19G 2
  23416459.068     -957667.416 5   -639328.43521         8.500           0.344
  20107690.514     -213740.657 7    -91959.68923        22.750           2.906
  22609983.147    10223916.941 5   7966680.70521        10.000           0.375
  19850251.225   -24640086.710 8 -19156287.22123        28.750           2.656
 91  6 24 18 36 14.9980000  0  4G15G 6G19G 2
  23410475.436     -989134.360 5   -663848.08421         9.500           0.344
  20103242.084     -237121.312 7   -110178.37823        22.750           2.688
  22616879.514    10260187.478 5   7994943.41921        10.500           0.563
  19848984.357   -24646743.600 8 -19161474.41223        28.750           2.688
 91  6 24 18 36 29.9980000  0  4G15G 6G19G 2
  23404509.357    -1020494.685 5   -688284.71121         9.750           0.375
  20098807.537     -260427.698 7   -128339.19523        22.750           2.781
  22623794.553    10296511.499 5   8023247.81321         9.750           0.500
  19847731.936   -24653324.867 8 -19166602.67423        28.750           2.781
 91  6 24 18 36 44.9980000  0  5G15G 6G13G19G 2
  23398554.092    -1051755.192 5   -712643.52721         9.250           0.375
  20094384.373     -283666.455 7   -146447.31223        22.750           2.750
  23403403.889      -67573.696 5                         8.500
  22630713.803    10332882.152 5   8051588.52921        10.250           0.531
  19846492.834   -24659837.612 8 -19171677.54423        29.000           2.781
 91  6 24 18 36 59.9980000  0  5G15G 6G13G19G 2
  23392626.443    -1082910.305 5   -736920.22621         9.250           0.438
  20089976.443     -306832.398 7   -164498.69423        23.000           2.781
  23390550.022     -135119.595 5                         9.000
  22637643.295    10369304.431 5   8079969.49921        10.250           0.625
  19845267.459   -24666276.812 8 -19176695.10523        29.000           2.656
 91  6 24 18 37 14.9980000  0  5G15G 6G13G19G 2
  23386719.154    -1113959.119 5   -761114.08721         9.000           0.469
  20085581.951     -329924.702 7   -182492.69423        23.000           2.750
  23377702.678     -202637.005 5                         9.000
  22644580.959    10405778.752 5   8108390.99821        10.000           0.594
  19844056.943   -24672641.955 8 -19181654.96123        29.000           2.656
 91  6 24 18 37 29.9980000  0  5G15G 6G13G19G 2
  23380832.803    -1144903.429 5   -785226.53321         9.500           0.500
  20081200.170     -352945.182 7   -200430.72623        23.000           2.656
  23364859.006     -270127.542 5                         9.000
  22651537.428    10442302.999 5   8136851.40621        10.250           0.500
  19842859.428   -24678934.908 8 -19186558.56223        29.000           2.656
 91  6 24 18 37 44.9980000  0  5G15G 6G13G19G 2
  23374964.061    -1175741.127 5   -809255.86721         9.750           0.438
  20076833.982     -375891.953 7   -218311.32423        23.250           2.750
  23352021.139     -337589.195 5                         9.250
  22658497.311    10478878.717 5   8165351.91221        10.000           0.563
  19841675.084   -24685154.141 8 -19191404.72423        28.750           2.688
 91  6 24 18 37 59.9980000  0  5G15G 6G13G19G 2
  23369115.803    -1206472.099 5   -833202.09021         9.500           0.500
  20072481.365     -398765.093 7   -236134.54523        23.000           2.813
  23339191.467     -405021.692 5        -0.07831         9.250           0.156
  22665464.404    10515505.644 5   8193892.32421         9.750           0.625
  19840505.084   -24691300.005 8 -19196193.71323        28.750           2.563
 91  6 24 18 38 14.9980000  0  5G15G 6G13G19G 2
  23363293.678    -1237096.224 5   -857065.02821        11.250           0.531
  20068143.936     -421564.412 7   -253900.24823        23.000           2.750
  23326364.014     -472424.714 5    -52521.78721         9.250           0.094
  22672443.404    10552183.537 5   8222472.44921        10.000           0.563
  19839350.154   -24697372.508 8 -19200925.53823        28.750           2.656
 91  6 24 18 38 29.9980000  0  5G15G 6G13G19G 2
  23357484.357    -1267612.213 5   -880843.69121        10.500           0.531
  20063819.623     -444288.606 7   -271607.41123        23.000           2.781
  23313541.865     -539797.073 5   -105019.60121         8.750           0.063
  22679434.100    10588913.409 5   8251093.08421         9.750           0.563
  19838208.787   -24703370.631 8 -19205599.40223        28.750           2.594
 91  6 24 18 38 44.9980000  0  5G15G 6G13G19G 2
  23351698.436    -1298019.109 5   -904537.36321        10.500           0.500
  20059509.326     -466937.100 7   -289255.58323        22.750           2.625
  23300727.607     -607137.825 5   -157492.81521         8.500           0.156
  22686434.607    10625695.673 5   8279754.54121        10.000           0.500
  19837081.436   -24709294.074 8 -19210215.07523        28.500           2.594
 91  6 24 18 38 59.9980000  0  5G15G 6G13G19G 2
  23345931.732    -1328320.441 5   -928148.78121        10.750           0.469
  20055212.693     -489513.425 7   -306847.52423        22.750           2.719
  23287917.756     -674450.430 5   -209944.07521         8.000           0.250
  22693447.162    10662526.408 5   8308453.77421         9.250           0.563
  19835968.154   -24715146.481 8 -19214775.39423        28.750           2.625
 91  6 24 18 39 14.9980000  0  5G15G 6G13G19G 2
  23340187.201    -1358512.723 5   -951675.22021        11.750           0.469
  20050930.529     -512014.020 7   -324380.44923        22.750           2.781
  23275116.490     -741731.133 5   -262370.50121         8.000           0.188
  22700460.584    10699408.897 5   8337193.33521        10.250           0.469
  19834868.662   -24720924.582 8 -19219277.81323        28.500           2.625
 91  6 24 18 39 29.9980000  0  5G15G 6G13G19G 2
  23334460.725    -1388594.610 6   -975115.63821        12.000           0.406
  20046663.662     -534437.946 7   -341853.63823        22.750           2.656
  23262319.920     -808978.817 5   -314771.14721         7.750           0.094
  22707490.662    10736343.778 5   8365973.71521        10.250           0.594
  19833783.162   -24726627.733 8 -19223721.83123        28.250           2.656
 91  6 24 18 39 44.9980000  0  5G15G 6G13G19G 2
  23328755.412    -1418574.299 5   -998476.40821        11.250           0.406
  20042409.623     -556793.583 7   -359273.61623        23.000           2.688
  23249527.436     -876201.563 5   -367152.39921         7.500           0.250
  22714526.279    10773322.310 5   8394788.11221        10.000           0.500
  19832710.397   -24732264.597 8 -19228114.19523        28.500           2.625
